Time,TemperatureF,DewpointF,PressureIn,WindDirection,WindDirectionDegrees,WindSpeedMPH,WindSpeedGustMPH,Humidity,HourlyPrecipIn,Conditions,Clouds,dailyrainin,SoftwareType,DateUTC
2013-07-12 00:00:00,64.1,46.1,29.94,SE,138,0.0,0.0,52,0.00,,---,0.00,VWS V14.01,2013-07-12 04:00:00,
2013-07-12 00:01:00,63.4,46.5,29.94,SSW,195,0.0,0.0,54,0.00,,---,0.00,VWS V14.01,2013-07-12 04:01:00,
2013-07-12 00:02:00,64.1,46.1,29.94,SE,138,0.0,0.0,52,0.00,,---,0.00,VWS V14.01,2013-07-12 04:02:00,
2013-07-12 00:03:00,64.3,46.3,29.94,SE,138,0.0,0.0,52,0.00,,---,0.00,VWS V14.01,2013-07-12 04:03:00,
2013-07-12 00:04:00,64.3,46.3,29.94,SE,138,0.0,0.0,52,0.00,,---,0.00,VWS V14.01,2013-07-12 04:04:00,
2013-07-12 00:05:00,63.6,46.6,29.94,SSW,195,0.0,0.0,54,0.00,,---,0.00,VWS V14.01,2013-07-12 04:05:00,
2013-07-12 00:06:00,63.6,46.6,29.94,SSW,196,0.0,0.0,54,0.00,,---,0.00,VWS V14.01,2013-07-12 04:06:00,
2013-07-12 00:07:00,64.1,46.6,29.94,SE,138,0.0,0.0,53,0.00,,---,0.00,VWS V14.01,2013-07-12 04:07:00,
2013-07-12 00:08:00,63.9,47.0,29.94,SE,138,0.0,0.0,54,0.00,,---,0.00,VWS V14.01,2013-07-12 04:08:00,
2013-07-12 00:09:00,63.9,46.5,29.94,SE,138,0.0,0.0,53,0.00,,---,0.00,VWS V14.01,2013-07-12 04:09:00,
2013-07-12 00:10:00,63.9,46.5,29.94,SE,138,0.0,0.0,53,0.00,,---,0.00,VWS V14.01,2013-07-12 04:10:00,
2013-07-12 00:11:00,63.6,46.6,29.94,SSE,154,0.0,0.0,54,0.00,,---,0.00,VWS V14.01,2013-07-12 04:11:00,
2013-07-12 00:12:00,63.9,46.5,29.94,SE,135,0.0,0.0,53,0.00,,---,0.00,VWS V14.01,2013-07-12 04:12:00,
2013-07-12 00:13:00,63.9,46.5,29.94,SE,134,0.0,0.0,53,0.00,,---,0.00,VWS V14.01,2013-07-12 04:13:00,
2013-07-12 00:14:00,63.9,46.5,29.94,SE,134,0.0,0.0,53,0.00,,---,0.00,VWS V14.01,2013-07-12 04:14:00,
2013-07-12 00:15:00,64.1,46.6,29.94,SE,135,0.0,0.0,53,0.00,,---,0.00,VWS V14.01,2013-07-12 04:15:00,
2013-07-12 00:16:00,63.7,46.3,29.94,ESE,119,0.0,0.0,53,0.00,,---,0.00,VWS V14.01,2013-07-12 04:16:00,
2013-07-12 00:17:00,64.1,46.1,29.94,SE,135,0.0,0.0,52,0.00,,---,0.00,VWS V14.01,2013-07-12 04:17:00,
2013-07-12 00:18:00,64.3,45.8,29.94,SE,135,0.0,0.0,51,0.00,,---,0.00,VWS V14.01,2013-07-12 04:18:00,
2013-07-12 00:19:00,64.3,45.8,29.94,SE,135,0.0,0.0,51,0.00,,---,0.00,VWS V14.01,2013-07-12 04:19:00,
2013-07-12 00:20:00,63.9,46.5,29.94,SE,136,0.0,0.0,53,0.00,,---,0.00,VWS V14.01,2013-07-12 04:20:00,
2013-07-12 00:21:00,63.9,46.5,29.94,SE,137,0.0,0.0,53,0.00,,---,0.00,VWS V14.01,2013-07-12 04:21:00,
2013-07-12 00:22:00,64.3,45.8,29.94,SE,135,0.0,0.0,51,0.00,,---,0.00,VWS V14.01,2013-07-12 04:22:00,
2013-07-12 00:23:00,64.5,46.0,29.94,SE,135,0.0,0.0,51,0.00,,---,0.00,VWS V14.01,2013-07-12 04:23:00,
2013-07-12 00:24:00,64.5,46.0,29.94,SE,134,0.0,0.0,51,0.00,,---,0.00,VWS V14.01,2013-07-12 04:24:00,
2013-07-12 00:25:00,64.5,46.0,29.94,SE,135,0.0,0.0,51,0.00,,---,0.00,VWS V14.01,2013-07-12 04:25:00,
2013-07-12 00:26:00,63.9,46.5,29.94,SE,130,0.0,0.0,53,0.00,,---,0.00,VWS V14.01,2013-07-12 04:26:00,
2013-07-12 00:27:00,64.3,45.8,29.94,SE,135,0.0,0.0,51,0.00,,---,0.00,VWS V14.01,2013-07-12 04:27:00,
2013-07-12 00:28:00,64.3,45.8,29.94,SE,135,0.0,0.0,51,0.00,,---,0.00,VWS V14.01,2013-07-12 04:28:00,
2013-07-12 00:29:00,64.1,46.1,29.94,SSE,156,0.0,0.0,52,0.00,,---,0.00,VWS V14.01,2013-07-12 04:29:00,
2013-07-12 00:30:00,64.3,46.3,29.94,NW,307,0.0,4.0,52,0.00,,---,0.00,VWS V14.01,2013-07-12 04:30:00,
2013-07-12 00:31:00,64.1,46.1,29.94,SSE,152,0.0,0.0,52,0.00,,---,0.00,VWS V14.01,2013-07-12 04:31:00,
2013-07-12 00:32:00,64.1,46.1,29.94,SSE,152,0.0,0.0,52,0.00,,---,0.00,VWS V14.01,2013-07-12 04:32:00,
2013-07-12 00:33:00,64.1,46.6,29.94,WNW,295,0.0,0.0,53,0.00,,---,0.00,VWS V14.01,2013-07-12 04:33:00,
2013-07-12 00:34:00,64.1,45.6,29.94,SE,124,0.0,2.7,51,0.00,,---,0.00,VWS V14.01,2013-07-12 04:34:00,
2013-07-12 00:35:00,63.7,46.8,29.94,WSW,253,0.0,0.0,54,0.00,,---,0.00,VWS V14.01,2013-07-12 04:35:00,
2013-07-12 00:36:00,64.3,45.8,29.94,SSE,148,0.0,0.0,51,0.00,,---,0.00,VWS V14.01,2013-07-12 04:36:00,
2013-07-12 00:37:00,63.6,47.1,29.94,WSW,246,0.0,2.7,55,0.00,,---,0.00,VWS V14.01,2013-07-12 04:37:00,
2013-07-12 00:38:00,64.3,45.8,29.94,SSE,148,0.0,0.0,51,0.00,,---,0.00,VWS V14.01,2013-07-12 04:38:00,
2013-07-12 00:39:00,63.4,47.0,29.94,WSW,246,0.0,0.0,55,0.00,,---,0.00,VWS V14.01,2013-07-12 04:39:00,
2013-07-12 00:40:00,63.4,47.0,29.94,WSW,245,0.0,0.0,55,0.00,,---,0.00,VWS V14.01,2013-07-12 04:40:00,
2013-07-12 00:41:00,64.1,45.6,29.94,South,178,3.6,3.6,51,0.00,,---,0.00,VWS V14.01,2013-07-12 04:41:00,
2013-07-12 00:42:00,63.4,47.4,29.94,WSW,246,0.0,0.0,56,0.00,,---,0.00,VWS V14.01,2013-07-12 04:42:00,
2013-07-12 00:43:00,64.1,45.6,29.94,SE,141,0.0,3.6,51,0.00,,---,0.00,VWS V14.01,2013-07-12 04:43:00,
2013-07-12 00:44:00,63.2,47.3,29.94,WSW,246,0.0,0.0,56,0.00,,---,0.00,VWS V14.01,2013-07-12 04:44:00,
2013-07-12 00:45:00,63.2,47.3,29.94,WSW,246,0.0,0.0,56,0.00,,---,0.00,VWS V14.01,2013-07-12 04:45:00,
2013-07-12 00:46:00,64.1,45.6,29.94,SSE,157,0.0,0.0,51,0.00,,---,0.00,VWS V14.01,2013-07-12 04:46:00,
2013-07-12 00:47:00,63.2,47.3,29.94,SW,224,0.0,0.0,56,0.00,,---,0.00,VWS V14.01,2013-07-12 04:47:00,
2013-07-12 00:48:00,64.1,46.1,29.94,SSE,157,0.0,0.0,52,0.00,,---,0.00,VWS V14.01,2013-07-12 04:48:00,
2013-07-12 00:49:00,63.2,47.3,29.94,SW,224,0.0,0.0,56,0.00,,---,0.00,VWS V14.01,2013-07-12 04:49:00,
2013-07-12 00:50:00,64.1,46.1,29.94,ESE,123,0.0,3.6,52,0.00,,---,0.00,VWS V14.01,2013-07-12 04:50:00,
2013-07-12 00:51:00,64.1,46.1,29.94,NE,56,2.7,4.0,52,0.00,,---,0.00,VWS V14.01,2013-07-12 04:51:00,
2013-07-12 00:52:00,63.0,47.1,29.94,SW,224,0.0,0.0,56,0.00,,---,0.00,VWS V14.01,2013-07-12 04:52:00,
2013-07-12 00:53:00,64.1,46.1,29.94,ESE,107,0.0,0.0,52,0.00,,---,0.00,VWS V14.01,2013-07-12 04:53:00,
2013-07-12 00:54:00,63.2,46.8,29.94,SW,224,0.0,0.0,55,0.00,,---,0.00,VWS V14.01,2013-07-12 04:54:00,
2013-07-12 00:55:00,64.1,46.1,29.94,East,96,0.0,0.0,52,0.00,,---,0.00,VWS V14.01,2013-07-12 04:55:00,
2013-07-12 00:56:00,64.1,46.1,29.94,ESE,106,0.0,0.0,52,0.00,,---,0.00,VWS V14.01,2013-07-12 04:56:00,
2013-07-12 00:57:00,63.2,46.8,29.94,SSW,204,0.0,0.0,55,0.00,,---,0.00,VWS V14.01,2013-07-12 04:57:00,
2013-07-12 00:58:00,64.1,46.1,29.94,NE,55,0.0,4.5,52,0.00,,---,0.00,VWS V14.01,2013-07-12 04:58:00,
2013-07-12 00:59:00,64.1,46.1,29.94,SE,140,0.0,0.0,52,0.00,,---,0.00,VWS V14.01,2013-07-12 04:59:00,
2013-07-12 01:00:00,64.1,46.1,29.94,SE,139,2.7,4.5,52,0.00,,---,0.00,VWS V14.01,2013-07-12 05:00:00,
2013-07-12 01:01:00,64.1,46.1,29.94,SE,139,0.0,0.0,52,0.00,,---,0.00,VWS V14.01,2013-07-12 05:01:00,
2013-07-12 01:02:00,64.1,46.1,29.94,SE,139,0.0,0.0,52,0.00,,---,0.00,VWS V14.01,2013-07-12 05:02:00,
2013-07-12 01:03:00,63.6,46.6,29.94,SSW,195,0.0,0.0,54,0.00,,---,0.00,VWS V14.01,2013-07-12 05:03:00,
2013-07-12 01:04:00,63.6,46.6,29.94,SSW,195,0.0,0.0,54,0.00,,---,0.00,VWS V14.01,2013-07-12 05:04:00,
2013-07-12 01:05:00,63.6,46.6,29.94,SSW,195,0.0,0.0,54,0.00,,---,0.00,VWS V14.01,2013-07-12 05:05:00,
2013-07-12 01:06:00,64.1,46.1,29.94,East,100,0.0,0.0,52,0.00,,---,0.00,VWS V14.01,2013-07-12 05:06:00,
2013-07-12 01:07:00,63.6,46.6,29.94,South,189,0.0,0.0,54,0.00,,---,0.00,VWS V14.01,2013-07-12 05:07:00,
2013-07-12 01:08:00,64.3,46.3,29.94,East,101,0.0,0.0,52,0.00,,---,0.00,VWS V14.01,2013-07-12 05:08:00,
2013-07-12 01:09:00,64.3,46.3,29.94,East,101,0.0,0.0,52,0.00,,---,0.00,VWS V14.01,2013-07-12 05:09:00,
2013-07-12 01:10:00,63.6,46.6,29.94,SSE,154,0.0,0.0,54,0.00,,---,0.00,VWS V14.01,2013-07-12 05:10:00,
2013-07-12 01:11:00,64.1,46.1,29.94,ESE,116,0.0,0.0,52,0.00,,---,0.00,VWS V14.01,2013-07-12 05:11:00,
2013-07-12 01:12:00,63.7,46.8,29.94,SSE,154,0.0,0.0,54,0.00,,---,0.00,VWS V14.01,2013-07-12 05:12:00,
2013-07-12 01:13:00,63.7,46.8,29.94,SSE,154,0.0,0.0,54,0.00,,---,0.00,VWS V14.01,2013-07-12 05:13:00,
2013-07-12 01:14:00,63.7,46.8,29.94,SSE,154,0.0,0.0,54,0.00,,---,0.00,VWS V14.01,2013-07-12 05:14:00,
2013-07-12 01:15:00,63.7,46.8,29.94,ESE,119,0.0,2.7,54,0.00,,---,0.00,VWS V14.01,2013-07-12 05:15:00,
2013-07-12 01:16:00,64.1,46.1,29.94,ENE,62,0.0,0.0,52,0.00,,---,0.00,VWS V14.01,2013-07-12 05:16:00,
2013-07-12 01:17:00,63.7,46.3,29.94,ESE,119,0.0,0.0,53,0.00,,---,0.00,VWS V14.01,2013-07-12 05:17:00,
2013-07-12 01:18:00,63.9,46.5,29.94,SE,136,0.0,0.0,53,0.00,,---,0.00,VWS V14.01,2013-07-12 05:18:00,
2013-07-12 01:19:00,63.9,46.5,29.94,SE,136,0.0,0.0,53,0.00,,---,0.00,VWS V14.01,2013-07-12 05:19:00,
2013-07-12 01:20:00,63.9,46.5,29.94,SE,136,0.0,0.0,53,0.00,,---,0.00,VWS V14.01,2013-07-12 05:20:00,
2013-07-12 01:21:00,64.1,46.1,29.94,ENE,61,0.0,0.0,52,0.00,,---,0.00,VWS V14.01,2013-07-12 05:21:00,
2013-07-12 01:22:00,63.9,46.5,29.94,SE,136,0.0,0.0,53,0.00,,---,0.00,VWS V14.01,2013-07-12 05:22:00,
2013-07-12 01:23:00,63.9,46.5,29.94,SSE,153,0.0,3.6,53,0.00,,---,0.00,VWS V14.01,2013-07-12 05:23:00,
2013-07-12 01:24:00,63.9,46.5,29.94,SSE,153,0.0,0.0,53,0.00,,---,0.00,VWS V14.01,2013-07-12 05:24:00,
2013-07-12 01:25:00,63.9,46.0,29.94,SE,137,2.7,4.9,52,0.00,,---,0.00,VWS V14.01,2013-07-12 05:25:00,
2013-07-12 01:26:00,64.1,46.6,29.94,ENE,61,0.0,0.0,53,0.00,,---,0.00,VWS V14.01,2013-07-12 05:26:00,
2013-07-12 01:27:00,64.1,46.6,29.94,SSW,209,3.6,4.9,53,0.00,,---,0.00,VWS V14.01,2013-07-12 05:27:00,
2013-07-12 01:28:00,64.1,46.1,29.94,SSW,202,0.0,3.6,52,0.00,,---,0.00,VWS V14.01,2013-07-12 05:28:00,
2013-07-12 01:29:00,64.1,46.1,29.94,SSE,156,0.0,0.0,52,0.00,,---,0.00,VWS V14.01,2013-07-12 05:29:00,
2013-07-12 01:30:00,64.1,46.1,29.94,SSE,152,2.7,3.1,52,0.00,,---,0.00,VWS V14.01,2013-07-12 05:30:00,
2013-07-12 01:31:00,64.1,46.6,29.94,ENE,61,0.0,0.0,53,0.00,,---,0.00,VWS V14.01,2013-07-12 05:31:00,
2013-07-12 01:32:00,64.1,46.1,29.94,SSE,152,0.0,0.0,52,0.00,,---,0.00,VWS V14.01,2013-07-12 05:32:00,
2013-07-12 01:33:00,64.1,46.1,29.94,SE,124,2.7,2.7,52,0.00,,---,0.00,VWS V14.01,2013-07-12 05:33:00,
2013-07-12 01:34:00,64.1,45.6,29.94,SE,124,0.0,2.7,51,0.00,,---,0.00,VWS V14.01,2013-07-12 05:34:00,
2013-07-12 01:35:00,64.1,45.6,29.94,SSE,149,0.0,4.0,51,0.00,,---,0.00,VWS V14.01,2013-07-12 05:35:00,
2013-07-12 01:36:00,64.1,46.6,29.94,ENE,66,0.0,0.0,53,0.00,,---,0.00,VWS V14.01,2013-07-12 05:36:00,
2013-07-12 01:37:00,64.3,45.8,29.94,SSE,148,0.0,0.0,51,0.00,,---,0.00,VWS V14.01,2013-07-12 05:37:00,
2013-07-12 01:38:00,64.3,45.8,29.94,SSE,148,0.0,0.0,51,0.00,,---,0.00,VWS V14.01,2013-07-12 05:38:00,
2013-07-12 01:39:00,64.3,45.8,29.94,SSE,148,2.7,3.1,51,0.00,,---,0.00,VWS V14.01,2013-07-12 05:39:00,
2013-07-12 01:40:00,64.1,45.6,29.94,SE,142,3.1,4.0,51,0.00,,---,0.00,VWS V14.01,2013-07-12 05:40:00,
2013-07-12 01:41:00,64.1,46.6,29.94,ENE,68,0.0,0.0,53,0.00,,---,0.00,VWS V14.01,2013-07-12 05:41:00,
2013-07-12 01:42:00,64.1,45.6,29.94,SE,140,3.6,4.0,51,0.00,,---,0.00,VWS V14.01,2013-07-12 05:42:00,
2013-07-12 01:43:00,64.1,45.6,29.94,SE,141,0.0,3.6,51,0.00,,---,0.00,VWS V14.01,2013-07-12 05:43:00,
2013-07-12 01:44:00,64.1,45.6,29.94,SE,137,0.0,0.0,51,0.00,,---,0.00,VWS V14.01,2013-07-12 05:44:00,
2013-07-12 01:45:00,64.1,45.6,29.94,South,188,0.0,0.0,51,0.00,,---,0.00,VWS V14.01,2013-07-12 05:45:00,
2013-07-12 01:46:00,64.1,46.6,29.94,ENE,68,0.0,0.0,53,0.00,,---,0.00,VWS V14.01,2013-07-12 05:46:00,
2013-07-12 01:47:00,64.1,46.1,29.94,SSE,157,0.0,0.0,52,0.00,,---,0.00,VWS V14.01,2013-07-12 05:47:00,
2013-07-12 01:48:00,64.1,46.1,29.94,SSE,157,0.0,0.0,52,0.00,,---,0.00,VWS V14.01,2013-07-12 05:48:00,
2013-07-12 01:49:00,64.1,46.1,29.94,SSE,157,0.0,0.0,52,0.00,,---,0.00,VWS V14.01,2013-07-12 05:49:00,
2013-07-12 01:50:00,64.1,46.1,29.94,ESE,123,0.0,3.6,52,0.00,,---,0.00,VWS V14.01,2013-07-12 05:50:00,
2013-07-12 01:51:00,64.1,47.1,29.94,ENE,58,0.0,0.0,54,0.00,,---,0.00,VWS V14.01,2013-07-12 05:51:00,
2013-07-12 01:52:00,64.1,45.6,29.94,East,84,0.0,4.0,51,0.00,,---,0.00,VWS V14.01,2013-07-12 05:52:00,
2013-07-12 01:53:00,64.1,46.6,29.94,ENE,59,0.0,0.0,53,0.00,,---,0.00,VWS V14.01,2013-07-12 05:53:00,
2013-07-12 01:54:00,64.1,46.1,29.94,ESE,107,0.0,0.0,52,0.00,,---,0.00,VWS V14.01,2013-07-12 05:54:00,
2013-07-12 01:55:00,64.1,46.1,29.94,East,96,0.0,0.0,52,0.00,,---,0.00,VWS V14.01,2013-07-12 05:55:00,
2013-07-12 01:56:00,64.1,47.1,29.94,NNE,15,0.0,0.0,54,0.00,,---,0.00,VWS V14.01,2013-07-12 05:56:00,
2013-07-12 01:57:00,64.1,46.1,29.94,NE,44,4.5,4.5,52,0.00,,---,0.00,VWS V14.01,2013-07-12 05:57:00,
2013-07-12 01:58:00,64.1,46.1,29.94,NE,55,0.0,4.5,52,0.00,,---,0.00,VWS V14.01,2013-07-12 05:58:00,
2013-07-12 01:59:00,64.1,47.1,29.94,NE,45,0.0,0.0,54,0.00,,---,0.00,VWS V14.01,2013-07-12 05:59:00,
2013-07-12 02:00:00,64.1,47.1,29.94,NE,45,0.0,0.0,54,0.00,,---,0.00,VWS V14.01,2013-07-12 06:00:00,
2013-07-12 02:01:00,63.9,47.0,29.94,NE,45,0.0,0.0,54,0.00,,---,0.00,VWS V14.01,2013-07-12 06:01:00,
2013-07-12 02:02:00,64.1,46.1,29.94,SE,139,0.0,0.0,52,0.00,,---,0.00,VWS V14.01,2013-07-12 06:02:00,
2013-07-12 02:03:00,64.1,46.1,29.94,SE,139,0.0,0.0,52,0.00,,---,0.00,VWS V14.01,2013-07-12 06:03:00,
2013-07-12 02:04:00,63.9,47.0,29.94,NE,53,3.1,3.6,54,0.00,,---,0.00,VWS V14.01,2013-07-12 06:04:00,
2013-07-12 02:05:00,64.1,46.1,29.94,East,101,0.0,3.6,52,0.00,,---,0.00,VWS V14.01,2013-07-12 06:05:00,
2013-07-12 02:06:00,63.9,47.0,29.94,NE,51,0.0,0.0,54,0.00,,---,0.00,VWS V14.01,2013-07-12 06:06:00,
2013-07-12 02:07:00,64.3,46.3,29.94,East,101,0.0,0.0,52,0.00,,---,0.00,VWS V14.01,2013-07-12 06:07:00,
2013-07-12 02:08:00,64.3,46.3,29.94,East,101,0.0,0.0,52,0.00,,---,0.00,VWS V14.01,2013-07-12 06:08:00,
2013-07-12 02:09:00,64.3,46.3,29.94,East,101,0.0,0.0,52,0.00,,---,0.00,VWS V14.01,2013-07-12 06:09:00,
2013-07-12 02:10:00,64.3,46.3,29.94,ESE,116,2.7,3.6,52,0.00,,---,0.00,VWS V14.01,2013-07-12 06:10:00,
2013-07-12 02:11:00,63.9,47.0,29.94,NE,44,3.6,3.6,54,0.00,,---,0.00,VWS V14.01,2013-07-12 06:11:00,
2013-07-12 02:12:00,64.1,46.1,29.94,ESE,116,0.0,0.0,52,0.00,,---,0.00,VWS V14.01,2013-07-12 06:12:00,
2013-07-12 02:13:00,64.1,46.1,29.94,ESE,116,0.0,0.0,52,0.00,,---,0.00,VWS V14.01,2013-07-12 06:13:00,
2013-07-12 02:14:00,64.1,46.1,29.94,ESE,115,0.0,0.0,52,0.00,,---,0.00,VWS V14.01,2013-07-12 06:14:00,
2013-07-12 02:15:00,64.1,46.1,29.94,ENE,61,0.0,4.0,52,0.00,,---,0.00,VWS V14.01,2013-07-12 06:15:00,
2013-07-12 02:16:00,64.1,47.1,29.94,ENE,59,0.0,0.0,54,0.00,,---,0.00,VWS V14.01,2013-07-12 06:16:00,
2013-07-12 02:17:00,64.1,46.1,29.94,ENE,62,0.0,0.0,52,0.00,,---,0.00,VWS V14.01,2013-07-12 06:17:00,
2013-07-12 02:18:00,64.1,46.1,29.94,ENE,61,0.0,0.0,52,0.00,,---,0.00,VWS V14.01,2013-07-12 06:18:00,
2013-07-12 02:19:00,64.1,46.1,29.94,ENE,61,0.0,0.0,52,0.00,,---,0.00,VWS V14.01,2013-07-12 06:19:00,
2013-07-12 02:20:00,64.1,46.1,29.94,ENE,61,0.0,0.0,52,0.00,,---,0.00,VWS V14.01,2013-07-12 06:20:00,
2013-07-12 02:21:00,63.9,47.5,29.97,ENE,59,0.0,0.0,55,0.00,,---,0.00,VWS V14.01,2013-07-12 06:21:00,
2013-07-12 02:22:00,64.1,46.1,29.94,ENE,61,0.0,0.0,52,0.00,,---,0.00,VWS V14.01,2013-07-12 06:22:00,
2013-07-12 02:23:00,64.1,46.1,29.94,ENE,62,0.0,0.0,52,0.00,,---,0.00,VWS V14.01,2013-07-12 06:23:00,
2013-07-12 02:24:00,64.1,46.1,29.94,ENE,61,0.0,0.0,52,0.00,,---,0.00,VWS V14.01,2013-07-12 06:24:00,
2013-07-12 02:25:00,64.1,46.1,29.94,ENE,61,0.0,0.0,52,0.00,,---,0.00,VWS V14.01,2013-07-12 06:25:00,
2013-07-12 02:26:00,63.7,47.8,29.97,ESE,116,0.0,0.0,56,0.00,,---,0.00,VWS V14.01,2013-07-12 06:26:00,
2013-07-12 02:27:00,64.1,46.6,29.94,ENE,62,0.0,0.0,53,0.00,,---,0.00,VWS V14.01,2013-07-12 06:27:00,
2013-07-12 02:28:00,64.1,46.6,29.94,ENE,61,0.0,0.0,53,0.00,,---,0.00,VWS V14.01,2013-07-12 06:28:00,
2013-07-12 02:29:00,64.1,46.6,29.94,ENE,61,0.0,0.0,53,0.00,,---,0.00,VWS V14.01,2013-07-12 06:29:00,
2013-07-12 02:30:00,64.1,46.6,29.94,ENE,62,0.0,0.0,53,0.00,,---,0.00,VWS V14.01,2013-07-12 06:30:00,
2013-07-12 02:31:00,63.7,47.8,29.97,ESE,116,0.0,0.0,56,0.00,,---,0.00,VWS V14.01,2013-07-12 06:31:00,
2013-07-12 02:32:00,64.1,46.6,29.94,ENE,61,0.0,0.0,53,0.00,,---,0.00,VWS V14.01,2013-07-12 06:32:00,
2013-07-12 02:33:00,63.7,47.8,29.97,ESE,116,0.0,0.0,56,0.00,,---,0.00,VWS V14.01,2013-07-12 06:33:00,
2013-07-12 02:34:00,64.1,46.6,29.94,ENE,61,0.0,0.0,53,0.00,,---,0.00,VWS V14.01,2013-07-12 06:34:00,
2013-07-12 02:35:00,64.1,46.6,29.94,ENE,61,0.0,0.0,53,0.00,,---,0.00,VWS V14.01,2013-07-12 06:35:00,
2013-07-12 02:36:00,63.7,47.8,29.97,ESE,117,0.0,0.0,56,0.00,,---,0.00,VWS V14.01,2013-07-12 06:36:00,
2013-07-12 02:37:00,64.1,46.6,29.94,ENE,66,0.0,0.0,53,0.00,,---,0.00,VWS V14.01,2013-07-12 06:37:00,
2013-07-12 02:38:00,64.1,46.6,29.94,ENE,68,0.0,0.0,53,0.00,,---,0.00,VWS V14.01,2013-07-12 06:38:00,
2013-07-12 02:39:00,64.1,46.6,29.94,ENE,68,0.0,0.0,53,0.00,,---,0.00,VWS V14.01,2013-07-12 06:39:00,
2013-07-12 02:40:00,64.1,46.6,29.94,ENE,68,0.0,0.0,53,0.00,,---,0.00,VWS V14.01,2013-07-12 06:40:00,
2013-07-12 02:41:00,63.7,47.8,29.97,East,100,0.0,0.0,56,0.00,,---,0.00,VWS V14.01,2013-07-12 06:41:00,
2013-07-12 02:42:00,64.1,46.6,29.94,ENE,68,0.0,0.0,53,0.00,,---,0.00,VWS V14.01,2013-07-12 06:42:00,
2013-07-12 02:43:00,64.1,46.6,29.94,ENE,68,0.0,0.0,53,0.00,,---,0.00,VWS V14.01,2013-07-12 06:43:00,
2013-07-12 02:44:00,64.1,46.6,29.94,ENE,68,0.0,0.0,53,0.00,,---,0.00,VWS V14.01,2013-07-12 06:44:00,
2013-07-12 02:45:00,64.1,46.6,29.94,ENE,68,0.0,0.0,53,0.00,,---,0.00,VWS V14.01,2013-07-12 06:45:00,
2013-07-12 02:46:00,63.7,48.2,29.97,NNW,340,0.0,0.0,57,0.00,,---,0.00,VWS V14.01,2013-07-12 06:46:00,
2013-07-12 02:47:00,63.6,48.1,29.97,NNW,340,0.0,0.0,57,0.00,,---,0.00,VWS V14.01,2013-07-12 06:47:00,
2013-07-12 02:48:00,64.1,46.6,29.94,ENE,68,0.0,0.0,53,0.00,,---,0.00,VWS V14.01,2013-07-12 06:48:00,
2013-07-12 02:49:00,64.1,46.6,29.94,NE,43,0.0,0.0,53,0.00,,---,0.00,VWS V14.01,2013-07-12 06:49:00,
2013-07-12 02:50:00,64.1,46.6,29.94,NE,43,0.0,0.0,53,0.00,,---,0.00,VWS V14.01,2013-07-12 06:50:00,
2013-07-12 02:51:00,63.6,48.5,29.97,WNW,298,0.0,0.0,58,0.00,,---,0.00,VWS V14.01,2013-07-12 06:51:00,
2013-07-12 02:52:00,64.1,46.6,29.94,ENE,58,0.0,0.0,53,0.00,,---,0.00,VWS V14.01,2013-07-12 06:52:00,
2013-07-12 02:53:00,64.1,46.6,29.94,ENE,59,0.0,0.0,53,0.00,,---,0.00,VWS V14.01,2013-07-12 06:53:00,
2013-07-12 02:54:00,64.1,46.6,29.94,ENE,58,0.0,0.0,53,0.00,,---,0.00,VWS V14.01,2013-07-12 06:54:00,
2013-07-12 02:55:00,64.1,46.6,29.94,North,9,0.0,0.0,53,0.00,,---,0.00,VWS V14.01,2013-07-12 06:55:00,
2013-07-12 02:56:00,63.4,48.8,29.97,WNW,294,2.7,3.6,59,0.00,,---,0.00,VWS V14.01,2013-07-12 06:56:00,
2013-07-12 02:57:00,64.1,47.1,29.94,NE,43,2.7,3.6,54,0.00,,---,0.00,VWS V14.01,2013-07-12 06:57:00,
2013-07-12 02:58:00,64.1,47.1,29.94,NE,43,0.0,3.1,54,0.00,,---,0.00,VWS V14.01,2013-07-12 06:58:00,
2013-07-12 02:59:00,64.1,47.1,29.94,NE,45,0.0,0.0,54,0.00,,---,0.00,VWS V14.01,2013-07-12 06:59:00,
2013-07-12 03:00:00,64.1,47.1,29.94,NE,45,0.0,0.0,54,0.00,,---,0.00,VWS V14.01,2013-07-12 07:00:00,
2013-07-12 03:01:00,63.0,48.9,29.97,WNW,287,3.6,3.6,60,0.00,,---,0.00,VWS V14.01,2013-07-12 07:01:00,
2013-07-12 03:02:00,63.9,47.0,29.94,NE,55,0.0,0.0,54,0.00,,---,0.00,VWS V14.01,2013-07-12 07:02:00,
2013-07-12 03:03:00,63.9,47.0,29.94,NE,47,0.0,0.0,54,0.00,,---,0.00,VWS V14.01,2013-07-12 07:03:00,
2013-07-12 03:04:00,63.9,47.0,29.94,NE,53,3.1,3.6,54,0.00,,---,0.00,VWS V14.01,2013-07-12 07:04:00,
2013-07-12 03:05:00,63.9,47.0,29.94,NE,51,0.0,3.1,54,0.00,,---,0.00,VWS V14.01,2013-07-12 07:05:00,
2013-07-12 03:06:00,62.8,49.2,29.97,West,267,0.0,0.0,61,0.00,,---,0.00,VWS V14.01,2013-07-12 07:06:00,
2013-07-12 03:07:00,63.9,47.0,29.94,NE,52,0.0,0.0,54,0.00,,---,0.00,VWS V14.01,2013-07-12 07:07:00,
2013-07-12 03:08:00,63.9,47.0,29.94,NE,53,0.0,0.0,54,0.00,,---,0.00,VWS V14.01,2013-07-12 07:08:00,
2013-07-12 03:09:00,63.9,47.0,29.94,NE,45,4.5,4.5,54,0.00,,---,0.00,VWS V14.01,2013-07-12 07:09:00,
2013-07-12 03:10:00,63.9,47.0,29.94,ENE,58,4.0,5.4,54,0.00,,---,0.00,VWS V14.01,2013-07-12 07:10:00,
2013-07-12 03:11:00,62.7,49.5,29.97,West,279,0.0,0.0,62,0.00,,---,0.00,VWS V14.01,2013-07-12 07:11:00,
2013-07-12 03:12:00,64.1,47.1,29.94,NE,47,0.0,3.6,54,0.00,,---,0.00,VWS V14.01,2013-07-12 07:12:00,
2013-07-12 03:13:00,64.1,47.1,29.94,NE,54,0.0,0.0,54,0.00,,---,0.00,VWS V14.01,2013-07-12 07:13:00,
2013-07-12 03:14:00,64.1,47.1,29.94,ENE,59,0.0,0.0,54,0.00,,---,0.00,VWS V14.01,2013-07-12 07:14:00,
2013-07-12 03:15:00,64.1,47.1,29.94,ENE,60,0.0,0.0,54,0.00,,---,0.00,VWS V14.01,2013-07-12 07:15:00,
2013-07-12 03:16:00,62.7,49.9,29.97,West,279,0.0,0.0,63,0.00,,---,0.00,VWS V14.01,2013-07-12 07:16:00,
2013-07-12 03:17:00,64.1,47.1,29.94,ENE,60,0.0,0.0,54,0.00,,---,0.00,VWS V14.01,2013-07-12 07:17:00,
2013-07-12 03:18:00,63.9,47.0,29.94,ENE,59,0.0,0.0,54,0.00,,---,0.00,VWS V14.01,2013-07-12 07:18:00,
2013-07-12 03:19:00,63.9,47.0,29.94,ENE,59,0.0,0.0,54,0.00,,---,0.00,VWS V14.01,2013-07-12 07:19:00,
2013-07-12 03:20:00,63.9,47.0,29.97,ENE,59,0.0,0.0,54,0.00,,---,0.00,VWS V14.01,2013-07-12 07:20:00,
2013-07-12 03:21:00,62.5,49.7,29.97,NE,43,0.0,0.0,63,0.00,,---,0.00,VWS V14.01,2013-07-12 07:21:00,
2013-07-12 03:22:00,63.9,47.5,29.97,ENE,60,0.0,0.0,55,0.00,,---,0.00,VWS V14.01,2013-07-12 07:22:00,
2013-07-12 03:23:00,63.9,47.5,29.97,ESE,117,3.1,3.6,55,0.00,,---,0.00,VWS V14.01,2013-07-12 07:23:00,
2013-07-12 03:24:00,63.9,47.5,29.97,ESE,116,0.0,3.1,55,0.00,,---,0.00,VWS V14.01,2013-07-12 07:24:00,
2013-07-12 03:25:00,63.7,47.3,29.97,ESE,117,0.0,2.7,55,0.00,,---,0.00,VWS V14.01,2013-07-12 07:25:00,
2013-07-12 03:26:00,62.7,49.9,29.97,NE,43,0.0,0.0,63,0.00,,---,0.00,VWS V14.01,2013-07-12 07:26:00,
2013-07-12 03:27:00,63.7,47.8,29.97,ESE,117,0.0,0.0,56,0.00,,---,0.00,VWS V14.01,2013-07-12 07:27:00,
2013-07-12 03:28:00,63.7,47.8,29.97,ESE,117,0.0,0.0,56,0.00,,---,0.00,VWS V14.01,2013-07-12 07:28:00,
2013-07-12 03:29:00,63.7,47.8,29.97,ESE,117,0.0,0.0,56,0.00,,---,0.00,VWS V14.01,2013-07-12 07:29:00,
2013-07-12 03:30:00,63.7,47.8,29.97,ESE,116,0.0,0.0,56,0.00,,---,0.00,VWS V14.01,2013-07-12 07:30:00,
2013-07-12 03:31:00,62.5,49.7,29.97,NE,41,4.0,4.0,63,0.00,,---,0.00,VWS V14.01,2013-07-12 07:31:00,
2013-07-12 03:32:00,63.7,47.8,29.97,ESE,117,0.0,0.0,56,0.00,,---,0.00,VWS V14.01,2013-07-12 07:32:00,
2013-07-12 03:33:00,63.7,47.8,29.97,ESE,116,0.0,0.0,56,0.00,,---,0.00,VWS V14.01,2013-07-12 07:33:00,
2013-07-12 03:34:00,63.7,47.8,29.97,ESE,117,0.0,0.0,56,0.00,,---,0.00,VWS V14.01,2013-07-12 07:34:00,
2013-07-12 03:35:00,63.7,47.8,29.97,ESE,117,0.0,0.0,56,0.00,,---,0.00,VWS V14.01,2013-07-12 07:35:00,
2013-07-12 03:36:00,62.7,49.9,29.97,NE,41,0.0,0.0,63,0.00,,---,0.00,VWS V14.01,2013-07-12 07:36:00,
2013-07-12 03:37:00,63.7,47.8,29.97,ESE,116,0.0,0.0,56,0.00,,---,0.00,VWS V14.01,2013-07-12 07:37:00,
2013-07-12 03:38:00,63.7,47.8,29.97,ESE,116,0.0,0.0,56,0.00,,---,0.00,VWS V14.01,2013-07-12 07:38:00,
2013-07-12 03:39:00,63.7,47.8,29.97,ESE,110,0.0,0.0,56,0.00,,---,0.00,VWS V14.01,2013-07-12 07:39:00,
2013-07-12 03:40:00,63.7,47.8,29.97,ESE,110,0.0,0.0,56,0.00,,---,0.00,VWS V14.01,2013-07-12 07:40:00,
2013-07-12 03:41:00,62.7,49.9,29.97,NW,319,0.0,0.0,63,0.00,,---,0.00,VWS V14.01,2013-07-12 07:41:00,
2013-07-12 03:42:00,63.7,48.2,29.97,ENE,72,0.0,0.0,57,0.00,,---,0.00,VWS V14.01,2013-07-12 07:42:00,
2013-07-12 03:43:00,63.7,48.2,29.97,NNE,32,0.0,0.0,57,0.00,,---,0.00,VWS V14.01,2013-07-12 07:43:00,
2013-07-12 03:44:00,63.7,48.2,29.97,NNW,340,0.0,0.0,57,0.00,,---,0.00,VWS V14.01,2013-07-12 07:44:00,
2013-07-12 03:45:00,63.7,48.2,29.97,NNW,340,0.0,0.0,57,0.00,,---,0.00,VWS V14.01,2013-07-12 07:45:00,
2013-07-12 03:46:00,62.7,49.9,29.97,NW,323,0.0,0.0,63,0.00,,---,0.00,VWS V14.01,2013-07-12 07:46:00,
2013-07-12 03:47:00,63.6,48.1,29.97,NNW,340,0.0,0.0,57,0.00,,---,0.00,VWS V14.01,2013-07-12 07:47:00,
2013-07-12 03:48:00,63.6,48.5,29.97,NNW,340,0.0,0.0,58,0.00,,---,0.00,VWS V14.01,2013-07-12 07:48:00,
2013-07-12 03:49:00,63.7,48.7,29.97,NW,311,0.0,0.0,58,0.00,,---,0.00,VWS V14.01,2013-07-12 07:49:00,
2013-07-12 03:50:00,63.6,48.5,29.97,WNW,295,0.0,0.0,58,0.00,,---,0.00,VWS V14.01,2013-07-12 07:50:00,
2013-07-12 03:51:00,62.7,49.9,29.97,NW,323,0.0,0.0,63,0.00,,---,0.00,VWS V14.01,2013-07-12 07:51:00,
2013-07-12 03:52:00,63.6,49.0,29.97,WNW,298,0.0,0.0,59,0.00,,---,0.00,VWS V14.01,2013-07-12 07:52:00,
2013-07-12 03:53:00,63.6,49.0,29.97,WNW,298,0.0,0.0,59,0.00,,---,0.00,VWS V14.01,2013-07-12 07:53:00,
2013-07-12 03:54:00,63.4,48.8,29.97,NW,306,3.6,3.6,59,0.00,,---,0.00,VWS V14.01,2013-07-12 07:54:00,
2013-07-12 03:55:00,63.4,48.8,29.97,NW,317,0.0,4.5,59,0.00,,---,0.00,VWS V14.01,2013-07-12 07:55:00,
2013-07-12 03:56:00,62.7,49.9,29.97,NW,323,0.0,0.0,63,0.00,,---,0.00,VWS V14.01,2013-07-12 07:56:00,
2013-07-12 03:57:00,63.4,49.3,29.97,WNW,298,0.0,3.6,60,0.00,,---,0.00,VWS V14.01,2013-07-12 07:57:00,
2013-07-12 03:58:00,63.2,49.1,29.97,WNW,292,3.6,3.6,60,0.00,,---,0.00,VWS V14.01,2013-07-12 07:58:00,
2013-07-12 03:59:00,63.2,49.1,29.97,NW,309,0.0,3.6,60,0.00,,---,0.00,VWS V14.01,2013-07-12 07:59:00,
2013-07-12 04:00:00,63.2,49.1,29.97,NW,305,3.6,4.0,60,0.00,,---,0.00,VWS V14.01,2013-07-12 08:00:00,
2013-07-12 04:01:00,62.7,49.9,29.97,NW,323,0.0,0.0,63,0.00,,---,0.00,VWS V14.01,2013-07-12 08:01:00,
2013-07-12 04:02:00,63.0,48.9,29.97,WNW,289,0.0,3.6,60,0.00,,---,0.00,VWS V14.01,2013-07-12 08:02:00,
2013-07-12 04:03:00,63.0,48.9,29.97,NW,312,0.0,0.0,60,0.00,,---,0.00,VWS V14.01,2013-07-12 08:03:00,
2013-07-12 04:04:00,62.8,49.2,29.97,WNW,293,0.0,4.9,61,0.00,,---,0.00,VWS V14.01,2013-07-12 08:04:00,
2013-07-12 04:05:00,62.8,49.2,29.97,WNW,290,3.1,3.6,61,0.00,,---,0.00,VWS V14.01,2013-07-12 08:05:00,
2013-07-12 04:06:00,62.7,49.9,29.97,West,275,0.0,0.0,63,0.00,,---,0.00,VWS V14.01,2013-07-12 08:06:00,
2013-07-12 04:07:00,62.8,49.2,29.97,West,275,0.0,0.0,61,0.00,,---,0.00,VWS V14.01,2013-07-12 08:07:00,
2013-07-12 04:08:00,62.8,49.2,29.97,West,281,0.0,0.0,61,0.00,,---,0.00,VWS V14.01,2013-07-12 08:08:00,
2013-07-12 04:09:00,62.7,49.0,29.97,WNW,294,0.0,0.0,61,0.00,,---,0.00,VWS V14.01,2013-07-12 08:09:00,
2013-07-12 04:10:00,62.7,49.0,29.97,West,278,0.0,2.7,61,0.00,,---,0.00,VWS V14.01,2013-07-12 08:10:00,
2013-07-12 04:11:00,62.7,50.3,29.97,West,263,0.0,0.0,64,0.00,,---,0.00,VWS V14.01,2013-07-12 08:11:00,
2013-07-12 04:12:00,62.7,49.5,29.97,West,279,0.0,0.0,62,0.00,,---,0.00,VWS V14.01,2013-07-12 08:12:00,
2013-07-12 04:13:00,62.7,49.5,29.97,West,279,0.0,0.0,62,0.00,,---,0.00,VWS V14.01,2013-07-12 08:13:00,
2013-07-12 04:14:00,62.7,49.9,29.97,West,279,0.0,0.0,63,0.00,,---,0.00,VWS V14.01,2013-07-12 08:14:00,
2013-07-12 04:15:00,62.7,49.9,29.97,West,279,0.0,0.0,63,0.00,,---,0.00,VWS V14.01,2013-07-12 08:15:00,
2013-07-12 04:16:00,62.7,49.9,29.97,WSW,258,0.0,0.0,63,0.00,,---,0.00,VWS V14.01,2013-07-12 08:16:00,
2013-07-12 04:17:00,62.7,49.9,29.97,West,280,0.0,0.0,63,0.00,,---,0.00,VWS V14.01,2013-07-12 08:17:00,
2013-07-12 04:18:00,62.7,49.9,29.97,NNW,338,2.7,3.6,63,0.00,,---,0.00,VWS V14.01,2013-07-12 08:18:00,
2013-07-12 04:19:00,62.5,49.7,29.97,North,11,0.0,3.1,63,0.00,,---,0.00,VWS V14.01,2013-07-12 08:19:00,
2013-07-12 04:20:00,62.5,49.7,29.97,NE,43,3.1,4.0,63,0.00,,---,0.00,VWS V14.01,2013-07-12 08:20:00,
2013-07-12 04:21:00,62.7,49.9,29.97,NW,316,0.0,0.0,63,0.00,,---,0.00,VWS V14.01,2013-07-12 08:21:00,
2013-07-12 04:22:00,62.5,49.7,29.97,NE,43,0.0,0.0,63,0.00,,---,0.00,VWS V14.01,2013-07-12 08:22:00,
2013-07-12 04:23:00,62.5,49.7,29.97,NE,42,0.0,0.0,63,0.00,,---,0.00,VWS V14.01,2013-07-12 08:23:00,
2013-07-12 04:24:00,62.7,49.9,29.97,NE,42,0.0,0.0,63,0.00,,---,0.00,VWS V14.01,2013-07-12 08:24:00,
2013-07-12 04:25:00,62.7,49.9,29.97,NE,42,0.0,0.0,63,0.00,,---,0.00,VWS V14.01,2013-07-12 08:25:00,
2013-07-12 04:26:00,62.5,50.2,29.97,WSW,257,0.0,0.0,64,0.00,,---,0.00,VWS V14.01,2013-07-12 08:26:00,
2013-07-12 04:27:00,62.7,49.9,29.97,NE,43,0.0,0.0,63,0.00,,---,0.00,VWS V14.01,2013-07-12 08:27:00,
2013-07-12 04:28:00,62.7,49.9,29.97,NE,44,0.0,0.0,63,0.00,,---,0.00,VWS V14.01,2013-07-12 08:28:00,
2013-07-12 04:29:00,62.5,49.7,29.97,NE,48,4.5,4.5,63,0.00,,---,0.00,VWS V14.01,2013-07-12 08:29:00,
2013-07-12 04:30:00,62.5,49.7,29.97,NE,36,0.0,4.5,63,0.00,,---,0.00,VWS V14.01,2013-07-12 08:30:00,
2013-07-12 04:31:00,62.3,50.4,29.97,WSW,257,0.0,0.0,65,0.00,,---,0.00,VWS V14.01,2013-07-12 08:31:00,
2013-07-12 04:32:00,62.7,49.9,29.97,NE,55,4.0,4.9,63,0.00,,---,0.00,VWS V14.01,2013-07-12 08:32:00,
2013-07-12 04:33:00,62.7,49.9,29.97,NE,35,0.0,4.0,63,0.00,,---,0.00,VWS V14.01,2013-07-12 08:33:00,
2013-07-12 04:34:00,62.7,49.9,29.97,NE,41,0.0,0.0,63,0.00,,---,0.00,VWS V14.01,2013-07-12 08:34:00,
2013-07-12 04:35:00,62.7,49.9,29.97,NE,41,0.0,0.0,63,0.00,,---,0.00,VWS V14.01,2013-07-12 08:35:00,
2013-07-12 04:36:00,62.3,50.4,29.97,WSW,257,0.0,0.0,65,0.00,,---,0.00,VWS V14.01,2013-07-12 08:36:00,
2013-07-12 04:37:00,62.7,49.9,29.97,NE,41,0.0,0.0,63,0.00,,---,0.00,VWS V14.01,2013-07-12 08:37:00,
2013-07-12 04:38:00,62.3,50.4,29.97,WSW,257,0.0,0.0,65,0.00,,---,0.00,VWS V14.01,2013-07-12 08:38:00,
2013-07-12 04:39:00,62.7,49.9,29.97,NE,41,0.0,0.0,63,0.00,,---,0.00,VWS V14.01,2013-07-12 08:39:00,
2013-07-12 04:40:00,62.7,49.9,29.97,NW,321,0.0,0.0,63,0.00,,---,0.00,VWS V14.01,2013-07-12 08:40:00,
2013-07-12 04:41:00,62.3,50.4,29.97,WSW,257,0.0,0.0,65,0.00,,---,0.00,VWS V14.01,2013-07-12 08:41:00,
2013-07-12 04:42:00,62.7,49.9,29.97,NW,323,0.0,0.0,63,0.00,,---,0.00,VWS V14.01,2013-07-12 08:42:00,
2013-07-12 04:43:00,62.7,49.9,29.97,NW,323,0.0,0.0,63,0.00,,---,0.00,VWS V14.01,2013-07-12 08:43:00,
2013-07-12 04:44:00,62.7,49.9,29.97,NW,323,0.0,0.0,63,0.00,,---,0.00,VWS V14.01,2013-07-12 08:44:00,
2013-07-12 04:45:00,62.7,49.9,29.97,NW,323,0.0,0.0,63,0.00,,---,0.00,VWS V14.01,2013-07-12 08:45:00,
2013-07-12 04:46:00,62.1,51.0,29.97,WSW,257,0.0,0.0,67,0.00,,---,0.00,VWS V14.01,2013-07-12 08:46:00,
2013-07-12 04:47:00,62.1,51.4,29.97,WSW,257,0.0,0.0,68,0.00,,---,0.00,VWS V14.01,2013-07-12 08:47:00,
2013-07-12 04:48:00,62.7,49.9,29.97,NW,323,0.0,0.0,63,0.00,,---,0.00,VWS V14.01,2013-07-12 08:48:00,
2013-07-12 04:49:00,62.7,49.9,29.97,NW,323,0.0,0.0,63,0.00,,---,0.00,VWS V14.01,2013-07-12 08:49:00,
2013-07-12 04:50:00,62.7,49.9,29.97,NW,323,0.0,0.0,63,0.00,,---,0.00,VWS V14.01,2013-07-12 08:50:00,
2013-07-12 04:51:00,62.1,51.5,29.97,WNW,291,2.7,2.7,68,0.00,,---,0.00,VWS V14.01,2013-07-12 08:51:00,
2013-07-12 04:52:00,62.7,49.9,29.97,NW,323,0.0,0.0,63,0.00,,---,0.00,VWS V14.01,2013-07-12 08:52:00,
2013-07-12 04:53:00,62.7,49.9,29.97,NW,323,0.0,0.0,63,0.00,,---,0.00,VWS V14.01,2013-07-12 08:53:00,
2013-07-12 04:54:00,62.7,49.9,29.97,NW,323,0.0,0.0,63,0.00,,---,0.00,VWS V14.01,2013-07-12 08:54:00,
2013-07-12 04:55:00,62.7,49.9,29.97,NW,323,0.0,0.0,63,0.00,,---,0.00,VWS V14.01,2013-07-12 08:55:00,
2013-07-12 04:56:00,62.1,51.5,29.97,West,277,0.0,0.0,68,0.00,,---,0.00,VWS V14.01,2013-07-12 08:56:00,
2013-07-12 04:57:00,62.7,49.9,29.97,NW,323,0.0,0.0,63,0.00,,---,0.00,VWS V14.01,2013-07-12 08:57:00,
2013-07-12 04:58:00,62.7,49.9,29.97,NW,323,0.0,0.0,63,0.00,,---,0.00,VWS V14.01,2013-07-12 08:58:00,
2013-07-12 04:59:00,62.7,49.9,29.97,NW,323,0.0,0.0,63,0.00,,---,0.00,VWS V14.01,2013-07-12 08:59:00,
2013-07-12 05:00:00,62.7,49.9,29.97,NW,323,0.0,0.0,63,0.00,,---,0.00,VWS V14.01,2013-07-12 09:00:00,
2013-07-12 05:01:00,61.9,51.7,29.97,West,272,0.0,0.0,69,0.00,,---,0.00,VWS V14.01,2013-07-12 09:01:00,
2013-07-12 05:02:00,62.7,49.9,29.97,NW,323,0.0,0.0,63,0.00,,---,0.00,VWS V14.01,2013-07-12 09:02:00,
2013-07-12 05:03:00,62.7,49.9,29.97,NW,323,0.0,0.0,63,0.00,,---,0.00,VWS V14.01,2013-07-12 09:03:00,
2013-07-12 05:04:00,62.7,49.9,29.97,WNW,295,0.0,0.0,63,0.00,,---,0.00,VWS V14.01,2013-07-12 09:04:00,
2013-07-12 05:05:00,62.7,49.9,29.97,WNW,295,0.0,0.0,63,0.00,,---,0.00,VWS V14.01,2013-07-12 09:05:00,
2013-07-12 05:06:00,62.1,51.5,29.97,West,273,0.0,0.0,68,0.00,,---,0.00,VWS V14.01,2013-07-12 09:06:00,
2013-07-12 05:07:00,62.7,49.9,29.97,WNW,296,0.0,0.0,63,0.00,,---,0.00,VWS V14.01,2013-07-12 09:07:00,
2013-07-12 05:08:00,62.7,49.9,29.97,WNW,296,0.0,0.0,63,0.00,,---,0.00,VWS V14.01,2013-07-12 09:08:00,
2013-07-12 05:09:00,62.7,50.3,29.97,West,271,2.7,4.0,64,0.00,,---,0.00,VWS V14.01,2013-07-12 09:09:00,
2013-07-12 05:10:00,62.7,50.3,29.97,West,263,0.0,3.6,64,0.00,,---,0.00,VWS V14.01,2013-07-12 09:10:00,
2013-07-12 05:11:00,62.3,51.2,29.97,WSW,255,0.0,0.0,67,0.00,,---,0.00,VWS V14.01,2013-07-12 09:11:00,
2013-07-12 05:12:00,62.7,50.3,29.97,NW,307,3.6,3.6,64,0.00,,---,0.00,VWS V14.01,2013-07-12 09:12:00,
2013-07-12 05:13:00,62.7,50.3,29.97,West,269,3.6,5.8,64,0.00,,---,0.00,VWS V14.01,2013-07-12 09:13:00,
2013-07-12 05:14:00,62.7,50.3,29.97,West,266,2.7,3.6,64,0.00,,---,0.00,VWS V14.01,2013-07-12 09:14:00,
2013-07-12 05:15:00,62.7,49.9,29.97,West,265,0.0,2.7,63,0.00,,---,0.00,VWS V14.01,2013-07-12 09:15:00,
2013-07-12 05:16:00,62.3,51.2,29.97,WSW,255,0.0,0.0,67,0.00,,---,0.00,VWS V14.01,2013-07-12 09:16:00,
2013-07-12 05:17:00,62.7,49.9,29.97,WSW,255,0.0,0.0,63,0.00,,---,0.00,VWS V14.01,2013-07-12 09:17:00,
2013-07-12 05:18:00,62.7,49.9,29.97,WSW,255,0.0,0.0,63,0.00,,---,0.00,VWS V14.01,2013-07-12 09:18:00,
2013-07-12 05:19:00,62.7,49.9,29.97,NW,311,0.0,0.0,63,0.00,,---,0.00,VWS V14.01,2013-07-12 09:19:00,
2013-07-12 05:20:00,62.7,49.9,29.97,NW,318,0.0,0.0,63,0.00,,---,0.00,VWS V14.01,2013-07-12 09:20:00,
2013-07-12 05:21:00,62.3,50.8,29.97,WSW,255,0.0,0.0,66,0.00,,---,0.00,VWS V14.01,2013-07-12 09:21:00,
2013-07-12 05:22:00,62.7,50.3,29.97,WNW,297,5.4,5.8,64,0.00,,---,0.00,VWS V14.01,2013-07-12 09:22:00,
2013-07-12 05:23:00,62.7,50.3,29.97,WSW,256,3.6,5.4,64,0.00,,---,0.00,VWS V14.01,2013-07-12 09:23:00,
2013-07-12 05:24:00,62.5,50.2,29.97,WSW,257,0.0,3.6,64,0.00,,---,0.00,VWS V14.01,2013-07-12 09:24:00,
2013-07-12 05:25:00,62.5,50.2,29.97,WSW,256,0.0,0.0,64,0.00,,---,0.00,VWS V14.01,2013-07-12 09:25:00,
2013-07-12 05:26:00,62.5,51.4,29.97,WSW,255,0.0,0.0,67,0.00,,---,0.00,VWS V14.01,2013-07-12 09:26:00,
2013-07-12 05:27:00,62.5,50.2,29.97,WSW,257,0.0,0.0,64,0.00,,---,0.00,VWS V14.01,2013-07-12 09:27:00,
2013-07-12 05:28:00,62.5,50.2,29.97,WSW,257,0.0,0.0,64,0.00,,---,0.00,VWS V14.01,2013-07-12 09:28:00,
2013-07-12 05:29:00,62.3,50.0,29.97,WSW,257,0.0,0.0,64,0.00,,---,0.00,VWS V14.01,2013-07-12 09:29:00,
2013-07-12 05:30:00,62.3,50.4,29.97,WSW,257,0.0,0.0,65,0.00,,---,0.00,VWS V14.01,2013-07-12 09:30:00,
2013-07-12 05:31:00,62.3,51.2,29.97,WSW,255,0.0,0.0,67,0.00,,---,0.00,VWS V14.01,2013-07-12 09:31:00,
2013-07-12 05:32:00,62.3,50.4,29.97,WSW,257,3.6,4.0,65,0.00,,---,0.00,VWS V14.01,2013-07-12 09:32:00,
2013-07-12 05:33:00,62.3,50.4,29.97,WSW,257,2.7,3.6,65,0.00,,---,0.00,VWS V14.01,2013-07-12 09:33:00,
2013-07-12 05:34:00,62.3,50.4,29.97,WSW,257,0.0,3.1,65,0.00,,---,0.00,VWS V14.01,2013-07-12 09:34:00,
2013-07-12 05:35:00,62.3,50.4,29.97,WSW,257,0.0,0.0,65,0.00,,---,0.00,VWS V14.01,2013-07-12 09:35:00,
2013-07-12 05:36:00,62.1,51.5,29.97,WSW,255,0.0,0.0,68,0.00,,---,0.00,VWS V14.01,2013-07-12 09:36:00,
2013-07-12 05:37:00,62.3,50.4,29.97,WSW,257,0.0,0.0,65,0.00,,---,0.00,VWS V14.01,2013-07-12 09:37:00,
2013-07-12 05:38:00,62.3,50.4,29.97,WSW,257,0.0,0.0,65,0.00,,---,0.00,VWS V14.01,2013-07-12 09:38:00,
2013-07-12 05:39:00,62.5,50.6,29.97,WSW,257,0.0,0.0,65,0.00,,---,0.00,VWS V14.01,2013-07-12 09:39:00,
2013-07-12 05:40:00,62.5,50.6,29.97,WSW,257,0.0,0.0,65,0.00,,---,0.00,VWS V14.01,2013-07-12 09:40:00,
2013-07-12 05:41:00,62.1,51.5,29.97,WSW,255,0.0,0.0,68,0.00,,---,0.00,VWS V14.01,2013-07-12 09:41:00,
2013-07-12 05:42:00,62.3,50.8,29.97,WSW,257,0.0,0.0,66,0.00,,---,0.00,VWS V14.01,2013-07-12 09:42:00,
2013-07-12 05:43:00,62.3,51.2,29.97,WSW,257,0.0,0.0,67,0.00,,---,0.00,VWS V14.01,2013-07-12 09:43:00,
2013-07-12 05:44:00,62.3,51.2,29.97,WSW,257,0.0,0.0,67,0.00,,---,0.00,VWS V14.01,2013-07-12 09:44:00,
2013-07-12 05:45:00,62.1,51.0,29.97,WSW,257,0.0,0.0,67,0.00,,---,0.00,VWS V14.01,2013-07-12 09:45:00,
2013-07-12 05:46:00,62.1,51.5,29.97,WSW,255,0.0,0.0,68,0.00,,---,0.00,VWS V14.01,2013-07-12 09:46:00,
2013-07-12 05:47:00,62.1,51.4,29.97,WSW,257,0.0,0.0,68,0.00,,---,0.00,VWS V14.01,2013-07-12 09:47:00,
2013-07-12 05:48:00,62.1,51.4,29.97,WSW,257,0.0,0.0,68,0.00,,---,0.00,VWS V14.01,2013-07-12 09:48:00,
2013-07-12 05:49:00,62.1,51.4,29.97,WSW,257,0.0,0.0,68,0.00,,---,0.00,VWS V14.01,2013-07-12 09:49:00,
2013-07-12 05:50:00,62.1,51.4,29.97,NW,306,0.0,0.0,68,0.00,,---,0.00,VWS V14.01,2013-07-12 09:50:00,
2013-07-12 05:51:00,62.1,51.5,29.97,WSW,255,0.0,0.0,68,0.00,,---,0.00,VWS V14.01,2013-07-12 09:51:00,
2013-07-12 05:52:00,62.1,51.4,29.97,WNW,296,0.0,3.1,68,0.00,,---,0.00,VWS V14.01,2013-07-12 09:52:00,
2013-07-12 05:53:00,62.1,51.4,29.97,West,281,0.0,0.0,68,0.00,,---,0.00,VWS V14.01,2013-07-12 09:53:00,
2013-07-12 05:54:00,62.1,51.4,29.97,West,278,0.0,0.0,68,0.00,,---,0.00,VWS V14.01,2013-07-12 09:54:00,
2013-07-12 05:55:00,62.1,51.4,29.97,West,277,0.0,0.0,68,0.00,,---,0.00,VWS V14.01,2013-07-12 09:55:00,
2013-07-12 05:56:00,62.3,51.2,29.97,WSW,255,0.0,0.0,67,0.00,,---,0.00,VWS V14.01,2013-07-12 09:56:00,
2013-07-12 05:57:00,62.1,51.8,29.97,West,277,0.0,0.0,69,0.00,,---,0.00,VWS V14.01,2013-07-12 09:57:00,
2013-07-12 05:58:00,62.1,51.8,29.97,West,277,0.0,0.0,69,0.00,,---,0.00,VWS V14.01,2013-07-12 09:58:00,
2013-07-12 05:59:00,62.1,51.8,29.97,West,277,0.0,0.0,69,0.00,,---,0.00,VWS V14.01,2013-07-12 09:59:00,
2013-07-12 06:00:00,61.9,51.7,29.97,West,277,0.0,0.0,69,0.00,,---,0.00,VWS V14.01,2013-07-12 10:00:00,
2013-07-12 06:01:00,62.3,51.2,29.97,WSW,255,0.0,0.0,67,0.00,,---,0.00,VWS V14.01,2013-07-12 10:01:00,
2013-07-12 06:02:00,61.9,51.7,29.97,West,273,0.0,0.0,69,0.00,,---,0.00,VWS V14.01,2013-07-12 10:02:00,
2013-07-12 06:03:00,61.9,51.7,29.97,West,273,2.7,4.0,69,0.00,,---,0.00,VWS V14.01,2013-07-12 10:03:00,
2013-07-12 06:04:00,62.1,51.4,29.97,West,273,2.7,3.1,68,0.00,,---,0.00,VWS V14.01,2013-07-12 10:04:00,
2013-07-12 06:05:00,62.1,51.4,29.97,West,273,0.0,2.7,68,0.00,,---,0.00,VWS V14.01,2013-07-12 10:05:00,
2013-07-12 06:06:00,62.5,51.4,30.00,WSW,255,0.0,0.0,67,0.00,,---,0.00,VWS V14.01,2013-07-12 10:06:00,
2013-07-12 06:07:00,62.1,51.4,29.97,West,273,0.0,0.0,68,0.00,,---,0.00,VWS V14.01,2013-07-12 10:07:00,
2013-07-12 06:08:00,62.1,51.4,29.97,West,273,0.0,0.0,68,0.00,,---,0.00,VWS V14.01,2013-07-12 10:08:00,
2013-07-12 06:09:00,62.1,51.4,29.97,WSW,256,0.0,0.0,68,0.00,,---,0.00,VWS V14.01,2013-07-12 10:09:00,
2013-07-12 06:10:00,62.3,51.2,29.97,WSW,255,0.0,0.0,67,0.00,,---,0.00,VWS V14.01,2013-07-12 10:10:00,
2013-07-12 06:11:00,62.5,51.4,30.00,WSW,255,0.0,0.0,67,0.00,,---,0.00,VWS V14.01,2013-07-12 10:11:00,
2013-07-12 06:12:00,62.3,51.2,29.97,WSW,255,0.0,0.0,67,0.00,,---,0.00,VWS V14.01,2013-07-12 10:12:00,
2013-07-12 06:13:00,62.3,51.2,29.97,WSW,255,0.0,0.0,67,0.00,,---,0.00,VWS V14.01,2013-07-12 10:13:00,
2013-07-12 06:14:00,62.3,51.2,29.97,WSW,255,0.0,0.0,67,0.00,,---,0.00,VWS V14.01,2013-07-12 10:14:00,
2013-07-12 06:15:00,62.3,51.2,29.97,WSW,255,0.0,0.0,67,0.00,,---,0.00,VWS V14.01,2013-07-12 10:15:00,
2013-07-12 06:16:00,62.5,51.8,30.00,South,191,0.0,0.0,68,0.00,,---,0.00,VWS V14.01,2013-07-12 10:16:00,
2013-07-12 06:17:00,62.3,51.2,29.97,WSW,255,0.0,0.0,67,0.00,,---,0.00,VWS V14.01,2013-07-12 10:17:00,
2013-07-12 06:18:00,62.3,50.8,29.97,WSW,255,0.0,0.0,66,0.00,,---,0.00,VWS V14.01,2013-07-12 10:18:00,
2013-07-12 06:19:00,62.3,50.8,29.97,WSW,255,0.0,0.0,66,0.00,,---,0.00,VWS V14.01,2013-07-12 10:19:00,
2013-07-12 06:20:00,62.3,50.8,29.97,WSW,255,0.0,0.0,66,0.00,,---,0.00,VWS V14.01,2013-07-12 10:20:00,
2013-07-12 06:21:00,62.5,52.2,30.00,ESE,102,0.0,0.0,69,0.00,,---,0.00,VWS V14.01,2013-07-12 10:21:00,
2013-07-12 06:22:00,62.5,51.4,29.97,WSW,255,0.0,0.0,67,0.00,,---,0.00,VWS V14.01,2013-07-12 10:22:00,
2013-07-12 06:23:00,62.5,51.4,29.97,WSW,255,0.0,0.0,67,0.00,,---,0.00,VWS V14.01,2013-07-12 10:23:00,
2013-07-12 06:24:00,62.5,51.4,29.97,WSW,255,0.0,0.0,67,0.00,,---,0.00,VWS V14.01,2013-07-12 10:24:00,
2013-07-12 06:25:00,62.5,51.4,29.97,WSW,255,0.0,0.0,67,0.00,,---,0.00,VWS V14.01,2013-07-12 10:25:00,
2013-07-12 06:26:00,62.5,52.6,30.00,East,93,0.0,0.0,70,0.00,,---,0.00,VWS V14.01,2013-07-12 10:26:00,
2013-07-12 06:27:00,62.3,51.2,29.97,WSW,255,0.0,0.0,67,0.00,,---,0.00,VWS V14.01,2013-07-12 10:27:00,
2013-07-12 06:28:00,62.3,51.2,29.97,WSW,255,0.0,0.0,67,0.00,,---,0.00,VWS V14.01,2013-07-12 10:28:00,
2013-07-12 06:29:00,62.3,51.2,29.97,WSW,255,0.0,0.0,67,0.00,,---,0.00,VWS V14.01,2013-07-12 10:29:00,
2013-07-12 06:30:00,62.3,51.2,29.97,WSW,255,0.0,0.0,67,0.00,,---,0.00,VWS V14.01,2013-07-12 10:30:00,
2013-07-12 06:31:00,62.5,52.2,30.00,North,356,0.0,0.0,69,0.00,,---,0.00,VWS V14.01,2013-07-12 10:31:00,
2013-07-12 06:32:00,62.3,51.2,29.97,WSW,255,0.0,0.0,67,0.00,,---,0.00,VWS V14.01,2013-07-12 10:32:00,
2013-07-12 06:33:00,62.1,51.4,29.97,WSW,255,0.0,0.0,68,0.00,,---,0.00,VWS V14.01,2013-07-12 10:33:00,
2013-07-12 06:34:00,62.1,51.4,29.97,WSW,255,0.0,0.0,68,0.00,,---,0.00,VWS V14.01,2013-07-12 10:34:00,
2013-07-12 06:35:00,62.1,51.4,29.97,WSW,255,0.0,0.0,68,0.00,,---,0.00,VWS V14.01,2013-07-12 10:35:00,
2013-07-12 06:36:00,62.7,52.8,30.00,North,356,0.0,0.0,70,0.00,,---,0.00,VWS V14.01,2013-07-12 10:36:00,
2013-07-12 06:37:00,62.1,51.0,29.97,WSW,255,0.0,0.0,67,0.00,,---,0.00,VWS V14.01,2013-07-12 10:37:00,
2013-07-12 06:38:00,62.1,51.0,29.97,WSW,255,0.0,0.0,67,0.00,,---,0.00,VWS V14.01,2013-07-12 10:38:00,
2013-07-12 06:39:00,62.1,51.0,29.97,WSW,255,0.0,0.0,67,0.00,,---,0.00,VWS V14.01,2013-07-12 10:39:00,
2013-07-12 06:40:00,62.7,52.4,30.00,North,356,0.0,0.0,69,0.00,,---,0.00,VWS V14.01,2013-07-12 10:40:00,
2013-07-12 06:41:00,62.1,51.4,29.97,WSW,255,0.0,0.0,68,0.00,,---,0.00,VWS V14.01,2013-07-12 10:41:00,
2013-07-12 06:42:00,62.1,51.4,29.97,WSW,255,0.0,0.0,68,0.00,,---,0.00,VWS V14.01,2013-07-12 10:42:00,
2013-07-12 06:43:00,62.1,51.4,29.97,WSW,255,0.0,0.0,68,0.00,,---,0.00,VWS V14.01,2013-07-12 10:43:00,
2013-07-12 06:44:00,62.1,51.4,29.97,WSW,255,0.0,0.0,68,0.00,,---,0.00,VWS V14.01,2013-07-12 10:44:00,
2013-07-12 06:45:00,62.7,52.4,30.00,North,356,0.0,0.0,69,0.00,,---,0.00,VWS V14.01,2013-07-12 10:45:00,
2013-07-12 06:46:00,62.1,51.4,29.97,WSW,255,0.0,0.0,68,0.00,,---,0.00,VWS V14.01,2013-07-12 10:46:00,
2013-07-12 06:47:00,62.1,51.0,29.97,WSW,255,0.0,0.0,67,0.00,,---,0.00,VWS V14.01,2013-07-12 10:47:00,
2013-07-12 06:48:00,62.1,51.4,29.97,WSW,255,0.0,0.0,68,0.00,,---,0.00,VWS V14.01,2013-07-12 10:48:00,
2013-07-12 06:49:00,62.1,51.4,29.97,WSW,255,0.0,0.0,68,0.00,,---,0.00,VWS V14.01,2013-07-12 10:49:00,
2013-07-12 06:50:00,62.8,52.5,30.00,North,356,0.0,0.0,69,0.00,,---,0.00,VWS V14.01,2013-07-12 10:50:00,
2013-07-12 06:51:00,62.1,51.4,29.97,WSW,255,0.0,0.0,68,0.00,,---,0.00,VWS V14.01,2013-07-12 10:51:00,
2013-07-12 06:52:00,62.1,51.0,29.97,WSW,255,0.0,0.0,67,0.00,,---,0.00,VWS V14.01,2013-07-12 10:52:00,
2013-07-12 06:53:00,62.3,51.6,29.97,WSW,255,0.0,0.0,68,0.00,,---,0.00,VWS V14.01,2013-07-12 10:53:00,
2013-07-12 06:54:00,62.8,52.5,30.00,North,356,0.0,0.0,69,0.00,,---,0.00,VWS V14.01,2013-07-12 10:54:00,
2013-07-12 06:55:00,62.8,52.9,30.00,North,356,0.0,0.0,70,0.00,,---,0.00,VWS V14.01,2013-07-12 10:55:00,
2013-07-12 06:56:00,62.3,51.2,29.97,WSW,255,0.0,0.0,67,0.00,,---,0.00,VWS V14.01,2013-07-12 10:56:00,
2013-07-12 06:57:00,62.3,51.2,29.97,WSW,255,0.0,0.0,67,0.00,,---,0.00,VWS V14.01,2013-07-12 10:57:00,
2013-07-12 06:58:00,62.3,51.2,29.97,WSW,255,0.0,0.0,67,0.00,,---,0.00,VWS V14.01,2013-07-12 10:58:00,
2013-07-12 06:59:00,62.3,51.2,29.97,WSW,255,0.0,0.0,67,0.00,,---,0.00,VWS V14.01,2013-07-12 10:59:00,
2013-07-12 07:00:00,63.0,53.1,30.00,North,356,0.0,0.0,70,0.00,,---,0.00,VWS V14.01,2013-07-12 11:00:00,
2013-07-12 07:01:00,62.3,51.2,29.97,WSW,255,0.0,0.0,67,0.00,,---,0.00,VWS V14.01,2013-07-12 11:01:00,
2013-07-12 07:02:00,62.3,51.2,29.97,WSW,255,0.0,0.0,67,0.00,,---,0.00,VWS V14.01,2013-07-12 11:02:00,
2013-07-12 07:03:00,62.3,51.2,29.97,WSW,255,0.0,0.0,67,0.00,,---,0.00,VWS V14.01,2013-07-12 11:03:00,
2013-07-12 07:04:00,62.3,51.2,29.97,WSW,255,0.0,0.0,67,0.00,,---,0.00,VWS V14.01,2013-07-12 11:04:00,
2013-07-12 07:05:00,63.2,53.3,30.00,North,356,0.0,0.0,70,0.00,,---,0.00,VWS V14.01,2013-07-12 11:05:00,
2013-07-12 07:06:00,62.5,51.4,30.00,WSW,255,0.0,0.0,67,0.00,,---,0.00,VWS V14.01,2013-07-12 11:06:00,
2013-07-12 07:07:00,62.5,51.4,30.00,WSW,255,0.0,0.0,67,0.00,,---,0.00,VWS V14.01,2013-07-12 11:07:00,
2013-07-12 07:08:00,62.5,51.4,30.00,WSW,255,0.0,0.0,67,0.00,,---,0.00,VWS V14.01,2013-07-12 11:08:00,
2013-07-12 07:09:00,62.5,51.4,30.00,WSW,255,0.0,0.0,67,0.00,,---,0.00,VWS V14.01,2013-07-12 11:09:00,
2013-07-12 07:10:00,63.4,53.0,30.00,NW,317,0.0,0.0,69,0.00,,---,0.00,VWS V14.01,2013-07-12 11:10:00,
2013-07-12 07:11:00,62.5,51.4,30.00,WSW,255,0.0,0.0,67,0.00,,---,0.00,VWS V14.01,2013-07-12 11:11:00,
2013-07-12 07:12:00,62.5,51.4,30.00,SSW,210,0.0,0.0,67,0.00,,---,0.00,VWS V14.01,2013-07-12 11:12:00,
2013-07-12 07:13:00,62.5,51.8,30.00,South,191,0.0,0.0,68,0.00,,---,0.00,VWS V14.01,2013-07-12 11:13:00,
2013-07-12 07:14:00,62.5,51.8,30.00,South,191,0.0,0.0,68,0.00,,---,0.00,VWS V14.01,2013-07-12 11:14:00,
2013-07-12 07:15:00,63.6,53.2,30.00,NW,317,0.0,0.0,69,0.00,,---,0.00,VWS V14.01,2013-07-12 11:15:00,
2013-07-12 07:16:00,62.5,51.8,30.00,South,191,0.0,0.0,68,0.00,,---,0.00,VWS V14.01,2013-07-12 11:16:00,
2013-07-12 07:17:00,62.5,51.8,30.00,South,191,0.0,0.0,68,0.00,,---,0.00,VWS V14.01,2013-07-12 11:17:00,
2013-07-12 07:18:00,62.5,51.8,30.00,South,191,0.0,0.0,68,0.00,,---,0.00,VWS V14.01,2013-07-12 11:18:00,
2013-07-12 07:19:00,62.5,51.8,30.00,SSW,197,0.0,0.0,68,0.00,,---,0.00,VWS V14.01,2013-07-12 11:19:00,
2013-07-12 07:20:00,63.6,52.0,30.00,NW,317,0.0,0.0,66,0.00,,---,0.00,VWS V14.01,2013-07-12 11:20:00,
2013-07-12 07:21:00,62.5,52.2,30.00,ESE,102,0.0,0.0,69,0.00,,---,0.00,VWS V14.01,2013-07-12 11:21:00,
2013-07-12 07:22:00,62.5,52.2,30.00,ESE,102,0.0,0.0,69,0.00,,---,0.00,VWS V14.01,2013-07-12 11:22:00,
2013-07-12 07:23:00,62.5,52.2,30.00,ESE,102,0.0,0.0,69,0.00,,---,0.00,VWS V14.01,2013-07-12 11:23:00,
2013-07-12 07:24:00,62.5,52.2,30.00,ESE,102,0.0,0.0,69,0.00,,---,0.00,VWS V14.01,2013-07-12 11:24:00,
2013-07-12 07:25:00,63.7,52.2,30.00,NW,317,0.0,0.0,66,0.00,,---,0.00,VWS V14.01,2013-07-12 11:25:00,
2013-07-12 07:26:00,62.5,52.6,30.00,East,93,0.0,0.0,70,0.00,,---,0.00,VWS V14.01,2013-07-12 11:26:00,
2013-07-12 07:27:00,62.5,52.2,30.00,East,93,0.0,0.0,69,0.00,,---,0.00,VWS V14.01,2013-07-12 11:27:00,
2013-07-12 07:28:00,62.5,52.2,30.00,East,93,0.0,0.0,69,0.00,,---,0.00,VWS V14.01,2013-07-12 11:28:00,
2013-07-12 07:29:00,62.5,52.2,30.00,East,93,0.0,0.0,69,0.00,,---,0.00,VWS V14.01,2013-07-12 11:29:00,
2013-07-12 07:30:00,64.1,52.9,30.00,South,190,0.0,0.0,67,0.00,,---,0.00,VWS V14.01,2013-07-12 11:30:00,
2013-07-12 07:31:00,62.5,52.2,30.00,North,356,0.0,0.0,69,0.00,,---,0.00,VWS V14.01,2013-07-12 11:31:00,
2013-07-12 07:32:00,62.5,52.6,30.00,North,356,0.0,0.0,70,0.00,,---,0.00,VWS V14.01,2013-07-12 11:32:00,
2013-07-12 07:33:00,62.5,52.6,30.00,North,356,0.0,0.0,70,0.00,,---,0.00,VWS V14.01,2013-07-12 11:33:00,
2013-07-12 07:34:00,62.7,52.8,30.00,North,356,0.0,0.0,70,0.00,,---,0.00,VWS V14.01,2013-07-12 11:34:00,
2013-07-12 07:35:00,64.1,52.1,30.00,South,190,0.0,0.0,65,0.00,,---,0.00,VWS V14.01,2013-07-12 11:35:00,
2013-07-12 07:36:00,62.7,52.8,30.00,North,356,0.0,0.0,70,0.00,,---,0.00,VWS V14.01,2013-07-12 11:36:00,
2013-07-12 07:37:00,62.7,52.4,30.00,North,356,0.0,0.0,69,0.00,,---,0.00,VWS V14.01,2013-07-12 11:37:00,
2013-07-12 07:38:00,62.7,52.4,30.00,North,356,0.0,0.0,69,0.00,,---,0.00,VWS V14.01,2013-07-12 11:38:00,
2013-07-12 07:39:00,62.7,52.4,30.00,North,356,0.0,0.0,69,0.00,,---,0.00,VWS V14.01,2013-07-12 11:39:00,
2013-07-12 07:40:00,64.1,50.8,30.00,NE,55,0.0,3.1,62,0.00,,---,0.00,VWS V14.01,2013-07-12 11:40:00,
2013-07-12 07:41:00,62.7,52.4,30.00,North,356,0.0,0.0,69,0.00,,---,0.00,VWS V14.01,2013-07-12 11:41:00,
2013-07-12 07:42:00,62.7,52.4,30.00,North,356,0.0,0.0,69,0.00,,---,0.00,VWS V14.01,2013-07-12 11:42:00,
2013-07-12 07:43:00,62.7,52.4,30.00,North,356,0.0,0.0,69,0.00,,---,0.00,VWS V14.01,2013-07-12 11:43:00,
2013-07-12 07:44:00,62.7,52.4,30.00,North,356,0.0,0.0,69,0.00,,---,0.00,VWS V14.01,2013-07-12 11:44:00,
2013-07-12 07:45:00,64.3,51.0,30.00,ENE,76,0.0,0.0,62,0.00,,---,0.00,VWS V14.01,2013-07-12 11:45:00,
2013-07-12 07:46:00,62.7,52.4,30.00,North,356,0.0,0.0,69,0.00,,---,0.00,VWS V14.01,2013-07-12 11:46:00,
2013-07-12 07:47:00,62.8,52.5,30.00,North,356,0.0,0.0,69,0.00,,---,0.00,VWS V14.01,2013-07-12 11:47:00,
2013-07-12 07:48:00,62.8,52.5,30.00,North,356,0.0,0.0,69,0.00,,---,0.00,VWS V14.01,2013-07-12 11:48:00,
2013-07-12 07:49:00,62.8,52.5,30.00,North,356,0.0,0.0,69,0.00,,---,0.00,VWS V14.01,2013-07-12 11:49:00,
2013-07-12 07:50:00,64.5,51.2,30.00,ENE,77,0.0,0.0,62,0.00,,---,0.00,VWS V14.01,2013-07-12 11:50:00,
2013-07-12 07:51:00,62.8,52.5,30.00,North,356,0.0,0.0,69,0.00,,---,0.00,VWS V14.01,2013-07-12 11:51:00,
2013-07-12 07:52:00,62.8,52.5,30.00,North,356,0.0,0.0,69,0.00,,---,0.00,VWS V14.01,2013-07-12 11:52:00,
2013-07-12 07:53:00,62.8,52.5,30.00,North,356,0.0,0.0,69,0.00,,---,0.00,VWS V14.01,2013-07-12 11:53:00,
2013-07-12 07:54:00,62.8,52.5,30.00,North,356,0.0,0.0,69,0.00,,---,0.00,VWS V14.01,2013-07-12 11:54:00,
2013-07-12 07:55:00,64.5,51.2,30.00,North,356,0.0,0.0,62,0.00,,---,0.00,VWS V14.01,2013-07-12 11:55:00,
2013-07-12 07:56:00,62.8,52.9,30.00,North,356,0.0,0.0,70,0.00,,---,0.00,VWS V14.01,2013-07-12 11:56:00,
2013-07-12 07:57:00,62.8,52.5,30.00,North,356,0.0,0.0,69,0.00,,---,0.00,VWS V14.01,2013-07-12 11:57:00,
2013-07-12 07:58:00,63.0,52.7,30.00,North,356,0.0,0.0,69,0.00,,---,0.00,VWS V14.01,2013-07-12 11:58:00,
2013-07-12 07:59:00,63.0,53.1,30.00,North,356,0.0,0.0,70,0.00,,---,0.00,VWS V14.01,2013-07-12 11:59:00,
2013-07-12 08:00:00,64.6,51.3,30.00,East,97,0.0,0.0,62,0.00,,---,0.00,VWS V14.01,2013-07-12 12:00:00,
2013-07-12 08:01:00,63.0,53.1,30.00,North,356,0.0,0.0,70,0.00,,---,0.00,VWS V14.01,2013-07-12 12:01:00,
2013-07-12 08:02:00,63.0,53.1,30.00,North,356,0.0,0.0,70,0.00,,---,0.00,VWS V14.01,2013-07-12 12:02:00,
2013-07-12 08:03:00,63.0,53.1,30.00,North,356,0.0,0.0,70,0.00,,---,0.00,VWS V14.01,2013-07-12 12:03:00,
2013-07-12 08:04:00,63.2,53.3,30.00,North,356,0.0,0.0,70,0.00,,---,0.00,VWS V14.01,2013-07-12 12:04:00,
2013-07-12 08:05:00,64.8,51.5,30.00,NE,54,0.0,0.0,62,0.00,,---,0.00,VWS V14.01,2013-07-12 12:05:00,
2013-07-12 08:06:00,63.2,53.3,30.00,North,356,0.0,0.0,70,0.00,,---,0.00,VWS V14.01,2013-07-12 12:06:00,
2013-07-12 08:07:00,63.2,53.3,30.00,North,356,0.0,0.0,70,0.00,,---,0.00,VWS V14.01,2013-07-12 12:07:00,
2013-07-12 08:08:00,63.2,53.3,30.00,North,356,0.0,0.0,70,0.00,,---,0.00,VWS V14.01,2013-07-12 12:08:00,
2013-07-12 08:09:00,63.4,53.0,30.00,North,356,0.0,0.0,69,0.00,,---,0.00,VWS V14.01,2013-07-12 12:09:00,
2013-07-12 08:10:00,65.2,51.4,30.00,NE,47,0.0,0.0,61,0.00,,---,0.00,VWS V14.01,2013-07-12 12:10:00,
2013-07-12 08:11:00,63.4,53.0,30.00,NW,317,0.0,0.0,69,0.00,,---,0.00,VWS V14.01,2013-07-12 12:11:00,
2013-07-12 08:12:00,63.6,53.6,30.00,NW,317,0.0,0.0,70,0.00,,---,0.00,VWS V14.01,2013-07-12 12:12:00,
2013-07-12 08:13:00,63.6,53.6,30.00,NW,317,0.0,0.0,70,0.00,,---,0.00,VWS V14.01,2013-07-12 12:13:00,
2013-07-12 08:14:00,65.4,51.1,30.00,NE,50,0.0,0.0,60,0.00,,---,0.00,VWS V14.01,2013-07-12 12:14:00,
2013-07-12 08:15:00,65.5,51.3,30.00,NNE,27,0.0,0.0,60,0.00,,---,0.00,VWS V14.01,2013-07-12 12:15:00,
2013-07-12 08:16:00,63.7,53.4,30.00,NW,317,0.0,0.0,69,0.00,,---,0.00,VWS V14.01,2013-07-12 12:16:00,
2013-07-12 08:17:00,63.6,53.2,30.00,NW,317,0.0,0.0,69,0.00,,---,0.00,VWS V14.01,2013-07-12 12:17:00,
2013-07-12 08:18:00,63.6,52.8,30.00,NW,317,0.0,0.0,68,0.00,,---,0.00,VWS V14.01,2013-07-12 12:18:00,
2013-07-12 08:19:00,63.6,52.4,30.00,NW,317,0.0,0.0,67,0.00,,---,0.00,VWS V14.01,2013-07-12 12:19:00,
2013-07-12 08:20:00,65.7,51.0,30.00,NE,55,3.1,4.9,59,0.00,,---,0.00,VWS V14.01,2013-07-12 12:20:00,
2013-07-12 08:21:00,63.6,52.0,30.00,NW,317,0.0,0.0,66,0.00,,---,0.00,VWS V14.01,2013-07-12 12:21:00,
2013-07-12 08:22:00,63.7,52.6,30.00,NW,317,0.0,0.0,67,0.00,,---,0.00,VWS V14.01,2013-07-12 12:22:00,
2013-07-12 08:23:00,63.7,52.6,30.00,NW,317,0.0,0.0,67,0.00,,---,0.00,VWS V14.01,2013-07-12 12:23:00,
2013-07-12 08:24:00,63.7,52.2,30.00,NW,317,0.0,0.0,66,0.00,,---,0.00,VWS V14.01,2013-07-12 12:24:00,
2013-07-12 08:25:00,65.7,50.5,30.00,ENE,58,0.0,0.0,58,0.00,,---,0.00,VWS V14.01,2013-07-12 12:25:00,
2013-07-12 08:26:00,63.7,52.2,30.00,South,190,0.0,0.0,66,0.00,,---,0.00,VWS V14.01,2013-07-12 12:26:00,
2013-07-12 08:27:00,63.9,52.8,30.00,South,190,0.0,0.0,67,0.00,,---,0.00,VWS V14.01,2013-07-12 12:27:00,
2013-07-12 08:28:00,63.9,52.8,30.00,South,190,0.0,0.0,67,0.00,,---,0.00,VWS V14.01,2013-07-12 12:28:00,
2013-07-12 08:29:00,63.9,52.8,30.00,South,190,0.0,0.0,67,0.00,,---,0.00,VWS V14.01,2013-07-12 12:29:00,
2013-07-12 08:30:00,66.1,50.4,30.00,NE,56,0.0,0.0,57,0.00,,---,0.00,VWS V14.01,2013-07-12 12:30:00,
2013-07-12 08:31:00,64.1,52.9,30.00,South,190,0.0,0.0,67,0.00,,---,0.00,VWS V14.01,2013-07-12 12:31:00,
2013-07-12 08:32:00,64.1,52.5,30.00,South,190,0.0,0.0,66,0.00,,---,0.00,VWS V14.01,2013-07-12 12:32:00,
2013-07-12 08:33:00,64.1,52.5,30.00,South,190,0.0,0.0,66,0.00,,---,0.00,VWS V14.01,2013-07-12 12:33:00,
2013-07-12 08:34:00,64.1,52.5,30.00,South,190,0.0,0.0,66,0.00,,---,0.00,VWS V14.01,2013-07-12 12:34:00,
2013-07-12 08:35:00,66.1,49.5,30.00,NE,54,0.0,0.0,55,0.00,,---,0.00,VWS V14.01,2013-07-12 12:35:00,
2013-07-12 08:36:00,64.1,52.1,30.00,South,190,0.0,0.0,65,0.00,,---,0.00,VWS V14.01,2013-07-12 12:36:00,
2013-07-12 08:37:00,64.1,51.7,30.00,South,190,0.0,0.0,64,0.00,,---,0.00,VWS V14.01,2013-07-12 12:37:00,
2013-07-12 08:38:00,64.1,51.7,30.00,South,190,0.0,0.0,64,0.00,,---,0.00,VWS V14.01,2013-07-12 12:38:00,
2013-07-12 08:39:00,64.1,51.3,30.00,South,190,0.0,0.0,63,0.00,,---,0.00,VWS V14.01,2013-07-12 12:39:00,
2013-07-12 08:40:00,66.4,50.3,30.00,NW,308,0.0,0.0,56,0.00,,---,0.00,VWS V14.01,2013-07-12 12:40:00,
2013-07-12 08:41:00,64.1,50.8,30.00,NE,55,0.0,3.1,62,0.00,,---,0.00,VWS V14.01,2013-07-12 12:41:00,
2013-07-12 08:42:00,64.1,50.8,30.00,ENE,76,0.0,0.0,62,0.00,,---,0.00,VWS V14.01,2013-07-12 12:42:00,
2013-07-12 08:43:00,64.3,51.0,30.00,ENE,77,0.0,0.0,62,0.00,,---,0.00,VWS V14.01,2013-07-12 12:43:00,
2013-07-12 08:44:00,64.3,51.0,30.00,ENE,77,0.0,0.0,62,0.00,,---,0.00,VWS V14.01,2013-07-12 12:44:00,
2013-07-12 08:45:00,66.6,50.5,30.00,East,80,0.0,0.0,56,0.00,,---,0.00,VWS V14.01,2013-07-12 12:45:00,
2013-07-12 08:46:00,64.3,51.0,30.00,ENE,76,0.0,0.0,62,0.00,,---,0.00,VWS V14.01,2013-07-12 12:46:00,
2013-07-12 08:47:00,64.3,51.0,30.00,ENE,77,0.0,0.0,62,0.00,,---,0.00,VWS V14.01,2013-07-12 12:47:00,
2013-07-12 08:48:00,64.3,51.0,30.00,ENE,77,0.0,0.0,62,0.00,,---,0.00,VWS V14.01,2013-07-12 12:48:00,
2013-07-12 08:49:00,64.5,51.2,30.00,ENE,76,0.0,0.0,62,0.00,,---,0.00,VWS V14.01,2013-07-12 12:49:00,
2013-07-12 08:50:00,66.8,49.6,30.00,North,2,0.0,2.7,54,0.00,,---,0.00,VWS V14.01,2013-07-12 12:50:00,
2013-07-12 08:51:00,64.5,51.2,30.00,ENE,76,0.0,0.0,62,0.00,,---,0.00,VWS V14.01,2013-07-12 12:51:00,
2013-07-12 08:52:00,64.5,51.2,30.00,ENE,76,0.0,0.0,62,0.00,,---,0.00,VWS V14.01,2013-07-12 12:52:00,
2013-07-12 08:53:00,64.5,51.2,30.00,NE,52,0.0,0.0,62,0.00,,---,0.00,VWS V14.01,2013-07-12 12:53:00,
2013-07-12 08:54:00,64.5,51.2,30.00,NE,52,0.0,0.0,62,0.00,,---,0.00,VWS V14.01,2013-07-12 12:54:00,
2013-07-12 08:55:00,67.2,49.5,30.00,NE,55,0.0,0.0,53,0.00,,---,0.00,VWS V14.01,2013-07-12 12:55:00,
2013-07-12 08:56:00,64.5,51.2,30.00,East,97,0.0,0.0,62,0.00,,---,0.00,VWS V14.01,2013-07-12 12:56:00,
2013-07-12 08:57:00,64.5,51.2,30.00,East,97,0.0,0.0,62,0.00,,---,0.00,VWS V14.01,2013-07-12 12:57:00,
2013-07-12 08:58:00,64.6,51.3,30.00,East,97,0.0,0.0,62,0.00,,---,0.00,VWS V14.01,2013-07-12 12:58:00,
2013-07-12 08:59:00,64.6,51.3,30.00,East,97,0.0,0.0,62,0.00,,---,0.00,VWS V14.01,2013-07-12 12:59:00,
2013-07-12 09:00:00,67.3,49.6,30.00,NE,55,0.0,0.0,53,0.00,,---,0.00,VWS V14.01,2013-07-12 13:00:00,
2013-07-12 09:01:00,64.6,51.3,30.00,East,97,0.0,0.0,62,0.00,,---,0.00,VWS V14.01,2013-07-12 13:01:00,
2013-07-12 09:02:00,67.3,48.6,30.00,ENE,70,0.0,2.7,51,0.00,,---,0.00,VWS V14.01,2013-07-12 13:02:00,
2013-07-12 09:03:00,64.8,51.1,30.00,East,97,0.0,0.0,61,0.00,,---,0.00,VWS V14.01,2013-07-12 13:03:00,
2013-07-12 09:04:00,64.8,51.5,30.00,NE,54,3.6,3.6,62,0.00,,---,0.00,VWS V14.01,2013-07-12 13:04:00,
2013-07-12 09:05:00,67.7,48.4,30.00,NNW,345,3.1,3.1,50,0.00,,---,0.00,VWS V14.01,2013-07-12 13:05:00,
2013-07-12 09:06:00,64.8,51.5,30.00,NE,54,0.0,0.0,62,0.00,,---,0.00,VWS V14.01,2013-07-12 13:06:00,
2013-07-12 09:07:00,67.7,48.4,30.00,NE,39,2.7,3.6,50,0.00,,---,0.00,VWS V14.01,2013-07-12 13:07:00,
2013-07-12 09:08:00,65.0,51.2,30.00,NE,52,0.0,0.0,61,0.00,,---,0.00,VWS V14.01,2013-07-12 13:08:00,
2013-07-12 09:09:00,65.0,51.2,30.00,NE,52,0.0,0.0,61,0.00,,---,0.00,VWS V14.01,2013-07-12 13:09:00,
2013-07-12 09:10:00,68.2,48.9,30.00,NNE,18,0.0,3.6,50,0.00,,---,0.00,VWS V14.01,2013-07-12 13:10:00,
2013-07-12 09:11:00,68.2,49.4,30.00,NNE,18,0.0,3.6,51,0.00,,---,0.00,VWS V14.01,2013-07-12 13:11:00,
2013-07-12 09:12:00,65.2,51.4,30.00,NE,51,0.0,0.0,61,0.00,,---,0.00,VWS V14.01,2013-07-12 13:12:00,
2013-07-12 09:13:00,65.4,51.6,30.00,NE,50,0.0,0.0,61,0.00,,---,0.00,VWS V14.01,2013-07-12 13:13:00,
2013-07-12 09:14:00,65.4,51.1,30.00,NE,50,0.0,0.0,60,0.00,,---,0.00,VWS V14.01,2013-07-12 13:14:00,
2013-07-12 09:15:00,68.4,48.5,30.00,NE,51,4.9,4.9,49,0.00,,---,0.00,VWS V14.01,2013-07-12 13:15:00,
2013-07-12 09:16:00,65.5,51.3,30.00,NNE,27,0.0,0.0,60,0.00,,---,0.00,VWS V14.01,2013-07-12 13:16:00,
2013-07-12 09:17:00,65.5,51.3,30.00,NW,315,0.0,0.0,60,0.00,,---,0.00,VWS V14.01,2013-07-12 13:17:00,
2013-07-12 09:18:00,65.5,51.3,30.00,NW,317,0.0,0.0,60,0.00,,---,0.00,VWS V14.01,2013-07-12 13:18:00,
2013-07-12 09:19:00,65.5,51.3,30.00,NNE,19,0.0,0.0,60,0.00,,---,0.00,VWS V14.01,2013-07-12 13:19:00,
2013-07-12 09:20:00,68.8,49.4,30.00,NNW,337,0.0,4.5,50,0.00,,---,0.00,VWS V14.01,2013-07-12 13:20:00,
2013-07-12 09:21:00,65.7,51.0,30.00,ENE,61,2.7,4.9,59,0.00,,---,0.00,VWS V14.01,2013-07-12 13:21:00,
2013-07-12 09:22:00,65.7,50.6,30.00,ENE,58,0.0,3.6,58,0.00,,---,0.00,VWS V14.01,2013-07-12 13:22:00,
2013-07-12 09:23:00,65.7,50.6,30.00,ENE,58,0.0,2.7,58,0.00,,---,0.00,VWS V14.01,2013-07-12 13:23:00,
2013-07-12 09:24:00,65.7,50.6,30.00,ENE,58,0.0,0.0,58,0.00,,---,0.00,VWS V14.01,2013-07-12 13:24:00,
2013-07-12 09:25:00,69.0,49.0,30.00,NW,325,0.0,0.0,49,0.00,,---,0.00,VWS V14.01,2013-07-12 13:25:00,
2013-07-12 09:26:00,65.7,50.6,30.00,ENE,58,0.0,0.0,58,0.00,,---,0.00,VWS V14.01,2013-07-12 13:26:00,
2013-07-12 09:27:00,65.9,50.7,30.00,ENE,58,0.0,0.0,58,0.00,,---,0.00,VWS V14.01,2013-07-12 13:27:00,
2013-07-12 09:28:00,65.9,50.7,30.00,NE,56,0.0,0.0,58,0.00,,---,0.00,VWS V14.01,2013-07-12 13:28:00,
2013-07-12 09:29:00,65.9,50.7,30.00,NE,56,0.0,0.0,58,0.00,,---,0.00,VWS V14.01,2013-07-12 13:29:00,
2013-07-12 09:30:00,68.4,47.4,30.00,NNE,24,0.0,0.0,47,0.00,,---,0.00,VWS V14.01,2013-07-12 13:30:00,
2013-07-12 09:31:00,66.1,50.4,30.00,NE,56,0.0,0.0,57,0.00,,---,0.00,VWS V14.01,2013-07-12 13:31:00,
2013-07-12 09:32:00,66.1,50.4,30.00,NE,47,3.1,3.6,57,0.00,,---,0.00,VWS V14.01,2013-07-12 13:32:00,
2013-07-12 09:33:00,65.9,49.8,30.00,NE,54,0.0,3.6,56,0.00,,---,0.00,VWS V14.01,2013-07-12 13:33:00,
2013-07-12 09:34:00,66.1,50.0,30.00,NE,54,0.0,0.0,56,0.00,,---,0.00,VWS V14.01,2013-07-12 13:34:00,
2013-07-12 09:35:00,68.6,48.2,30.00,NW,306,0.0,0.0,48,0.00,,---,0.00,VWS V14.01,2013-07-12 13:35:00,
2013-07-12 09:36:00,66.1,49.5,30.00,NE,54,0.0,0.0,55,0.00,,---,0.00,VWS V14.01,2013-07-12 13:36:00,
2013-07-12 09:37:00,66.3,50.1,30.00,NE,54,0.0,0.0,56,0.00,,---,0.00,VWS V14.01,2013-07-12 13:37:00,
2013-07-12 09:38:00,66.3,50.1,30.00,WNW,297,0.0,0.0,56,0.00,,---,0.00,VWS V14.01,2013-07-12 13:38:00,
2013-07-12 09:39:00,66.3,50.1,30.00,NW,307,0.0,0.0,56,0.00,,---,0.00,VWS V14.01,2013-07-12 13:39:00,
2013-07-12 09:40:00,69.0,48.5,30.00,NE,36,0.0,0.0,48,0.00,,---,0.00,VWS V14.01,2013-07-12 13:40:00,
2013-07-12 09:41:00,66.4,50.3,30.00,NW,308,0.0,0.0,56,0.00,,---,0.00,VWS V14.01,2013-07-12 13:41:00,
2013-07-12 09:42:00,66.4,50.3,30.00,NW,315,0.0,0.0,56,0.00,,---,0.00,VWS V14.01,2013-07-12 13:42:00,
2013-07-12 09:43:00,66.6,50.9,30.00,NW,315,0.0,0.0,57,0.00,,---,0.00,VWS V14.01,2013-07-12 13:43:00,
2013-07-12 09:44:00,66.6,50.9,30.00,NE,43,0.0,0.0,57,0.00,,---,0.00,VWS V14.01,2013-07-12 13:44:00,
2013-07-12 09:45:00,69.0,48.5,30.00,North,356,0.0,0.0,48,0.00,,---,0.00,VWS V14.01,2013-07-12 13:45:00,
2013-07-12 09:46:00,66.8,50.6,30.00,East,80,0.0,0.0,56,0.00,,---,0.00,VWS V14.01,2013-07-12 13:46:00,
2013-07-12 09:47:00,66.8,50.6,30.00,East,80,0.0,0.0,56,0.00,,---,0.00,VWS V14.01,2013-07-12 13:47:00,
2013-07-12 09:48:00,66.8,49.6,30.00,East,80,0.0,0.0,54,0.00,,---,0.00,VWS V14.01,2013-07-12 13:48:00,
2013-07-12 09:49:00,66.8,49.6,30.00,NNW,335,0.0,0.0,54,0.00,,---,0.00,VWS V14.01,2013-07-12 13:49:00,
2013-07-12 09:50:00,69.1,48.1,30.00,NE,43,0.0,0.0,47,0.00,,---,0.00,VWS V14.01,2013-07-12 13:50:00,
2013-07-12 09:51:00,67.0,49.8,30.00,North,2,0.0,2.7,54,0.00,,---,0.00,VWS V14.01,2013-07-12 13:51:00,
2013-07-12 09:52:00,67.0,49.8,30.00,NE,43,0.0,2.7,54,0.00,,---,0.00,VWS V14.01,2013-07-12 13:52:00,
2013-07-12 09:53:00,67.0,48.8,30.00,NE,49,2.7,3.1,52,0.00,,---,0.00,VWS V14.01,2013-07-12 13:53:00,
2013-07-12 09:54:00,67.0,48.8,30.00,NE,55,0.0,4.0,52,0.00,,---,0.00,VWS V14.01,2013-07-12 13:54:00,
2013-07-12 09:55:00,69.3,48.2,30.00,NNW,332,0.0,0.0,47,0.00,,---,0.00,VWS V14.01,2013-07-12 13:55:00,
2013-07-12 09:56:00,67.2,49.5,30.00,NE,55,0.0,0.0,53,0.00,,---,0.00,VWS V14.01,2013-07-12 13:56:00,
2013-07-12 09:57:00,67.2,50.0,30.00,NE,55,0.0,0.0,54,0.00,,---,0.00,VWS V14.01,2013-07-12 13:57:00,
2013-07-12 09:58:00,67.3,50.1,30.00,NE,55,0.0,0.0,54,0.00,,---,0.00,VWS V14.01,2013-07-12 13:58:00,
2013-07-12 09:59:00,67.3,49.6,30.00,NE,55,0.0,0.0,53,0.00,,---,0.00,VWS V14.01,2013-07-12 13:59:00,
2013-07-12 10:00:00,69.9,49.3,30.00,NW,321,2.7,3.6,48,0.00,,---,0.00,VWS V14.01,2013-07-12 14:00:00,
2013-07-12 10:01:00,67.3,49.1,30.00,NE,55,0.0,0.0,52,0.00,,---,0.00,VWS V14.01,2013-07-12 14:01:00,
2013-07-12 10:02:00,67.3,48.6,30.00,ENE,70,0.0,2.7,51,0.00,,---,0.00,VWS V14.01,2013-07-12 14:02:00,
2013-07-12 10:03:00,67.5,48.8,30.00,NNE,16,0.0,0.0,51,0.00,,---,0.00,VWS V14.01,2013-07-12 14:03:00,
2013-07-12 10:04:00,67.5,48.2,30.00,ENE,60,4.0,4.5,50,0.00,,---,0.00,VWS V14.01,2013-07-12 14:04:00,
2013-07-12 10:05:00,70.0,48.9,30.00,ENE,66,0.0,0.0,47,0.00,,---,0.00,VWS V14.01,2013-07-12 14:05:00,
2013-07-12 10:06:00,67.7,48.9,30.00,NNE,18,2.7,3.1,51,0.00,,---,0.00,VWS V14.01,2013-07-12 14:06:00,
2013-07-12 10:07:00,67.7,48.4,30.00,NE,39,2.7,3.6,50,0.00,,---,0.00,VWS V14.01,2013-07-12 14:07:00,
2013-07-12 10:08:00,67.9,48.6,30.00,WSW,244,0.0,2.7,50,0.00,,---,0.00,VWS V14.01,2013-07-12 14:08:00,
2013-07-12 10:09:00,68.1,48.7,30.00,NNW,339,0.0,0.0,50,0.00,,---,0.00,VWS V14.01,2013-07-12 14:09:00,
2013-07-12 10:10:00,70.0,48.3,30.00,NE,39,0.0,3.1,46,0.00,,---,0.00,VWS V14.01,2013-07-12 14:10:00,
2013-07-12 10:11:00,68.2,49.4,30.00,NNE,18,0.0,3.6,51,0.00,,---,0.00,VWS V14.01,2013-07-12 14:11:00,
2013-07-12 10:12:00,68.2,49.4,30.00,NNW,338,0.0,0.0,51,0.00,,---,0.00,VWS V14.01,2013-07-12 14:12:00,
2013-07-12 10:13:00,68.2,49.4,30.00,NNE,19,0.0,0.0,51,0.00,,---,0.00,VWS V14.01,2013-07-12 14:13:00,
2013-07-12 10:14:00,68.4,49.1,30.00,NNE,19,0.0,0.0,50,0.00,,---,0.00,VWS V14.01,2013-07-12 14:14:00,
2013-07-12 10:15:00,70.8,49.6,30.00,WNW,294,3.6,4.9,47,0.00,,---,0.00,VWS V14.01,2013-07-12 14:15:00,
2013-07-12 10:16:00,68.4,48.5,30.00,NE,48,3.1,4.9,49,0.00,,---,0.00,VWS V14.01,2013-07-12 14:16:00,
2013-07-12 10:17:00,68.4,48.0,30.00,NE,52,4.0,4.9,48,0.00,,---,0.00,VWS V14.01,2013-07-12 14:17:00,
2013-07-12 10:18:00,68.4,48.0,30.00,NE,49,0.0,4.0,48,0.00,,---,0.00,VWS V14.01,2013-07-12 14:18:00,
2013-07-12 10:19:00,68.6,48.7,30.00,NE,53,0.0,2.7,49,0.00,,---,0.00,VWS V14.01,2013-07-12 14:19:00,
2013-07-12 10:20:00,71.3,49.5,30.03,WNW,291,0.0,0.0,46,0.00,,---,0.00,VWS V14.01,2013-07-12 14:20:00,
2013-07-12 10:21:00,68.8,49.4,30.00,NW,318,0.0,4.5,50,0.00,,---,0.00,VWS V14.01,2013-07-12 14:21:00,
2013-07-12 10:22:00,68.8,48.9,30.00,NW,318,0.0,3.1,49,0.00,,---,0.00,VWS V14.01,2013-07-12 14:22:00,
2013-07-12 10:23:00,68.8,48.9,30.00,NW,318,0.0,0.0,49,0.00,,---,0.00,VWS V14.01,2013-07-12 14:23:00,
2013-07-12 10:24:00,68.8,48.9,30.00,NW,318,0.0,0.0,49,0.00,,---,0.00,VWS V14.01,2013-07-12 14:24:00,
2013-07-12 10:25:00,71.5,48.5,30.03,ENE,69,0.0,0.0,44,0.00,,---,0.00,VWS V14.01,2013-07-12 14:25:00,
2013-07-12 10:26:00,69.0,49.0,30.00,NW,325,0.0,0.0,49,0.00,,---,0.00,VWS V14.01,2013-07-12 14:26:00,
2013-07-12 10:27:00,69.0,49.6,30.00,NNW,346,0.0,0.0,50,0.00,,---,0.00,VWS V14.01,2013-07-12 14:27:00,
2013-07-12 10:28:00,68.8,48.3,30.00,NNE,24,0.0,0.0,48,0.00,,---,0.00,VWS V14.01,2013-07-12 14:28:00,
2013-07-12 10:29:00,68.4,47.4,30.00,NNE,24,0.0,0.0,47,0.00,,---,0.00,VWS V14.01,2013-07-12 14:29:00,
2013-07-12 10:30:00,72.4,49.9,30.03,West,273,0.0,0.0,45,0.00,,---,0.00,VWS V14.01,2013-07-12 14:30:00,
2013-07-12 10:31:00,68.4,47.4,30.00,NNE,24,0.0,0.0,47,0.00,,---,0.00,VWS V14.01,2013-07-12 14:31:00,
2013-07-12 10:32:00,68.6,47.6,30.00,NW,305,3.1,3.6,47,0.00,,---,0.00,VWS V14.01,2013-07-12 14:32:00,
2013-07-12 10:33:00,68.6,47.6,30.00,NW,306,0.0,3.1,47,0.00,,---,0.00,VWS V14.01,2013-07-12 14:33:00,
2013-07-12 10:34:00,68.6,47.6,30.00,NW,306,0.0,0.0,47,0.00,,---,0.00,VWS V14.01,2013-07-12 14:34:00,
2013-07-12 10:35:00,73.1,50.5,30.00,NNE,21,2.7,2.7,45,0.00,,---,0.00,VWS V14.01,2013-07-12 14:35:00,
2013-07-12 10:36:00,68.6,48.2,30.00,NW,306,0.0,0.0,48,0.00,,---,0.00,VWS V14.01,2013-07-12 14:36:00,
2013-07-12 10:37:00,68.8,48.3,30.00,WNW,289,0.0,0.0,48,0.00,,---,0.00,VWS V14.01,2013-07-12 14:37:00,
2013-07-12 10:38:00,68.8,48.3,30.00,NE,52,2.7,3.6,48,0.00,,---,0.00,VWS V14.01,2013-07-12 14:38:00,
2013-07-12 10:39:00,68.8,48.3,30.00,NE,36,0.0,3.6,48,0.00,,---,0.00,VWS V14.01,2013-07-12 14:39:00,
2013-07-12 10:40:00,72.7,47.7,30.00,North,8,0.0,0.0,41,0.00,,---,0.00,VWS V14.01,2013-07-12 14:40:00,
2013-07-12 10:41:00,69.0,48.5,30.00,NE,36,0.0,0.0,48,0.00,,---,0.00,VWS V14.01,2013-07-12 14:41:00,
2013-07-12 10:42:00,69.0,47.9,30.00,NE,36,0.0,0.0,47,0.00,,---,0.00,VWS V14.01,2013-07-12 14:42:00,
2013-07-12 10:43:00,69.0,47.9,30.00,NE,36,0.0,0.0,47,0.00,,---,0.00,VWS V14.01,2013-07-12 14:43:00,
2013-07-12 10:44:00,68.8,47.8,30.00,NE,46,0.0,0.0,47,0.00,,---,0.00,VWS V14.01,2013-07-12 14:44:00,
2013-07-12 10:45:00,72.6,47.5,30.00,NE,47,0.0,3.6,41,0.00,,---,0.00,VWS V14.01,2013-07-12 14:45:00,
2013-07-12 10:46:00,69.1,48.6,30.00,North,356,0.0,0.0,48,0.00,,---,0.00,VWS V14.01,2013-07-12 14:46:00,
2013-07-12 10:47:00,69.1,48.6,30.00,North,356,0.0,0.0,48,0.00,,---,0.00,VWS V14.01,2013-07-12 14:47:00,
2013-07-12 10:48:00,69.3,49.4,30.00,North,356,0.0,0.0,49,0.00,,---,0.00,VWS V14.01,2013-07-12 14:48:00,
2013-07-12 10:49:00,69.3,48.8,30.00,North,5,0.0,0.0,48,0.00,,---,0.00,VWS V14.01,2013-07-12 14:49:00,
2013-07-12 10:50:00,73.1,47.4,30.00,ENE,62,0.0,0.0,40,0.00,,---,0.00,VWS V14.01,2013-07-12 14:50:00,
2013-07-12 10:51:00,69.1,48.1,30.00,NE,43,0.0,0.0,47,0.00,,---,0.00,VWS V14.01,2013-07-12 14:51:00,
2013-07-12 10:52:00,69.1,47.5,30.00,ENE,61,3.6,3.6,46,0.00,,---,0.00,VWS V14.01,2013-07-12 14:52:00,
2013-07-12 10:53:00,73.3,48.2,30.00,ENE,62,0.0,0.0,41,0.00,,---,0.00,VWS V14.01,2013-07-12 14:53:00,
2013-07-12 10:54:00,73.1,47.4,30.00,ENE,74,3.1,4.0,40,0.00,,---,0.00,VWS V14.01,2013-07-12 14:54:00,
2013-07-12 10:55:00,73.1,46.7,30.00,ENE,75,0.0,0.0,39,0.00,,---,0.00,VWS V14.01,2013-07-12 14:55:00,
2013-07-12 10:56:00,69.5,49.0,30.00,NNW,332,0.0,0.0,48,0.00,,---,0.00,VWS V14.01,2013-07-12 14:56:00,
2013-07-12 10:57:00,69.5,49.0,30.00,NNW,332,0.0,0.0,48,0.00,,---,0.00,VWS V14.01,2013-07-12 14:57:00,
2013-07-12 10:58:00,73.3,48.2,30.00,NE,46,4.0,4.0,41,0.00,,---,0.00,VWS V14.01,2013-07-12 14:58:00,
2013-07-12 10:59:00,69.7,49.1,30.00,NNW,332,0.0,0.0,48,0.00,,---,0.00,VWS V14.01,2013-07-12 14:59:00,
2013-07-12 11:00:00,72.9,47.9,30.00,North,356,3.1,4.9,41,0.00,,---,0.00,VWS V14.01,2013-07-12 15:00:00,
2013-07-12 11:01:00,69.9,49.3,30.00,North,351,2.7,3.6,48,0.00,,---,0.00,VWS V14.01,2013-07-12 15:01:00,
2013-07-12 11:02:00,69.9,49.3,30.00,NNW,334,0.0,3.1,48,0.00,,---,0.00,VWS V14.01,2013-07-12 15:02:00,
2013-07-12 11:03:00,70.0,49.5,30.00,NNE,16,0.0,0.0,48,0.00,,---,0.00,VWS V14.01,2013-07-12 15:03:00,
2013-07-12 11:04:00,70.0,49.5,30.00,NNE,22,0.0,0.0,48,0.00,,---,0.00,VWS V14.01,2013-07-12 15:04:00,
2013-07-12 11:05:00,74.0,51.3,30.03,NNW,339,0.0,0.0,45,0.00,,---,0.00,VWS V14.01,2013-07-12 15:05:00,
2013-07-12 11:06:00,70.0,48.9,30.00,ENE,66,0.0,0.0,47,0.00,,---,0.00,VWS V14.01,2013-07-12 15:06:00,
2013-07-12 11:07:00,70.0,48.9,30.00,NNW,334,0.0,0.0,47,0.00,,---,0.00,VWS V14.01,2013-07-12 15:07:00,
2013-07-12 11:08:00,70.0,48.9,30.00,ENE,57,2.7,2.7,47,0.00,,---,0.00,VWS V14.01,2013-07-12 15:08:00,
2013-07-12 11:09:00,70.0,48.9,30.00,NW,325,0.0,3.6,47,0.00,,---,0.00,VWS V14.01,2013-07-12 15:09:00,
2013-07-12 11:10:00,74.0,48.2,30.03,NE,42,0.0,4.9,40,0.00,,---,0.00,VWS V14.01,2013-07-12 15:10:00,
2013-07-12 11:11:00,70.0,48.3,30.00,NE,41,0.0,3.1,46,0.00,,---,0.00,VWS V14.01,2013-07-12 15:11:00,
2013-07-12 11:12:00,70.2,49.1,30.00,North,351,0.0,0.0,47,0.00,,---,0.00,VWS V14.01,2013-07-12 15:12:00,
2013-07-12 11:13:00,70.2,48.5,30.00,NE,50,2.7,4.5,46,0.00,,---,0.00,VWS V14.01,2013-07-12 15:13:00,
2013-07-12 11:14:00,70.4,48.7,30.00,NNW,337,0.0,2.7,46,0.00,,---,0.00,VWS V14.01,2013-07-12 15:14:00,
2013-07-12 11:15:00,73.6,47.2,30.03,NE,45,0.0,3.1,39,0.00,,---,0.00,VWS V14.01,2013-07-12 15:15:00,
2013-07-12 11:16:00,70.8,49.6,30.00,WNW,294,0.0,4.9,47,0.00,,---,0.00,VWS V14.01,2013-07-12 15:16:00,
2013-07-12 11:17:00,70.9,49.7,30.00,WNW,294,0.0,0.0,47,0.00,,---,0.00,VWS V14.01,2013-07-12 15:17:00,
2013-07-12 11:18:00,71.1,49.9,30.00,NNE,19,2.7,4.5,47,0.00,,---,0.00,VWS V14.01,2013-07-12 15:18:00,
2013-07-12 11:19:00,71.1,49.3,30.00,North,11,2.7,3.6,46,0.00,,---,0.00,VWS V14.01,2013-07-12 15:19:00,
2013-07-12 11:20:00,74.0,47.5,30.03,NNE,31,2.7,4.5,39,0.00,,---,0.00,VWS V14.01,2013-07-12 15:20:00,
2013-07-12 11:21:00,71.5,49.6,30.03,WNW,291,0.0,0.0,46,0.00,,---,0.00,VWS V14.01,2013-07-12 15:21:00,
2013-07-12 11:22:00,71.7,49.8,30.03,NE,50,5.4,5.4,46,0.00,,---,0.00,VWS V14.01,2013-07-12 15:22:00,
2013-07-12 11:23:00,71.7,49.2,30.03,NE,37,3.1,5.4,45,0.00,,---,0.00,VWS V14.01,2013-07-12 15:23:00,
2013-07-12 11:24:00,71.5,46.6,30.03,NE,56,4.0,4.9,41,0.00,,---,0.00,VWS V14.01,2013-07-12 15:24:00,
2013-07-12 11:25:00,74.7,51.4,30.03,NW,313,0.0,0.0,44,0.00,,---,0.00,VWS V14.01,2013-07-12 15:25:00,
2013-07-12 11:26:00,71.7,48.0,30.03,ENE,72,0.0,0.0,43,0.00,,---,0.00,VWS V14.01,2013-07-12 15:26:00,
2013-07-12 11:27:00,71.7,48.6,30.03,NE,56,3.1,4.9,44,0.00,,---,0.00,VWS V14.01,2013-07-12 15:27:00,
2013-07-12 11:28:00,71.8,49.4,30.03,NNW,339,5.4,5.4,45,0.00,,---,0.00,VWS V14.01,2013-07-12 15:28:00,
2013-07-12 11:29:00,72.2,50.3,30.03,NNW,347,4.9,5.8,46,0.00,,---,0.00,VWS V14.01,2013-07-12 15:29:00,
2013-07-12 11:30:00,74.5,48.7,30.03,ENE,62,3.1,3.1,40,0.00,,---,0.00,VWS V14.01,2013-07-12 15:30:00,
2013-07-12 11:31:00,72.4,49.9,30.03,WNW,291,0.0,0.0,45,0.00,,---,0.00,VWS V14.01,2013-07-12 15:31:00,
2013-07-12 11:32:00,72.7,50.8,30.03,WNW,294,0.0,0.0,46,0.00,,---,0.00,VWS V14.01,2013-07-12 15:32:00,
2013-07-12 11:33:00,72.9,51.0,30.03,NE,52,0.0,0.0,46,0.00,,---,0.00,VWS V14.01,2013-07-12 15:33:00,
2013-07-12 11:34:00,72.9,50.3,30.03,ENE,72,0.0,3.1,45,0.00,,---,0.00,VWS V14.01,2013-07-12 15:34:00,
2013-07-12 11:35:00,74.4,47.8,30.03,NE,53,5.4,5.4,39,0.00,,---,0.00,VWS V14.01,2013-07-12 15:35:00,
2013-07-12 11:36:00,73.3,50.7,30.00,NNE,27,0.0,2.7,45,0.00,,---,0.00,VWS V14.01,2013-07-12 15:36:00,
2013-07-12 11:37:00,73.5,50.8,30.00,NNE,30,2.7,2.7,45,0.00,,---,0.00,VWS V14.01,2013-07-12 15:37:00,
2013-07-12 11:38:00,73.3,49.5,30.00,NE,52,5.4,5.4,43,0.00,,---,0.00,VWS V14.01,2013-07-12 15:38:00,
2013-07-12 11:39:00,72.9,47.2,30.00,North,5,0.0,5.4,40,0.00,,---,0.00,VWS V14.01,2013-07-12 15:39:00,
2013-07-12 11:40:00,74.4,50.4,30.03,NNE,15,0.0,0.0,43,0.00,,---,0.00,VWS V14.01,2013-07-12 15:40:00,
2013-07-12 11:41:00,72.7,47.7,30.00,NE,38,3.6,4.0,41,0.00,,---,0.00,VWS V14.01,2013-07-12 15:41:00,
2013-07-12 11:42:00,72.4,46.0,30.00,NE,52,0.0,4.0,39,0.00,,---,0.00,VWS V14.01,2013-07-12 15:42:00,
2013-07-12 11:43:00,72.4,46.7,30.00,NE,52,0.0,0.0,40,0.00,,---,0.00,VWS V14.01,2013-07-12 15:43:00,
2013-07-12 11:44:00,72.4,47.4,30.00,North,351,0.0,0.0,41,0.00,,---,0.00,VWS V14.01,2013-07-12 15:44:00,
2013-07-12 11:45:00,75.3,52.5,30.03,East,82,0.0,3.1,45,0.00,,---,0.00,VWS V14.01,2013-07-12 15:45:00,
2013-07-12 11:46:00,72.6,48.2,30.00,NE,47,2.7,3.6,42,0.00,,---,0.00,VWS V14.01,2013-07-12 15:46:00,
2013-07-12 11:47:00,72.6,47.5,30.00,ENE,67,4.5,4.5,41,0.00,,---,0.00,VWS V14.01,2013-07-12 15:47:00,
2013-07-12 11:48:00,72.9,47.9,30.00,NE,42,4.5,5.4,41,0.00,,---,0.00,VWS V14.01,2013-07-12 15:48:00,
2013-07-12 11:49:00,73.1,48.0,30.00,ENE,58,0.0,4.5,41,0.00,,---,0.00,VWS V14.01,2013-07-12 15:49:00,
2013-07-12 11:50:00,75.1,49.8,30.03,NNE,15,2.7,4.5,41,0.00,,---,0.00,VWS V14.01,2013-07-12 15:50:00,
2013-07-12 11:51:00,73.1,47.4,30.00,ENE,62,0.0,0.0,40,0.00,,---,0.00,VWS V14.01,2013-07-12 15:51:00,
2013-07-12 11:52:00,73.3,47.5,30.00,ENE,62,0.0,0.0,40,0.00,,---,0.00,VWS V14.01,2013-07-12 15:52:00,
2013-07-12 11:53:00,73.3,48.2,30.00,ENE,62,0.0,0.0,41,0.00,,---,0.00,VWS V14.01,2013-07-12 15:53:00,
2013-07-12 11:54:00,73.1,47.4,30.00,ENE,74,3.1,4.0,40,0.00,,---,0.00,VWS V14.01,2013-07-12 15:54:00,
2013-07-12 11:55:00,75.4,50.8,30.03,NNE,33,2.7,4.9,42,0.00,,---,0.00,VWS V14.01,2013-07-12 15:55:00,
2013-07-12 11:56:00,73.1,46.7,30.00,ENE,75,0.0,0.0,39,0.00,,---,0.00,VWS V14.01,2013-07-12 15:56:00,
2013-07-12 11:57:00,73.3,46.9,30.00,ENE,75,0.0,0.0,39,0.00,,---,0.00,VWS V14.01,2013-07-12 15:57:00,
2013-07-12 11:58:00,73.3,48.2,30.00,NE,46,4.0,4.0,41,0.00,,---,0.00,VWS V14.01,2013-07-12 15:58:00,
2013-07-12 11:59:00,73.1,47.4,30.00,NE,40,4.0,5.4,40,0.00,,---,0.00,VWS V14.01,2013-07-12 15:59:00,
2013-07-12 12:00:00,75.6,51.6,30.03,North,2,3.6,4.5,43,0.00,,---,0.00,VWS V14.01,2013-07-12 16:00:00,
2013-07-12 12:01:00,75.6,51.6,30.03,NW,318,2.7,4.5,43,0.00,,---,0.00,VWS V14.01,2013-07-12 16:01:00,
2013-07-12 12:02:00,73.5,49.6,30.00,NW,315,4.5,4.9,43,0.00,,---,0.00,VWS V14.01,2013-07-12 16:02:00,
2013-07-12 12:03:00,73.6,48.5,30.00,NW,316,0.0,4.9,41,0.00,,---,0.00,VWS V14.01,2013-07-12 16:03:00,
2013-07-12 12:04:00,73.6,49.2,30.00,South,187,0.0,2.7,42,0.00,,---,0.00,VWS V14.01,2013-07-12 16:04:00,
2013-07-12 12:05:00,75.3,50.6,30.03,NNW,337,4.0,4.0,42,0.00,,---,0.00,VWS V14.01,2013-07-12 16:05:00,
2013-07-12 12:06:00,74.0,51.3,30.03,NNW,330,2.7,3.6,45,0.00,,---,0.00,VWS V14.01,2013-07-12 16:06:00,
2013-07-12 12:07:00,74.2,51.5,30.03,NNW,341,3.1,5.4,45,0.00,,---,0.00,VWS V14.01,2013-07-12 16:07:00,
2013-07-12 12:08:00,74.4,50.4,30.03,NNW,339,0.0,3.1,43,0.00,,---,0.00,VWS V14.01,2013-07-12 16:08:00,
2013-07-12 12:09:00,74.4,49.8,30.03,SSW,195,0.0,4.0,42,0.00,,---,0.00,VWS V14.01,2013-07-12 16:09:00,
2013-07-12 12:10:00,75.1,49.8,30.03,NE,48,0.0,2.7,41,0.00,,---,0.00,VWS V14.01,2013-07-12 16:10:00,
2013-07-12 12:11:00,73.8,47.3,30.03,East,82,3.6,4.9,39,0.00,,---,0.00,VWS V14.01,2013-07-12 16:11:00,
2013-07-12 12:12:00,73.6,47.2,30.03,NNE,33,4.0,4.5,39,0.00,,---,0.00,VWS V14.01,2013-07-12 16:12:00,
2013-07-12 12:13:00,73.8,48.7,30.03,NNE,24,3.1,4.0,41,0.00,,---,0.00,VWS V14.01,2013-07-12 16:13:00,
2013-07-12 12:14:00,73.8,48.0,30.03,NE,36,3.1,4.9,40,0.00,,---,0.00,VWS V14.01,2013-07-12 16:14:00,
2013-07-12 12:15:00,74.9,50.9,30.03,ENE,66,4.0,4.9,43,0.00,,---,0.00,VWS V14.01,2013-07-12 16:15:00,
2013-07-12 12:16:00,73.6,47.2,30.03,NE,45,0.0,3.1,39,0.00,,---,0.00,VWS V14.01,2013-07-12 16:16:00,
2013-07-12 12:17:00,73.8,48.7,30.03,NNW,347,0.0,0.0,41,0.00,,---,0.00,VWS V14.01,2013-07-12 16:17:00,
2013-07-12 12:18:00,74.0,50.1,30.03,NNW,347,4.0,4.0,43,0.00,,---,0.00,VWS V14.01,2013-07-12 16:18:00,
2013-07-12 12:19:00,74.2,49.6,30.03,NNE,33,2.7,4.0,42,0.00,,---,0.00,VWS V14.01,2013-07-12 16:19:00,
2013-07-12 12:20:00,74.4,48.5,30.03,NE,51,4.5,4.5,40,0.00,,---,0.00,VWS V14.01,2013-07-12 16:20:00,
2013-07-12 12:21:00,74.0,47.5,30.03,NE,54,0.0,4.5,39,0.00,,---,0.00,VWS V14.01,2013-07-12 16:21:00,
2013-07-12 12:22:00,74.0,48.2,30.03,NE,54,3.6,3.6,40,0.00,,---,0.00,VWS V14.01,2013-07-12 16:22:00,
2013-07-12 12:23:00,74.2,49.0,30.03,NE,54,0.0,3.6,41,0.00,,---,0.00,VWS V14.01,2013-07-12 16:23:00,
2013-07-12 12:24:00,74.4,51.0,30.03,NNW,328,3.6,4.0,44,0.00,,---,0.00,VWS V14.01,2013-07-12 16:24:00,
2013-07-12 12:25:00,75.1,50.5,30.03,ENE,69,0.0,0.0,42,0.00,,---,0.00,VWS V14.01,2013-07-12 16:25:00,
2013-07-12 12:26:00,74.7,52.0,30.03,WNW,287,0.0,0.0,45,0.00,,---,0.00,VWS V14.01,2013-07-12 16:26:00,
2013-07-12 12:27:00,74.9,52.2,30.03,SW,232,0.0,0.0,45,0.00,,---,0.00,VWS V14.01,2013-07-12 16:27:00,
2013-07-12 12:28:00,75.1,52.3,30.03,NE,56,3.1,4.0,45,0.00,,---,0.00,VWS V14.01,2013-07-12 16:28:00,
2013-07-12 12:29:00,74.9,50.3,30.03,NE,55,0.0,3.1,42,0.00,,---,0.00,VWS V14.01,2013-07-12 16:29:00,
2013-07-12 12:30:00,75.3,50.6,30.03,NE,42,4.5,4.5,42,0.00,,---,0.00,VWS V14.01,2013-07-12 16:30:00,
2013-07-12 12:31:00,74.5,48.0,30.03,ENE,59,3.1,4.0,39,0.00,,---,0.00,VWS V14.01,2013-07-12 16:31:00,
2013-07-12 12:32:00,74.4,48.5,30.03,NNE,28,3.1,3.6,40,0.00,,---,0.00,VWS V14.01,2013-07-12 16:32:00,
2013-07-12 12:33:00,74.5,48.7,30.03,NNW,338,2.7,4.0,40,0.00,,---,0.00,VWS V14.01,2013-07-12 16:33:00,
2013-07-12 12:34:00,74.5,48.7,30.03,NE,52,4.0,4.9,40,0.00,,---,0.00,VWS V14.01,2013-07-12 16:34:00,
2013-07-12 12:35:00,74.9,49.0,30.03,NNE,33,3.1,4.9,40,0.00,,---,0.00,VWS V14.01,2013-07-12 16:35:00,
2013-07-12 12:36:00,74.2,47.7,30.03,North,0,0.0,5.4,39,0.00,,---,0.00,VWS V14.01,2013-07-12 16:36:00,
2013-07-12 12:37:00,74.2,48.3,30.03,East,86,0.0,3.1,40,0.00,,---,0.00,VWS V14.01,2013-07-12 16:37:00,
2013-07-12 12:38:00,74.0,48.2,30.03,ENE,62,3.1,3.1,40,0.00,,---,0.00,VWS V14.01,2013-07-12 16:38:00,
2013-07-12 12:39:00,74.0,48.8,30.03,NNW,337,3.1,4.9,41,0.00,,---,0.00,VWS V14.01,2013-07-12 16:39:00,
2013-07-12 12:40:00,75.4,50.8,30.03,ENE,61,5.4,5.4,42,0.00,,---,0.00,VWS V14.01,2013-07-12 16:40:00,
2013-07-12 12:41:00,74.4,50.4,30.03,NE,47,3.1,3.1,43,0.00,,---,0.00,VWS V14.01,2013-07-12 16:41:00,
2013-07-12 12:42:00,74.7,51.4,30.03,North,5,0.0,3.6,44,0.00,,---,0.00,VWS V14.01,2013-07-12 16:42:00,
2013-07-12 12:43:00,74.7,50.8,30.03,North,351,0.0,0.0,43,0.00,,---,0.00,VWS V14.01,2013-07-12 16:43:00,
2013-07-12 12:44:00,74.9,52.2,30.03,NW,318,3.1,3.6,45,0.00,,---,0.00,VWS V14.01,2013-07-12 16:44:00,
2013-07-12 12:45:00,75.6,50.3,30.03,NE,50,3.1,3.1,41,0.00,,---,0.00,VWS V14.01,2013-07-12 16:45:00,
2013-07-12 12:46:00,75.3,51.9,30.03,East,82,0.0,3.1,44,0.00,,---,0.00,VWS V14.01,2013-07-12 16:46:00,
2013-07-12 12:47:00,75.3,51.9,30.03,East,99,0.0,0.0,44,0.00,,---,0.00,VWS V14.01,2013-07-12 16:47:00,
2013-07-12 12:48:00,75.3,50.6,30.03,NNW,338,0.0,0.0,42,0.00,,---,0.00,VWS V14.01,2013-07-12 16:48:00,
2013-07-12 12:49:00,75.3,51.9,30.03,South,190,0.0,0.0,44,0.00,,---,0.00,VWS V14.01,2013-07-12 16:49:00,
2013-07-12 12:50:00,75.3,48.6,30.03,NE,51,4.0,4.0,39,0.00,,---,0.00,VWS V14.01,2013-07-12 16:50:00,
2013-07-12 12:51:00,75.1,50.5,30.03,North,7,0.0,4.5,42,0.00,,---,0.00,VWS V14.01,2013-07-12 16:51:00,
2013-07-12 12:52:00,75.3,52.5,30.03,NNE,27,0.0,0.0,45,0.00,,---,0.00,VWS V14.01,2013-07-12 16:52:00,
2013-07-12 12:53:00,75.4,51.4,30.03,NNW,333,3.1,4.0,43,0.00,,---,0.00,VWS V14.01,2013-07-12 16:53:00,
2013-07-12 12:54:00,75.4,52.0,30.03,NW,320,0.0,4.0,44,0.00,,---,0.00,VWS V14.01,2013-07-12 16:54:00,
2013-07-12 12:55:00,75.6,49.6,30.03,East,91,2.7,4.5,40,0.00,,---,0.00,VWS V14.01,2013-07-12 16:55:00,
2013-07-12 12:56:00,75.4,50.1,30.03,North,5,3.1,4.9,41,0.00,,---,0.00,VWS V14.01,2013-07-12 16:56:00,
2013-07-12 12:57:00,75.4,49.5,30.03,NNE,29,0.0,4.9,40,0.00,,---,0.00,VWS V14.01,2013-07-12 16:57:00,
2013-07-12 12:58:00,75.6,52.2,30.03,NNW,347,6.7,6.7,44,0.00,,---,0.00,VWS V14.01,2013-07-12 16:58:00,
2013-07-12 12:59:00,75.6,52.8,30.03,SW,214,0.0,6.7,45,0.00,,---,0.00,VWS V14.01,2013-07-12 16:59:00,
2013-07-12 13:00:00,75.3,47.9,30.03,East,92,3.1,6.7,38,0.00,,---,0.00,VWS V14.01,2013-07-12 17:00:00,
2013-07-12 13:01:00,75.6,51.6,30.03,NW,318,2.7,4.5,43,0.00,,---,0.00,VWS V14.01,2013-07-12 17:01:00,
2013-07-12 13:02:00,75.6,51.6,30.03,NNW,331,3.1,6.7,43,0.00,,---,0.00,VWS V14.01,2013-07-12 17:02:00,
2013-07-12 13:03:00,75.6,51.6,30.03,WNW,290,3.6,4.0,43,0.00,,---,0.00,VWS V14.01,2013-07-12 17:03:00,
2013-07-12 13:04:00,75.4,52.0,30.03,North,351,0.0,6.3,44,0.00,,---,0.00,VWS V14.01,2013-07-12 17:04:00,
2013-07-12 13:05:00,75.1,48.5,30.03,NE,56,5.4,7.4,39,0.00,,---,0.00,VWS V14.01,2013-07-12 17:05:00,
2013-07-12 13:06:00,75.3,51.9,30.03,North,351,0.0,4.0,44,0.00,,---,0.00,VWS V14.01,2013-07-12 17:06:00,
2013-07-12 13:07:00,75.3,51.9,30.03,NW,320,3.1,4.0,44,0.00,,---,0.00,VWS V14.01,2013-07-12 17:07:00,
2013-07-12 13:08:00,75.1,50.5,30.03,NNE,26,2.7,4.0,42,0.00,,---,0.00,VWS V14.01,2013-07-12 17:08:00,
2013-07-12 13:09:00,74.9,49.6,30.03,NNE,28,0.0,3.1,41,0.00,,---,0.00,VWS V14.01,2013-07-12 17:09:00,
2013-07-12 13:10:00,75.1,47.8,30.03,ENE,63,4.0,6.9,38,0.00,,---,0.00,VWS V14.01,2013-07-12 17:10:00,
2013-07-12 13:11:00,75.1,50.5,30.03,NE,48,0.0,2.7,42,0.00,,---,0.00,VWS V14.01,2013-07-12 17:11:00,
2013-07-12 13:12:00,75.4,49.5,30.03,North,5,2.7,3.6,40,0.00,,---,0.00,VWS V14.01,2013-07-12 17:12:00,
2013-07-12 13:13:00,74.9,50.3,30.03,NE,53,0.0,0.0,42,0.00,,---,0.00,VWS V14.01,2013-07-12 17:13:00,
2013-07-12 13:14:00,74.9,50.9,30.03,WNW,300,2.7,3.1,43,0.00,,---,0.00,VWS V14.01,2013-07-12 17:14:00,
2013-07-12 13:15:00,75.8,49.8,30.03,NE,50,5.4,5.4,40,0.00,,---,0.00,VWS V14.01,2013-07-12 17:15:00,
2013-07-12 13:16:00,74.9,49.6,30.03,NNE,28,4.5,4.9,41,0.00,,---,0.00,VWS V14.01,2013-07-12 17:16:00,
2013-07-12 13:17:00,74.7,48.8,30.03,NE,45,4.9,8.3,40,0.00,,---,0.00,VWS V14.01,2013-07-12 17:17:00,
2013-07-12 13:18:00,74.5,48.0,30.03,NNW,340,3.6,4.9,39,0.00,,---,0.00,VWS V14.01,2013-07-12 17:18:00,
2013-07-12 13:19:00,74.5,48.7,30.03,NE,49,4.0,4.9,40,0.00,,---,0.00,VWS V14.01,2013-07-12 17:19:00,
2013-07-12 13:20:00,74.4,47.8,30.03,NNE,15,2.7,7.4,39,0.00,,---,0.00,VWS V14.01,2013-07-12 17:20:00,
2013-07-12 13:21:00,75.8,49.8,30.03,NE,42,2.7,4.9,40,0.00,,---,0.00,VWS V14.01,2013-07-12 17:21:00,
2013-07-12 13:22:00,74.5,50.6,30.03,NE,45,4.9,4.9,43,0.00,,---,0.00,VWS V14.01,2013-07-12 17:22:00,
2013-07-12 13:23:00,74.5,48.7,30.03,NNE,31,4.5,6.7,40,0.00,,---,0.00,VWS V14.01,2013-07-12 17:23:00,
2013-07-12 13:24:00,74.7,49.5,30.03,NE,38,2.7,4.5,41,0.00,,---,0.00,VWS V14.01,2013-07-12 17:24:00,
2013-07-12 13:25:00,74.9,49.6,30.03,ENE,69,0.0,4.9,41,0.00,,---,0.00,VWS V14.01,2013-07-12 17:25:00,
2013-07-12 13:26:00,76.2,50.1,30.03,NNE,12,0.0,0.0,40,0.00,,---,0.00,VWS V14.01,2013-07-12 17:26:00,
2013-07-12 13:27:00,76.2,50.1,30.03,NE,46,3.1,3.6,40,0.00,,---,0.00,VWS V14.01,2013-07-12 17:27:00,
2013-07-12 13:28:00,75.4,50.8,30.03,NE,47,0.0,4.0,42,0.00,,---,0.00,VWS V14.01,2013-07-12 17:28:00,
2013-07-12 13:29:00,75.3,49.3,30.03,North,6,0.0,3.6,40,0.00,,---,0.00,VWS V14.01,2013-07-12 17:29:00,
2013-07-12 13:30:00,75.3,50.0,30.03,NE,56,3.6,4.5,41,0.00,,---,0.00,VWS V14.01,2013-07-12 17:30:00,
2013-07-12 13:31:00,76.3,50.3,30.03,NNE,33,3.6,4.0,40,0.00,,---,0.00,VWS V14.01,2013-07-12 17:31:00,
2013-07-12 13:32:00,75.3,51.2,30.03,WNW,299,3.6,4.5,43,0.00,,---,0.00,VWS V14.01,2013-07-12 17:32:00,
2013-07-12 13:33:00,75.3,50.6,30.03,NE,48,3.1,3.6,42,0.00,,---,0.00,VWS V14.01,2013-07-12 17:33:00,
2013-07-12 13:34:00,75.1,49.1,30.03,NNE,30,5.8,6.9,40,0.00,,---,0.00,VWS V14.01,2013-07-12 17:34:00,
2013-07-12 13:35:00,74.9,48.3,30.03,ENE,64,4.9,6.3,39,0.00,,---,0.00,VWS V14.01,2013-07-12 17:35:00,
2013-07-12 13:36:00,76.0,49.3,30.03,WNW,292,4.5,4.9,39,0.00,,---,0.00,VWS V14.01,2013-07-12 17:36:00,
2013-07-12 13:37:00,74.9,49.0,30.03,NW,309,0.0,0.0,40,0.00,,---,0.00,VWS V14.01,2013-07-12 17:37:00,
2013-07-12 13:38:00,74.9,49.0,30.03,NE,55,4.9,5.4,40,0.00,,---,0.00,VWS V14.01,2013-07-12 17:38:00,
2013-07-12 13:39:00,75.1,50.5,30.03,NNW,337,4.5,4.9,42,0.00,,---,0.00,VWS V14.01,2013-07-12 17:39:00,
2013-07-12 13:40:00,75.3,51.2,30.03,ENE,73,4.9,4.9,43,0.00,,---,0.00,VWS V14.01,2013-07-12 17:40:00,
2013-07-12 13:41:00,75.8,49.1,30.03,North,351,3.6,4.0,39,0.00,,---,0.00,VWS V14.01,2013-07-12 17:41:00,
2013-07-12 13:42:00,75.3,49.3,30.03,ENE,65,0.0,4.9,40,0.00,,---,0.00,VWS V14.01,2013-07-12 17:42:00,
2013-07-12 13:43:00,75.6,50.9,30.03,North,0,0.0,3.1,42,0.00,,---,0.00,VWS V14.01,2013-07-12 17:43:00,
2013-07-12 13:44:00,75.4,48.8,30.03,NW,312,2.7,4.5,39,0.00,,---,0.00,VWS V14.01,2013-07-12 17:44:00,
2013-07-12 13:45:00,75.6,50.3,30.03,NW,325,3.1,3.1,41,0.00,,---,0.00,VWS V14.01,2013-07-12 17:45:00,
2013-07-12 13:46:00,75.1,49.1,30.03,ENE,66,0.0,3.1,40,0.00,,---,0.00,VWS V14.01,2013-07-12 17:46:00,
2013-07-12 13:47:00,75.6,50.9,30.03,NE,45,5.8,5.8,42,0.00,,---,0.00,VWS V14.01,2013-07-12 17:47:00,
2013-07-12 13:48:00,75.4,48.8,30.03,NE,55,6.9,6.9,39,0.00,,---,0.00,VWS V14.01,2013-07-12 17:48:00,
2013-07-12 13:49:00,75.3,47.9,30.03,ENE,75,5.8,6.9,38,0.00,,---,0.00,VWS V14.01,2013-07-12 17:49:00,
2013-07-12 13:50:00,75.1,47.8,30.03,North,356,4.0,5.8,38,0.00,,---,0.00,VWS V14.01,2013-07-12 17:50:00,
2013-07-12 13:51:00,74.9,48.3,30.03,ENE,59,4.5,4.5,39,0.00,,---,0.00,VWS V14.01,2013-07-12 17:51:00,
2013-07-12 13:52:00,75.3,48.6,30.03,NE,45,5.4,7.4,39,0.00,,---,0.00,VWS V14.01,2013-07-12 17:52:00,
2013-07-12 13:53:00,75.4,48.8,30.03,WNW,295,0.0,5.4,39,0.00,,---,0.00,VWS V14.01,2013-07-12 17:53:00,
2013-07-12 13:54:00,75.6,48.9,30.03,NE,43,2.7,3.1,39,0.00,,---,0.00,VWS V14.01,2013-07-12 17:54:00,
2013-07-12 13:55:00,75.6,48.2,30.03,East,90,3.1,5.4,38,0.00,,---,0.00,VWS V14.01,2013-07-12 17:55:00,
2013-07-12 13:56:00,74.9,49.0,30.03,ENE,60,4.5,5.4,40,0.00,,---,0.00,VWS V14.01,2013-07-12 17:56:00,
2013-07-12 13:57:00,75.4,48.1,30.03,WNW,302,3.6,7.4,38,0.00,,---,0.00,VWS V14.01,2013-07-12 17:57:00,
2013-07-12 13:58:00,75.4,48.8,30.03,North,351,4.5,6.3,39,0.00,,---,0.00,VWS V14.01,2013-07-12 17:58:00,
2013-07-12 13:59:00,75.6,48.9,30.03,ENE,61,9.2,9.2,39,0.00,,---,0.00,VWS V14.01,2013-07-12 17:59:00,
2013-07-12 14:00:00,75.4,48.1,30.03,East,82,6.7,9.2,38,0.00,,---,0.00,VWS V14.01,2013-07-12 18:00:00,
2013-07-12 14:01:00,75.3,47.9,30.03,ENE,69,4.5,6.7,38,0.00,,---,0.00,VWS V14.01,2013-07-12 18:01:00,
2013-07-12 14:02:00,75.3,48.6,30.03,ENE,71,4.9,5.8,39,0.00,,---,0.00,VWS V14.01,2013-07-12 18:02:00,
2013-07-12 14:03:00,75.1,48.5,30.03,ENE,63,4.9,4.9,39,0.00,,---,0.00,VWS V14.01,2013-07-12 18:03:00,
2013-07-12 14:04:00,75.3,49.3,30.03,East,84,0.0,4.9,40,0.00,,---,0.00,VWS V14.01,2013-07-12 18:04:00,
2013-07-12 14:05:00,75.3,49.3,30.03,ENE,78,6.7,6.7,40,0.00,,---,0.00,VWS V14.01,2013-07-12 18:05:00,
2013-07-12 14:06:00,74.9,48.3,30.03,NE,44,4.9,7.4,39,0.00,,---,0.00,VWS V14.01,2013-07-12 18:06:00,
2013-07-12 14:07:00,75.6,48.2,30.03,NNE,14,2.7,6.3,38,0.00,,---,0.00,VWS V14.01,2013-07-12 18:07:00,
2013-07-12 14:08:00,75.1,49.1,30.03,ENE,72,0.0,4.9,40,0.00,,---,0.00,VWS V14.01,2013-07-12 18:08:00,
2013-07-12 14:09:00,75.3,49.3,30.03,WNW,297,2.7,6.7,40,0.00,,---,0.00,VWS V14.01,2013-07-12 18:09:00,
2013-07-12 14:10:00,75.3,48.6,30.03,NE,43,4.5,4.5,39,0.00,,---,0.00,VWS V14.01,2013-07-12 18:10:00,
2013-07-12 14:11:00,75.1,48.5,30.03,NE,54,2.7,6.9,39,0.00,,---,0.00,VWS V14.01,2013-07-12 18:11:00,
2013-07-12 14:12:00,76.5,49.0,30.03,NNE,14,5.8,6.9,38,0.00,,---,0.00,VWS V14.01,2013-07-12 18:12:00,
2013-07-12 14:13:00,75.6,49.6,30.03,North,356,3.6,4.9,40,0.00,,---,0.00,VWS V14.01,2013-07-12 18:13:00,
2013-07-12 14:14:00,75.6,50.3,30.03,North,351,0.0,4.0,41,0.00,,---,0.00,VWS V14.01,2013-07-12 18:14:00,
2013-07-12 14:15:00,75.6,49.6,30.03,NE,45,3.1,3.1,40,0.00,,---,0.00,VWS V14.01,2013-07-12 18:15:00,
2013-07-12 14:16:00,75.6,49.6,30.03,NE,43,4.5,6.7,40,0.00,,---,0.00,VWS V14.01,2013-07-12 18:16:00,
2013-07-12 14:17:00,76.2,48.0,30.03,NNE,18,3.1,6.7,37,0.00,,---,0.00,VWS V14.01,2013-07-12 18:17:00,
2013-07-12 14:18:00,75.4,48.1,30.03,NE,38,4.5,6.9,38,0.00,,---,0.00,VWS V14.01,2013-07-12 18:18:00,
2013-07-12 14:19:00,75.4,48.8,30.03,NW,320,0.0,4.5,39,0.00,,---,0.00,VWS V14.01,2013-07-12 18:19:00,
2013-07-12 14:20:00,75.6,49.6,30.03,North,11,4.0,5.4,40,0.00,,---,0.00,VWS V14.01,2013-07-12 18:20:00,
2013-07-12 14:21:00,75.8,49.8,30.03,NNE,17,4.9,6.9,40,0.00,,---,0.00,VWS V14.01,2013-07-12 18:21:00,
2013-07-12 14:22:00,76.2,48.7,30.03,East,82,0.0,0.0,38,0.00,,---,0.00,VWS V14.01,2013-07-12 18:22:00,
2013-07-12 14:23:00,76.0,48.6,30.03,NE,43,4.5,6.9,38,0.00,,---,0.00,VWS V14.01,2013-07-12 18:23:00,
2013-07-12 14:24:00,76.0,48.6,30.03,ENE,62,3.1,5.4,38,0.00,,---,0.00,VWS V14.01,2013-07-12 18:24:00,
2013-07-12 14:25:00,76.2,49.4,30.03,East,85,0.0,4.5,39,0.00,,---,0.00,VWS V14.01,2013-07-12 18:25:00,
2013-07-12 14:26:00,76.2,50.1,30.03,NE,43,0.0,3.6,40,0.00,,---,0.00,VWS V14.01,2013-07-12 18:26:00,
2013-07-12 14:27:00,76.2,50.1,30.03,NE,46,3.1,3.6,40,0.00,,---,0.00,VWS V14.01,2013-07-12 18:27:00,
2013-07-12 14:28:00,76.9,48.7,30.03,ENE,63,5.8,5.8,37,0.00,,---,0.00,VWS V14.01,2013-07-12 18:28:00,
2013-07-12 14:29:00,76.3,50.3,30.03,NW,316,0.0,5.8,40,0.00,,---,0.00,VWS V14.01,2013-07-12 18:29:00,
2013-07-12 14:30:00,76.2,50.1,30.03,NE,35,2.7,4.9,40,0.00,,---,0.00,VWS V14.01,2013-07-12 18:30:00,
2013-07-12 14:31:00,76.2,50.1,30.03,North,356,4.0,5.4,40,0.00,,---,0.00,VWS V14.01,2013-07-12 18:31:00,
2013-07-12 14:32:00,76.3,50.3,30.03,North,351,3.6,4.0,40,0.00,,---,0.00,VWS V14.01,2013-07-12 18:32:00,
2013-07-12 14:33:00,78.1,49.8,30.03,ENE,60,5.4,6.3,37,0.00,,---,0.00,VWS V14.01,2013-07-12 18:33:00,
2013-07-12 14:34:00,76.2,48.7,30.03,NE,48,5.4,8.3,38,0.00,,---,0.00,VWS V14.01,2013-07-12 18:34:00,
2013-07-12 14:35:00,76.0,48.6,30.03,NE,39,5.8,5.8,38,0.00,,---,0.00,VWS V14.01,2013-07-12 18:35:00,
2013-07-12 14:36:00,75.8,48.4,30.03,NNE,20,4.9,6.3,38,0.00,,---,0.00,VWS V14.01,2013-07-12 18:36:00,
2013-07-12 14:37:00,75.8,49.1,30.03,NNE,31,3.6,5.8,39,0.00,,---,0.00,VWS V14.01,2013-07-12 18:37:00,
2013-07-12 14:38:00,75.6,48.2,30.03,NNE,14,0.0,4.9,38,0.00,,---,0.00,VWS V14.01,2013-07-12 18:38:00,
2013-07-12 14:39:00,78.0,50.3,30.03,SSE,154,3.6,5.4,38,0.00,,---,0.00,VWS V14.01,2013-07-12 18:39:00,
2013-07-12 14:40:00,75.6,48.2,30.03,NE,52,2.7,3.6,38,0.00,,---,0.00,VWS V14.01,2013-07-12 18:40:00,
2013-07-12 14:41:00,75.8,49.1,30.03,North,5,4.0,4.0,39,0.00,,---,0.00,VWS V14.01,2013-07-12 18:41:00,
2013-07-12 14:42:00,75.6,48.2,30.03,ENE,64,6.3,6.3,38,0.00,,---,0.00,VWS V14.01,2013-07-12 18:42:00,
2013-07-12 14:43:00,75.4,47.4,30.03,NE,53,4.0,6.3,37,0.00,,---,0.00,VWS V14.01,2013-07-12 18:43:00,
2013-07-12 14:44:00,76.5,49.0,30.03,NE,49,4.5,5.4,38,0.00,,---,0.00,VWS V14.01,2013-07-12 18:44:00,
2013-07-12 14:45:00,75.1,48.5,30.03,ENE,59,3.1,4.5,39,0.00,,---,0.00,VWS V14.01,2013-07-12 18:45:00,
2013-07-12 14:46:00,75.1,48.5,30.03,ENE,66,3.1,4.0,39,0.00,,---,0.00,VWS V14.01,2013-07-12 18:46:00,
2013-07-12 14:47:00,74.9,48.3,30.03,East,92,3.6,6.7,39,0.00,,---,0.00,VWS V14.01,2013-07-12 18:47:00,
2013-07-12 14:48:00,74.9,49.0,30.03,NE,54,4.0,4.0,40,0.00,,---,0.00,VWS V14.01,2013-07-12 18:48:00,
2013-07-12 14:49:00,76.5,49.0,30.03,NE,47,4.0,5.8,38,0.00,,---,0.00,VWS V14.01,2013-07-12 18:49:00,
2013-07-12 14:50:00,74.9,48.3,30.03,East,84,5.8,6.3,39,0.00,,---,0.00,VWS V14.01,2013-07-12 18:50:00,
2013-07-12 14:51:00,74.9,48.3,30.03,NNE,19,3.1,8.3,39,0.00,,---,0.00,VWS V14.01,2013-07-12 18:51:00,
2013-07-12 14:52:00,74.9,47.6,30.03,ENE,58,4.0,4.9,38,0.00,,---,0.00,VWS V14.01,2013-07-12 18:52:00,
2013-07-12 14:53:00,75.1,47.8,30.03,NNE,16,0.0,4.5,38,0.00,,---,0.00,VWS V14.01,2013-07-12 18:53:00,
2013-07-12 14:54:00,76.7,49.2,30.03,East,99,4.0,4.0,38,0.00,,---,0.00,VWS V14.01,2013-07-12 18:54:00,
2013-07-12 14:55:00,75.1,48.5,30.03,NE,56,4.5,5.8,39,0.00,,---,0.00,VWS V14.01,2013-07-12 18:55:00,
2013-07-12 14:56:00,74.9,47.6,30.03,NE,46,2.7,4.5,38,0.00,,---,0.00,VWS V14.01,2013-07-12 18:56:00,
2013-07-12 14:57:00,74.9,49.0,30.03,ENE,60,5.8,5.8,40,0.00,,---,0.00,VWS V14.01,2013-07-12 18:57:00,
2013-07-12 14:58:00,74.5,48.0,30.03,ENE,76,5.4,5.8,39,0.00,,---,0.00,VWS V14.01,2013-07-12 18:58:00,
2013-07-12 14:59:00,75.6,47.5,30.03,NE,53,6.7,7.8,37,0.00,,---,0.00,VWS V14.01,2013-07-12 18:59:00,
2013-07-12 15:00:00,74.7,48.1,30.03,NE,55,2.7,4.9,39,0.00,,---,0.00,VWS V14.01,2013-07-12 19:00:00,
2013-07-12 15:01:00,75.1,49.1,30.03,NNE,24,2.7,3.6,40,0.00,,---,0.00,VWS V14.01,2013-07-12 19:01:00,
2013-07-12 15:02:00,75.3,48.6,30.03,ENE,71,4.9,5.8,39,0.00,,---,0.00,VWS V14.01,2013-07-12 19:02:00,
2013-07-12 15:03:00,75.1,47.8,30.03,NE,46,4.9,5.8,38,0.00,,---,0.00,VWS V14.01,2013-07-12 19:03:00,
2013-07-12 15:04:00,75.6,48.2,30.03,NE,46,6.7,6.7,38,0.00,,---,0.00,VWS V14.01,2013-07-12 19:04:00,
2013-07-12 15:05:00,75.3,47.9,30.03,NE,56,3.6,4.5,38,0.00,,---,0.00,VWS V14.01,2013-07-12 19:05:00,
2013-07-12 15:06:00,75.4,48.1,30.03,NNE,32,2.7,4.9,38,0.00,,---,0.00,VWS V14.01,2013-07-12 19:06:00,
2013-07-12 15:07:00,75.6,48.2,30.03,NNE,14,2.7,6.3,38,0.00,,---,0.00,VWS V14.01,2013-07-12 19:07:00,
2013-07-12 15:08:00,75.8,49.1,30.03,NNE,30,0.0,3.6,39,0.00,,---,0.00,VWS V14.01,2013-07-12 19:08:00,
2013-07-12 15:09:00,75.6,48.2,30.03,ENE,71,4.9,5.4,38,0.00,,---,0.00,VWS V14.01,2013-07-12 19:09:00,
2013-07-12 15:10:00,76.3,48.9,30.03,ENE,76,6.7,6.7,38,0.00,,---,0.00,VWS V14.01,2013-07-12 19:10:00,
2013-07-12 15:11:00,76.3,48.9,30.03,NE,50,5.4,6.9,38,0.00,,---,0.00,VWS V14.01,2013-07-12 19:11:00,
2013-07-12 15:12:00,76.5,49.0,30.03,NNE,14,5.8,6.9,38,0.00,,---,0.00,VWS V14.01,2013-07-12 19:12:00,
2013-07-12 15:13:00,76.3,48.2,30.03,NE,48,4.0,6.7,37,0.00,,---,0.00,VWS V14.01,2013-07-12 19:13:00,
2013-07-12 15:14:00,76.0,48.6,30.03,ENE,61,5.4,6.7,38,0.00,,---,0.00,VWS V14.01,2013-07-12 19:14:00,
2013-07-12 15:15:00,76.3,48.2,30.03,NE,42,5.8,6.9,37,0.00,,---,0.00,VWS V14.01,2013-07-12 19:15:00,
2013-07-12 15:16:00,76.2,48.0,30.03,ENE,58,6.7,7.8,37,0.00,,---,0.00,VWS V14.01,2013-07-12 19:16:00,
2013-07-12 15:17:00,76.2,48.0,30.03,NE,49,3.1,6.7,37,0.00,,---,0.00,VWS V14.01,2013-07-12 19:17:00,
2013-07-12 15:18:00,76.2,48.0,30.03,ENE,59,4.5,6.7,37,0.00,,---,0.00,VWS V14.01,2013-07-12 19:18:00,
2013-07-12 15:19:00,76.3,48.9,30.03,ENE,73,4.0,4.0,38,0.00,,---,0.00,VWS V14.01,2013-07-12 19:19:00,
2013-07-12 15:20:00,76.2,49.4,30.03,NE,56,3.1,4.0,39,0.00,,---,0.00,VWS V14.01,2013-07-12 19:20:00,
2013-07-12 15:21:00,76.2,49.4,30.03,ENE,58,4.5,5.8,39,0.00,,---,0.00,VWS V14.01,2013-07-12 19:21:00,
2013-07-12 15:22:00,76.2,48.7,30.03,East,82,0.0,4.5,38,0.00,,---,0.00,VWS V14.01,2013-07-12 19:22:00,
2013-07-12 15:23:00,76.2,48.7,30.03,NE,56,0.0,0.0,38,0.00,,---,0.00,VWS V14.01,2013-07-12 19:23:00,
2013-07-12 15:24:00,76.0,49.3,30.03,NE,42,4.0,4.0,39,0.00,,---,0.00,VWS V14.01,2013-07-12 19:24:00,
2013-07-12 15:25:00,76.3,49.6,30.03,NE,53,3.6,4.9,39,0.00,,---,0.00,VWS V14.01,2013-07-12 19:25:00,
2013-07-12 15:26:00,76.5,49.0,30.03,NNE,15,2.7,4.5,38,0.00,,---,0.00,VWS V14.01,2013-07-12 19:26:00,
2013-07-12 15:27:00,76.7,49.2,30.03,NNE,27,2.7,4.5,38,0.00,,---,0.00,VWS V14.01,2013-07-12 19:27:00,
2013-07-12 15:28:00,76.9,48.7,30.03,NE,50,4.5,4.5,37,0.00,,---,0.00,VWS V14.01,2013-07-12 19:28:00,
2013-07-12 15:29:00,76.0,48.6,30.03,NE,43,4.0,5.8,38,0.00,,---,0.00,VWS V14.01,2013-07-12 19:29:00,
2013-07-12 15:30:00,77.2,49.7,30.03,NE,34,4.0,4.5,38,0.00,,---,0.00,VWS V14.01,2013-07-12 19:30:00,
2013-07-12 15:31:00,77.6,50.0,30.03,NE,37,4.5,6.3,38,0.00,,---,0.00,VWS V14.01,2013-07-12 19:31:00,
2013-07-12 15:32:00,77.8,49.5,30.03,NE,46,3.6,6.3,37,0.00,,---,0.00,VWS V14.01,2013-07-12 19:32:00,
2013-07-12 15:33:00,78.1,50.5,30.03,NE,53,3.1,4.9,38,0.00,,---,0.00,VWS V14.01,2013-07-12 19:33:00,
2013-07-12 15:34:00,76.0,48.6,30.03,ENE,77,3.1,4.0,38,0.00,,---,0.00,VWS V14.01,2013-07-12 19:34:00,
2013-07-12 15:35:00,77.8,48.7,30.03,NNE,33,2.7,6.7,36,0.00,,---,0.00,VWS V14.01,2013-07-12 19:35:00,
2013-07-12 15:36:00,77.8,49.5,30.03,NNW,330,0.0,4.0,37,0.00,,---,0.00,VWS V14.01,2013-07-12 19:36:00,
2013-07-12 15:37:00,78.1,51.2,30.03,NNW,331,3.1,3.6,39,0.00,,---,0.00,VWS V14.01,2013-07-12 19:37:00,
2013-07-12 15:38:00,78.0,49.6,30.03,ENE,57,3.1,6.3,37,0.00,,---,0.00,VWS V14.01,2013-07-12 19:38:00,
2013-07-12 15:39:00,76.2,48.7,30.03,ENE,58,4.0,6.3,38,0.00,,---,0.00,VWS V14.01,2013-07-12 19:39:00,
2013-07-12 15:40:00,77.8,49.5,30.03,ENE,64,5.4,6.9,37,0.00,,---,0.00,VWS V14.01,2013-07-12 19:40:00,
2013-07-12 15:41:00,77.4,48.4,30.03,ENE,69,3.6,6.9,36,0.00,,---,0.00,VWS V14.01,2013-07-12 19:41:00,
2013-07-12 15:42:00,76.9,47.9,30.03,NE,43,5.8,6.3,36,0.00,,---,0.00,VWS V14.01,2013-07-12 19:42:00,
2013-07-12 15:43:00,76.7,48.5,30.03,East,85,2.7,5.8,37,0.00,,---,0.00,VWS V14.01,2013-07-12 19:43:00,
2013-07-12 15:44:00,76.5,49.0,30.03,ENE,69,4.5,5.8,38,0.00,,---,0.00,VWS V14.01,2013-07-12 19:44:00,
2013-07-12 15:45:00,76.3,48.9,30.03,ENE,61,2.7,4.9,38,0.00,,---,0.00,VWS V14.01,2013-07-12 19:45:00,
2013-07-12 15:46:00,76.2,48.7,30.03,ENE,67,4.0,6.9,38,0.00,,---,0.00,VWS V14.01,2013-07-12 19:46:00,
2013-07-12 15:47:00,76.3,49.6,30.03,NNE,33,2.7,4.5,39,0.00,,---,0.00,VWS V14.01,2013-07-12 19:47:00,
2013-07-12 15:48:00,76.5,49.8,30.03,ENE,65,5.8,5.8,39,0.00,,---,0.00,VWS V14.01,2013-07-12 19:48:00,
2013-07-12 15:49:00,76.5,49.0,30.03,NE,46,3.1,5.8,38,0.00,,---,0.00,VWS V14.01,2013-07-12 19:49:00,
2013-07-12 15:50:00,76.7,49.9,30.03,NNE,14,3.1,4.5,39,0.00,,---,0.00,VWS V14.01,2013-07-12 19:50:00,
2013-07-12 15:51:00,76.7,49.2,30.03,NE,37,5.8,6.3,38,0.00,,---,0.00,VWS V14.01,2013-07-12 19:51:00,
2013-07-12 15:52:00,76.7,49.2,30.03,NE,51,3.1,6.3,38,0.00,,---,0.00,VWS V14.01,2013-07-12 19:52:00,
2013-07-12 15:53:00,76.7,49.2,30.03,ENE,61,3.1,4.5,38,0.00,,---,0.00,VWS V14.01,2013-07-12 19:53:00,
2013-07-12 15:54:00,76.3,48.2,30.00,ENE,73,4.5,4.9,37,0.00,,---,0.00,VWS V14.01,2013-07-12 19:54:00,
2013-07-12 15:55:00,76.3,48.9,30.03,ENE,60,4.9,6.3,38,0.00,,---,0.00,VWS V14.01,2013-07-12 19:55:00,
2013-07-12 15:56:00,76.0,48.6,30.03,NE,35,6.3,8.3,38,0.00,,---,0.00,VWS V14.01,2013-07-12 19:56:00,
2013-07-12 15:57:00,75.8,48.4,30.03,NE,55,4.9,6.3,38,0.00,,---,0.00,VWS V14.01,2013-07-12 19:57:00,
2013-07-12 15:58:00,76.0,48.6,30.00,NE,52,0.0,3.1,38,0.00,,---,0.00,VWS V14.01,2013-07-12 19:58:00,
2013-07-12 15:59:00,76.0,49.3,30.00,ENE,71,0.0,0.0,39,0.00,,---,0.00,VWS V14.01,2013-07-12 19:59:00,
2013-07-12 16:00:00,75.6,47.5,30.03,NE,44,5.8,7.4,37,0.00,,---,0.00,VWS V14.01,2013-07-12 20:00:00,
2013-07-12 16:01:00,75.6,48.2,30.03,ENE,71,4.5,6.9,38,0.00,,---,0.00,VWS V14.01,2013-07-12 20:01:00,
2013-07-12 16:02:00,75.8,49.1,30.03,NE,47,4.5,6.3,39,0.00,,---,0.00,VWS V14.01,2013-07-12 20:02:00,
2013-07-12 16:03:00,75.8,48.4,30.03,ENE,72,5.4,6.9,38,0.00,,---,0.00,VWS V14.01,2013-07-12 20:03:00,
2013-07-12 16:04:00,75.6,48.9,30.00,NE,51,0.0,0.0,39,0.00,,---,0.00,VWS V14.01,2013-07-12 20:04:00,
2013-07-12 16:05:00,75.6,48.2,30.03,NNE,27,2.7,6.7,38,0.00,,---,0.00,VWS V14.01,2013-07-12 20:05:00,
2013-07-12 16:06:00,75.6,48.9,30.03,NE,56,4.9,4.9,39,0.00,,---,0.00,VWS V14.01,2013-07-12 20:06:00,
2013-07-12 16:07:00,75.8,48.4,30.03,ENE,63,6.3,6.7,38,0.00,,---,0.00,VWS V14.01,2013-07-12 20:07:00,
2013-07-12 16:08:00,75.6,47.5,30.03,NE,49,3.6,8.7,37,0.00,,---,0.00,VWS V14.01,2013-07-12 20:08:00,
2013-07-12 16:09:00,75.6,49.6,30.00,NE,45,2.7,6.3,40,0.00,,---,0.00,VWS V14.01,2013-07-12 20:09:00,
2013-07-12 16:10:00,75.6,48.2,30.03,NE,41,0.0,4.9,38,0.00,,---,0.00,VWS V14.01,2013-07-12 20:10:00,
2013-07-12 16:11:00,75.8,48.4,30.03,NE,55,4.5,6.9,38,0.00,,---,0.00,VWS V14.01,2013-07-12 20:11:00,
2013-07-12 16:12:00,76.0,48.6,30.03,NNE,31,4.9,6.7,38,0.00,,---,0.00,VWS V14.01,2013-07-12 20:12:00,
2013-07-12 16:13:00,76.0,48.6,30.03,NE,44,6.7,10.5,38,0.00,,---,0.00,VWS V14.01,2013-07-12 20:13:00,
2013-07-12 16:14:00,76.0,48.6,30.03,ENE,61,5.4,6.7,38,0.00,,---,0.00,VWS V14.01,2013-07-12 20:14:00,
2013-07-12 16:15:00,75.8,49.1,30.00,NE,42,3.1,6.3,39,0.00,,---,0.00,VWS V14.01,2013-07-12 20:15:00,
2013-07-12 16:16:00,76.0,47.9,30.03,NE,44,4.9,6.3,37,0.00,,---,0.00,VWS V14.01,2013-07-12 20:16:00,
2013-07-12 16:17:00,76.2,48.7,30.03,NNE,29,3.6,6.7,38,0.00,,---,0.00,VWS V14.01,2013-07-12 20:17:00,
2013-07-12 16:18:00,76.3,48.9,30.03,NE,51,3.6,4.5,38,0.00,,---,0.00,VWS V14.01,2013-07-12 20:18:00,
2013-07-12 16:19:00,76.3,48.9,30.03,ENE,73,4.0,4.0,38,0.00,,---,0.00,VWS V14.01,2013-07-12 20:19:00,
2013-07-12 16:20:00,76.0,49.3,30.00,NNE,25,0.0,4.9,39,0.00,,---,0.00,VWS V14.01,2013-07-12 20:20:00,
2013-07-12 16:21:00,76.2,48.0,30.03,NE,37,4.0,6.9,37,0.00,,---,0.00,VWS V14.01,2013-07-12 20:21:00,
2013-07-12 16:22:00,76.0,48.6,30.03,ENE,59,4.5,5.4,38,0.00,,---,0.00,VWS V14.01,2013-07-12 20:22:00,
2013-07-12 16:23:00,76.0,49.3,30.03,ENE,57,2.7,4.5,39,0.00,,---,0.00,VWS V14.01,2013-07-12 20:23:00,
2013-07-12 16:24:00,76.0,49.3,30.03,NE,42,4.0,5.8,39,0.00,,---,0.00,VWS V14.01,2013-07-12 20:24:00,
2013-07-12 16:25:00,75.8,50.5,30.00,ENE,59,3.1,4.9,41,0.00,,---,0.00,VWS V14.01,2013-07-12 20:25:00,
2013-07-12 16:26:00,75.8,48.4,30.03,NE,53,4.9,5.4,38,0.00,,---,0.00,VWS V14.01,2013-07-12 20:26:00,
2013-07-12 16:27:00,76.0,49.3,30.03,ENE,62,4.9,6.7,39,0.00,,---,0.00,VWS V14.01,2013-07-12 20:27:00,
2013-07-12 16:28:00,76.0,48.6,30.03,ENE,68,4.5,8.7,38,0.00,,---,0.00,VWS V14.01,2013-07-12 20:28:00,
2013-07-12 16:29:00,76.0,48.6,30.03,NE,43,4.0,5.8,38,0.00,,---,0.00,VWS V14.01,2013-07-12 20:29:00,
2013-07-12 16:30:00,76.0,49.9,30.00,ENE,62,5.8,8.3,40,0.00,,---,0.00,VWS V14.01,2013-07-12 20:30:00,
2013-07-12 16:31:00,76.2,48.7,30.03,North,351,0.0,4.9,38,0.00,,---,0.00,VWS V14.01,2013-07-12 20:31:00,
2013-07-12 16:32:00,76.2,48.7,30.03,NNE,19,4.0,4.5,38,0.00,,---,0.00,VWS V14.01,2013-07-12 20:32:00,
2013-07-12 16:33:00,76.0,47.9,30.03,ENE,59,3.1,6.3,37,0.00,,---,0.00,VWS V14.01,2013-07-12 20:33:00,
2013-07-12 16:34:00,76.0,48.6,30.03,ENE,77,3.1,4.0,38,0.00,,---,0.00,VWS V14.01,2013-07-12 20:34:00,
2013-07-12 16:35:00,76.0,50.6,30.00,NE,42,3.1,3.1,41,0.00,,---,0.00,VWS V14.01,2013-07-12 20:35:00,
2013-07-12 16:36:00,76.0,48.6,30.03,East,90,4.9,5.8,38,0.00,,---,0.00,VWS V14.01,2013-07-12 20:36:00,
2013-07-12 16:37:00,76.0,48.6,30.03,NNW,340,4.0,6.9,38,0.00,,---,0.00,VWS V14.01,2013-07-12 20:37:00,
2013-07-12 16:38:00,76.0,48.6,30.03,NNW,343,3.6,4.5,38,0.00,,---,0.00,VWS V14.01,2013-07-12 20:38:00,
2013-07-12 16:39:00,76.2,48.7,30.03,ENE,58,4.0,6.3,38,0.00,,---,0.00,VWS V14.01,2013-07-12 20:39:00,
2013-07-12 16:40:00,75.8,49.1,30.00,ENE,58,4.0,4.9,39,0.00,,---,0.00,VWS V14.01,2013-07-12 20:40:00,
2013-07-12 16:41:00,76.3,48.9,30.03,ENE,65,4.0,6.3,38,0.00,,---,0.00,VWS V14.01,2013-07-12 20:41:00,
2013-07-12 16:42:00,76.3,48.9,30.03,NE,37,0.0,4.9,38,0.00,,---,0.00,VWS V14.01,2013-07-12 20:42:00,
2013-07-12 16:43:00,76.3,48.9,30.03,NNW,329,3.1,4.9,38,0.00,,---,0.00,VWS V14.01,2013-07-12 20:43:00,
2013-07-12 16:44:00,76.5,49.0,30.03,ENE,69,4.5,5.8,38,0.00,,---,0.00,VWS V14.01,2013-07-12 20:44:00,
2013-07-12 16:45:00,75.6,50.3,30.00,NE,43,3.6,4.0,41,0.00,,---,0.00,VWS V14.01,2013-07-12 20:45:00,
2013-07-12 16:46:00,76.5,49.0,30.03,North,351,7.4,7.4,38,0.00,,---,0.00,VWS V14.01,2013-07-12 20:46:00,
2013-07-12 16:47:00,76.5,49.0,30.03,North,351,4.5,7.4,38,0.00,,---,0.00,VWS V14.01,2013-07-12 20:47:00,
2013-07-12 16:48:00,76.5,49.0,30.03,NE,43,5.4,5.8,38,0.00,,---,0.00,VWS V14.01,2013-07-12 20:48:00,
2013-07-12 16:49:00,76.5,49.0,30.03,NE,46,3.1,5.8,38,0.00,,---,0.00,VWS V14.01,2013-07-12 20:49:00,
2013-07-12 16:50:00,75.4,50.8,30.00,NNE,29,0.0,2.7,42,0.00,,---,0.00,VWS V14.01,2013-07-12 20:50:00,
2013-07-12 16:51:00,76.5,48.3,30.00,NE,38,3.6,6.3,37,0.00,,---,0.00,VWS V14.01,2013-07-12 20:51:00,
2013-07-12 16:52:00,76.5,49.0,30.00,NE,36,4.0,5.4,38,0.00,,---,0.00,VWS V14.01,2013-07-12 20:52:00,
2013-07-12 16:53:00,76.5,48.3,30.00,NE,44,4.5,5.8,37,0.00,,---,0.00,VWS V14.01,2013-07-12 20:53:00,
2013-07-12 16:54:00,76.3,48.2,30.00,NE,43,4.5,7.4,37,0.00,,---,0.00,VWS V14.01,2013-07-12 20:54:00,
2013-07-12 16:55:00,75.6,50.9,30.00,NE,43,4.0,5.8,42,0.00,,---,0.00,VWS V14.01,2013-07-12 20:55:00,
2013-07-12 16:56:00,76.2,48.7,30.00,ENE,63,3.6,3.6,38,0.00,,---,0.00,VWS V14.01,2013-07-12 20:56:00,
2013-07-12 16:57:00,76.0,48.6,30.00,ENE,60,3.1,5.4,38,0.00,,---,0.00,VWS V14.01,2013-07-12 20:57:00,
2013-07-12 16:58:00,75.4,50.1,30.00,NE,53,4.0,5.4,41,0.00,,---,0.00,VWS V14.01,2013-07-12 20:58:00,
2013-07-12 16:59:00,76.0,49.3,30.00,ENE,71,0.0,4.0,39,0.00,,---,0.00,VWS V14.01,2013-07-12 20:59:00,
2013-07-12 17:00:00,75.3,50.6,30.00,NNE,33,2.7,3.6,42,0.00,,---,0.00,VWS V14.01,2013-07-12 21:00:00,
2013-07-12 17:01:00,76.0,49.3,30.00,NE,49,4.5,4.5,39,0.00,,---,0.00,VWS V14.01,2013-07-12 21:01:00,
2013-07-12 17:02:00,75.8,49.1,30.00,ENE,70,0.0,4.9,39,0.00,,---,0.00,VWS V14.01,2013-07-12 21:02:00,
2013-07-12 17:03:00,75.8,49.1,30.00,NE,43,4.9,5.8,39,0.00,,---,0.00,VWS V14.01,2013-07-12 21:03:00,
2013-07-12 17:04:00,75.6,48.9,30.00,NE,49,0.0,5.4,39,0.00,,---,0.00,VWS V14.01,2013-07-12 21:04:00,
2013-07-12 17:05:00,74.9,50.3,30.00,ENE,65,3.1,4.0,42,0.00,,---,0.00,VWS V14.01,2013-07-12 21:05:00,
2013-07-12 17:06:00,75.4,49.5,30.00,ENE,69,3.6,4.9,40,0.00,,---,0.00,VWS V14.01,2013-07-12 21:06:00,
2013-07-12 17:07:00,75.4,49.5,30.00,ESE,117,3.6,4.0,40,0.00,,---,0.00,VWS V14.01,2013-07-12 21:07:00,
2013-07-12 17:08:00,75.3,49.3,30.00,NE,36,4.9,4.9,40,0.00,,---,0.00,VWS V14.01,2013-07-12 21:08:00,
2013-07-12 17:09:00,74.9,50.3,30.00,NNE,32,4.5,5.4,42,0.00,,---,0.00,VWS V14.01,2013-07-12 21:09:00,
2013-07-12 17:10:00,75.6,49.6,30.00,NE,40,3.6,6.3,40,0.00,,---,0.00,VWS V14.01,2013-07-12 21:10:00,
2013-07-12 17:11:00,74.9,49.6,30.00,NNE,33,3.6,4.0,41,0.00,,---,0.00,VWS V14.01,2013-07-12 21:11:00,
2013-07-12 17:12:00,75.8,49.1,30.00,NE,35,3.1,5.8,39,0.00,,---,0.00,VWS V14.01,2013-07-12 21:12:00,
2013-07-12 17:13:00,75.8,48.4,30.00,NE,35,4.5,5.8,38,0.00,,---,0.00,VWS V14.01,2013-07-12 21:13:00,
2013-07-12 17:14:00,75.8,49.1,30.00,North,10,4.0,4.9,39,0.00,,---,0.00,VWS V14.01,2013-07-12 21:14:00,
2013-07-12 17:15:00,75.8,49.1,30.00,NE,42,3.1,6.3,39,0.00,,---,0.00,VWS V14.01,2013-07-12 21:15:00,
2013-07-12 17:16:00,74.9,49.6,30.00,NNE,30,6.3,6.7,41,0.00,,---,0.00,VWS V14.01,2013-07-12 21:16:00,
2013-07-12 17:17:00,76.0,49.3,30.00,NE,39,3.1,5.4,39,0.00,,---,0.00,VWS V14.01,2013-07-12 21:17:00,
2013-07-12 17:18:00,76.0,49.9,30.00,North,10,4.5,4.9,40,0.00,,---,0.00,VWS V14.01,2013-07-12 21:18:00,
2013-07-12 17:19:00,76.0,49.9,30.00,ENE,75,4.0,5.4,40,0.00,,---,0.00,VWS V14.01,2013-07-12 21:19:00,
2013-07-12 17:20:00,76.0,49.3,30.00,NNE,25,0.0,4.9,39,0.00,,---,0.00,VWS V14.01,2013-07-12 21:20:00,
2013-07-12 17:21:00,74.7,48.8,30.00,ENE,66,8.7,8.7,40,0.00,,---,0.00,VWS V14.01,2013-07-12 21:21:00,
2013-07-12 17:22:00,76.0,50.6,30.00,NE,54,5.4,5.4,41,0.00,,---,0.00,VWS V14.01,2013-07-12 21:22:00,
2013-07-12 17:23:00,75.8,49.8,30.00,NE,42,3.6,6.3,40,0.00,,---,0.00,VWS V14.01,2013-07-12 21:23:00,
2013-07-12 17:24:00,75.8,49.8,30.00,NE,42,4.0,4.5,40,0.00,,---,0.00,VWS V14.01,2013-07-12 21:24:00,
2013-07-12 17:25:00,75.8,50.5,30.00,ENE,59,3.1,4.9,41,0.00,,---,0.00,VWS V14.01,2013-07-12 21:25:00,
2013-07-12 17:26:00,74.5,48.7,30.00,NE,39,4.5,5.8,40,0.00,,---,0.00,VWS V14.01,2013-07-12 21:26:00,
2013-07-12 17:27:00,75.8,50.5,30.00,ENE,64,3.6,3.6,41,0.00,,---,0.00,VWS V14.01,2013-07-12 21:27:00,
2013-07-12 17:28:00,76.0,50.6,30.00,NE,48,4.0,4.0,41,0.00,,---,0.00,VWS V14.01,2013-07-12 21:28:00,
2013-07-12 17:29:00,76.0,50.6,30.00,East,84,4.9,6.9,41,0.00,,---,0.00,VWS V14.01,2013-07-12 21:29:00,
2013-07-12 17:30:00,76.0,49.9,30.00,NE,51,6.3,6.3,40,0.00,,---,0.00,VWS V14.01,2013-07-12 21:30:00,
2013-07-12 17:31:00,74.7,49.5,30.00,NW,319,3.1,3.1,41,0.00,,---,0.00,VWS V14.01,2013-07-12 21:31:00,
2013-07-12 17:32:00,75.8,49.8,30.00,North,356,5.4,6.9,40,0.00,,---,0.00,VWS V14.01,2013-07-12 21:32:00,
2013-07-12 17:33:00,75.8,49.8,30.00,NE,38,3.6,5.4,40,0.00,,---,0.00,VWS V14.01,2013-07-12 21:33:00,
2013-07-12 17:34:00,75.8,49.8,30.00,NE,45,2.7,6.7,40,0.00,,---,0.00,VWS V14.01,2013-07-12 21:34:00,
2013-07-12 17:35:00,76.0,50.6,30.00,NW,322,2.7,4.0,41,0.00,,---,0.00,VWS V14.01,2013-07-12 21:35:00,
2013-07-12 17:36:00,74.4,49.8,30.00,ENE,72,0.0,2.7,42,0.00,,---,0.00,VWS V14.01,2013-07-12 21:36:00,
2013-07-12 17:37:00,76.0,49.9,30.00,NE,46,0.0,4.5,40,0.00,,---,0.00,VWS V14.01,2013-07-12 21:37:00,
2013-07-12 17:38:00,76.0,50.6,30.00,NE,55,5.8,5.8,41,0.00,,---,0.00,VWS V14.01,2013-07-12 21:38:00,
2013-07-12 17:39:00,76.0,50.6,30.00,NE,42,4.5,5.8,41,0.00,,---,0.00,VWS V14.01,2013-07-12 21:39:00,
2013-07-12 17:40:00,75.8,49.1,30.00,NNE,23,4.9,6.3,39,0.00,,---,0.00,VWS V14.01,2013-07-12 21:40:00,
2013-07-12 17:41:00,75.6,48.9,30.00,NE,52,4.5,6.3,39,0.00,,---,0.00,VWS V14.01,2013-07-12 21:41:00,
2013-07-12 17:42:00,74.5,50.6,30.00,ENE,69,4.5,6.7,43,0.00,,---,0.00,VWS V14.01,2013-07-12 21:42:00,
2013-07-12 17:43:00,75.6,50.3,30.00,North,2,2.7,4.9,41,0.00,,---,0.00,VWS V14.01,2013-07-12 21:43:00,
2013-07-12 17:44:00,75.6,50.3,30.00,ENE,63,3.6,4.9,41,0.00,,---,0.00,VWS V14.01,2013-07-12 21:44:00,
2013-07-12 17:45:00,75.6,50.3,30.00,ENE,60,4.0,6.3,41,0.00,,---,0.00,VWS V14.01,2013-07-12 21:45:00,
2013-07-12 17:46:00,75.6,50.3,30.00,ENE,67,3.1,4.9,41,0.00,,---,0.00,VWS V14.01,2013-07-12 21:46:00,
2013-07-12 17:47:00,74.4,49.2,30.00,NE,46,3.6,6.9,41,0.00,,---,0.00,VWS V14.01,2013-07-12 21:47:00,
2013-07-12 17:48:00,75.3,49.3,30.00,ENE,76,5.8,9.2,40,0.00,,---,0.00,VWS V14.01,2013-07-12 21:48:00,
2013-07-12 17:49:00,75.4,50.1,30.00,ESE,108,2.7,5.8,41,0.00,,---,0.00,VWS V14.01,2013-07-12 21:49:00,
2013-07-12 17:50:00,75.4,50.8,30.00,NNE,28,2.7,4.0,42,0.00,,---,0.00,VWS V14.01,2013-07-12 21:50:00,
2013-07-12 17:51:00,75.4,50.1,30.00,NNE,33,0.0,2.7,41,0.00,,---,0.00,VWS V14.01,2013-07-12 21:51:00,
2013-07-12 17:52:00,74.4,49.8,30.00,ENE,68,3.6,5.4,42,0.00,,---,0.00,VWS V14.01,2013-07-12 21:52:00,
2013-07-12 17:53:00,75.4,51.4,30.00,NE,54,3.1,4.5,43,0.00,,---,0.00,VWS V14.01,2013-07-12 21:53:00,
2013-07-12 17:54:00,75.6,52.8,30.00,ENE,60,4.5,6.7,45,0.00,,---,0.00,VWS V14.01,2013-07-12 21:54:00,
2013-07-12 17:55:00,75.6,51.6,30.00,ENE,59,5.8,5.8,43,0.00,,---,0.00,VWS V14.01,2013-07-12 21:55:00,
2013-07-12 17:56:00,75.6,50.9,30.00,ENE,70,4.9,5.8,42,0.00,,---,0.00,VWS V14.01,2013-07-12 21:56:00,
2013-07-12 17:57:00,74.4,49.8,30.00,NNE,33,5.8,9.2,42,0.00,,---,0.00,VWS V14.01,2013-07-12 21:57:00,
2013-07-12 17:58:00,75.4,50.1,30.00,NE,53,4.0,5.4,41,0.00,,---,0.00,VWS V14.01,2013-07-12 21:58:00,
2013-07-12 17:59:00,75.3,50.6,30.00,ENE,67,4.9,4.9,42,0.00,,---,0.00,VWS V14.01,2013-07-12 21:59:00,
2013-07-12 18:00:00,75.3,50.6,30.00,NE,51,3.1,5.4,42,0.00,,---,0.00,VWS V14.01,2013-07-12 22:00:00,
2013-07-12 18:01:00,75.1,49.1,30.00,NNE,26,4.5,6.9,40,0.00,,---,0.00,VWS V14.01,2013-07-12 22:01:00,
2013-07-12 18:02:00,74.2,50.3,30.00,NNE,22,2.7,5.8,43,0.00,,---,0.00,VWS V14.01,2013-07-12 22:02:00,
2013-07-12 18:03:00,75.1,50.5,30.00,ENE,62,5.8,5.8,42,0.00,,---,0.00,VWS V14.01,2013-07-12 22:03:00,
2013-07-12 18:04:00,74.9,49.6,30.00,North,8,3.1,7.8,41,0.00,,---,0.00,VWS V14.01,2013-07-12 22:04:00,
2013-07-12 18:05:00,74.9,50.3,30.00,ENE,66,2.7,6.3,42,0.00,,---,0.00,VWS V14.01,2013-07-12 22:05:00,
2013-07-12 18:06:00,74.9,50.3,30.00,NE,52,2.7,4.9,42,0.00,,---,0.00,VWS V14.01,2013-07-12 22:06:00,
2013-07-12 18:07:00,74.0,48.8,30.00,ENE,58,4.0,5.8,41,0.00,,---,0.00,VWS V14.01,2013-07-12 22:07:00,
2013-07-12 18:08:00,74.9,50.3,30.00,ENE,61,5.4,5.4,42,0.00,,---,0.00,VWS V14.01,2013-07-12 22:08:00,
2013-07-12 18:09:00,74.9,50.3,30.00,NNE,32,4.5,5.4,42,0.00,,---,0.00,VWS V14.01,2013-07-12 22:09:00,
2013-07-12 18:10:00,74.9,49.6,30.00,NE,53,3.1,5.8,41,0.00,,---,0.00,VWS V14.01,2013-07-12 22:10:00,
2013-07-12 18:11:00,75.1,49.8,30.00,NE,49,2.7,4.0,41,0.00,,---,0.00,VWS V14.01,2013-07-12 22:11:00,
2013-07-12 18:12:00,73.8,48.7,30.00,NE,55,3.6,5.4,41,0.00,,---,0.00,VWS V14.01,2013-07-12 22:12:00,
2013-07-12 18:13:00,74.9,49.0,30.00,NE,43,3.6,6.9,40,0.00,,---,0.00,VWS V14.01,2013-07-12 22:13:00,
2013-07-12 18:14:00,74.9,49.6,30.00,ENE,62,4.0,4.5,41,0.00,,---,0.00,VWS V14.01,2013-07-12 22:14:00,
2013-07-12 18:15:00,74.9,49.0,30.00,NNE,22,4.0,6.3,40,0.00,,---,0.00,VWS V14.01,2013-07-12 22:15:00,
2013-07-12 18:16:00,74.9,49.6,30.00,NNE,30,6.3,6.7,41,0.00,,---,0.00,VWS V14.01,2013-07-12 22:16:00,
2013-07-12 18:17:00,73.5,48.3,30.00,ENE,57,3.6,4.9,41,0.00,,---,0.00,VWS V14.01,2013-07-12 22:17:00,
2013-07-12 18:18:00,75.1,50.5,30.00,ENE,69,4.9,6.7,42,0.00,,---,0.00,VWS V14.01,2013-07-12 22:18:00,
2013-07-12 18:19:00,75.1,49.8,30.00,NNE,15,4.9,5.8,41,0.00,,---,0.00,VWS V14.01,2013-07-12 22:19:00,
2013-07-12 18:20:00,74.9,49.0,30.00,NE,47,6.9,6.9,40,0.00,,---,0.00,VWS V14.01,2013-07-12 22:20:00,
2013-07-12 18:21:00,74.7,48.8,30.00,ENE,66,8.7,8.7,40,0.00,,---,0.00,VWS V14.01,2013-07-12 22:21:00,
2013-07-12 18:22:00,73.3,50.1,30.00,ENE,58,3.1,4.5,44,0.00,,---,0.00,VWS V14.01,2013-07-12 22:22:00,
2013-07-12 18:23:00,74.7,48.8,30.00,ENE,57,5.8,8.3,40,0.00,,---,0.00,VWS V14.01,2013-07-12 22:23:00,
2013-07-12 18:24:00,74.7,48.8,30.00,WNW,285,3.1,5.8,40,0.00,,---,0.00,VWS V14.01,2013-07-12 22:24:00,
2013-07-12 18:25:00,74.7,49.5,30.00,NE,48,5.8,5.8,41,0.00,,---,0.00,VWS V14.01,2013-07-12 22:25:00,
2013-07-12 18:26:00,74.5,48.7,30.00,NE,39,4.5,5.8,40,0.00,,---,0.00,VWS V14.01,2013-07-12 22:26:00,
2013-07-12 18:27:00,73.3,49.5,30.00,ENE,64,3.6,4.0,43,0.00,,---,0.00,VWS V14.01,2013-07-12 22:27:00,
2013-07-12 18:28:00,74.5,48.7,30.00,ENE,61,4.9,6.7,40,0.00,,---,0.00,VWS V14.01,2013-07-12 22:28:00,
2013-07-12 18:29:00,74.5,49.3,30.00,NNE,23,2.7,6.9,41,0.00,,---,0.00,VWS V14.01,2013-07-12 22:29:00,
2013-07-12 18:30:00,74.5,49.3,30.00,SW,234,4.0,5.8,41,0.00,,---,0.00,VWS V14.01,2013-07-12 22:30:00,
2013-07-12 18:31:00,74.5,49.3,30.00,NE,41,0.0,5.4,41,0.00,,---,0.00,VWS V14.01,2013-07-12 22:31:00,
2013-07-12 18:32:00,73.3,50.1,30.00,NE,46,0.0,0.0,44,0.00,,---,0.00,VWS V14.01,2013-07-12 22:32:00,
2013-07-12 18:33:00,74.7,49.5,30.00,NE,53,4.9,6.3,41,0.00,,---,0.00,VWS V14.01,2013-07-12 22:33:00,
2013-07-12 18:34:00,74.5,50.0,30.00,NE,54,4.0,4.9,42,0.00,,---,0.00,VWS V14.01,2013-07-12 22:34:00,
2013-07-12 18:35:00,74.5,50.0,30.00,ENE,72,3.6,4.5,42,0.00,,---,0.00,VWS V14.01,2013-07-12 22:35:00,
2013-07-12 18:36:00,74.5,50.0,30.00,ENE,72,2.7,3.6,42,0.00,,---,0.00,VWS V14.01,2013-07-12 22:36:00,
2013-07-12 18:37:00,73.1,48.7,30.00,ENE,78,4.5,4.5,42,0.00,,---,0.00,VWS V14.01,2013-07-12 22:37:00,
2013-07-12 18:38:00,74.5,50.6,30.00,NE,50,0.0,0.0,43,0.00,,---,0.00,VWS V14.01,2013-07-12 22:38:00,
2013-07-12 18:39:00,74.5,51.2,30.00,ENE,62,0.0,0.0,44,0.00,,---,0.00,VWS V14.01,2013-07-12 22:39:00,
2013-07-12 18:40:00,74.5,51.8,30.00,ESE,114,3.1,3.1,45,0.00,,---,0.00,VWS V14.01,2013-07-12 22:40:00,
2013-07-12 18:41:00,74.5,51.8,30.00,ENE,64,4.9,4.9,45,0.00,,---,0.00,VWS V14.01,2013-07-12 22:41:00,
2013-07-12 18:42:00,72.9,48.5,30.00,NE,49,4.9,4.9,42,0.00,,---,0.00,VWS V14.01,2013-07-12 22:42:00,
2013-07-12 18:43:00,74.5,49.3,30.00,ENE,70,5.8,6.9,41,0.00,,---,0.00,VWS V14.01,2013-07-12 22:43:00,
2013-07-12 18:44:00,74.5,50.0,30.00,ESE,103,4.0,5.8,42,0.00,,---,0.00,VWS V14.01,2013-07-12 22:44:00,
2013-07-12 18:45:00,74.4,49.2,30.00,NE,51,4.0,6.3,41,0.00,,---,0.00,VWS V14.01,2013-07-12 22:45:00,
2013-07-12 18:46:00,74.4,49.8,30.00,ENE,62,4.5,4.9,42,0.00,,---,0.00,VWS V14.01,2013-07-12 22:46:00,
2013-07-12 18:47:00,72.9,48.5,30.00,NE,43,5.4,5.4,42,0.00,,---,0.00,VWS V14.01,2013-07-12 22:47:00,
2013-07-12 18:48:00,74.4,49.8,30.00,ENE,62,4.0,4.9,42,0.00,,---,0.00,VWS V14.01,2013-07-12 22:48:00,
2013-07-12 18:49:00,72.9,48.5,30.00,ENE,65,4.5,5.8,42,0.00,,---,0.00,VWS V14.01,2013-07-12 22:49:00,
2013-07-12 18:50:00,74.4,49.8,30.00,ENE,72,3.1,6.3,42,0.00,,---,0.00,VWS V14.01,2013-07-12 22:50:00,
2013-07-12 18:51:00,74.5,50.0,30.00,NE,35,3.1,4.9,42,0.00,,---,0.00,VWS V14.01,2013-07-12 22:51:00,
2013-07-12 18:52:00,72.9,48.5,30.00,NE,54,5.4,5.8,42,0.00,,---,0.00,VWS V14.01,2013-07-12 22:52:00,
2013-07-12 18:53:00,74.4,49.2,30.00,NE,39,2.7,4.9,41,0.00,,---,0.00,VWS V14.01,2013-07-12 22:53:00,
2013-07-12 18:54:00,74.4,50.4,30.00,NE,39,2.7,5.4,43,0.00,,---,0.00,VWS V14.01,2013-07-12 22:54:00,
2013-07-12 18:55:00,74.4,50.4,30.00,North,10,2.7,4.5,43,0.00,,---,0.00,VWS V14.01,2013-07-12 22:55:00,
2013-07-12 18:56:00,74.4,50.4,30.00,NNE,29,3.6,4.9,43,0.00,,---,0.00,VWS V14.01,2013-07-12 22:56:00,
2013-07-12 18:57:00,74.4,49.2,30.00,NE,38,4.9,9.2,41,0.00,,---,0.00,VWS V14.01,2013-07-12 22:57:00,
2013-07-12 18:58:00,72.6,47.5,30.00,East,86,0.0,4.5,41,0.00,,---,0.00,VWS V14.01,2013-07-12 22:58:00,
2013-07-12 18:59:00,74.2,49.0,30.00,ENE,64,3.1,5.8,41,0.00,,---,0.00,VWS V14.01,2013-07-12 22:59:00,
2013-07-12 19:00:00,74.2,50.3,30.00,NNE,22,3.1,4.0,43,0.00,,---,0.00,VWS V14.01,2013-07-12 23:00:00,
2013-07-12 19:01:00,74.2,51.5,30.00,ENE,72,3.1,3.1,45,0.00,,---,0.00,VWS V14.01,2013-07-12 23:01:00,
2013-07-12 19:02:00,74.2,50.3,30.00,NNE,22,3.1,5.8,43,0.00,,---,0.00,VWS V14.01,2013-07-12 23:02:00,
2013-07-12 19:03:00,72.6,49.4,30.00,NE,53,0.0,0.0,44,0.00,,---,0.00,VWS V14.01,2013-07-12 23:03:00,
2013-07-12 19:04:00,74.0,48.8,30.00,NNE,27,4.9,6.3,41,0.00,,---,0.00,VWS V14.01,2013-07-12 23:04:00,
2013-07-12 19:05:00,74.0,48.8,30.00,East,88,5.4,6.7,41,0.00,,---,0.00,VWS V14.01,2013-07-12 23:05:00,
2013-07-12 19:06:00,74.0,48.8,30.00,ENE,58,3.1,6.3,41,0.00,,---,0.00,VWS V14.01,2013-07-12 23:06:00,
2013-07-12 19:07:00,74.0,49.5,30.00,NE,46,4.0,5.8,42,0.00,,---,0.00,VWS V14.01,2013-07-12 23:07:00,
2013-07-12 19:08:00,72.4,49.3,30.00,NNE,21,0.0,2.7,44,0.00,,---,0.00,VWS V14.01,2013-07-12 23:08:00,
2013-07-12 19:09:00,73.8,48.7,30.00,NE,46,5.8,7.4,41,0.00,,---,0.00,VWS V14.01,2013-07-12 23:09:00,
2013-07-12 19:10:00,73.8,48.7,30.00,ENE,67,6.3,7.4,41,0.00,,---,0.00,VWS V14.01,2013-07-12 23:10:00,
2013-07-12 19:11:00,73.8,48.7,30.00,NE,43,5.4,6.3,41,0.00,,---,0.00,VWS V14.01,2013-07-12 23:11:00,
2013-07-12 19:12:00,73.8,48.7,30.00,NNE,26,3.6,5.4,41,0.00,,---,0.00,VWS V14.01,2013-07-12 23:12:00,
2013-07-12 19:13:00,72.2,50.3,30.00,SE,126,0.0,0.0,46,0.00,,---,0.00,VWS V14.01,2013-07-12 23:13:00,
2013-07-12 19:14:00,73.6,48.5,30.00,ENE,57,2.7,5.8,41,0.00,,---,0.00,VWS V14.01,2013-07-12 23:14:00,
2013-07-12 19:15:00,73.6,49.8,30.00,ENE,58,3.6,4.5,43,0.00,,---,0.00,VWS V14.01,2013-07-12 23:15:00,
2013-07-12 19:16:00,73.6,48.5,30.00,NE,56,4.5,4.9,41,0.00,,---,0.00,VWS V14.01,2013-07-12 23:16:00,
2013-07-12 19:17:00,73.5,48.3,30.00,ENE,57,3.6,4.9,41,0.00,,---,0.00,VWS V14.01,2013-07-12 23:17:00,
2013-07-12 19:18:00,72.0,48.9,30.00,NE,53,0.0,0.0,44,0.00,,---,0.00,VWS V14.01,2013-07-12 23:18:00,
2013-07-12 19:19:00,73.5,49.6,30.00,East,98,4.0,5.4,43,0.00,,---,0.00,VWS V14.01,2013-07-12 23:19:00,
2013-07-12 19:20:00,73.3,49.5,30.00,ENE,59,4.0,4.5,43,0.00,,---,0.00,VWS V14.01,2013-07-12 23:20:00,
2013-07-12 19:21:00,73.3,50.1,30.00,ENE,61,3.1,5.4,44,0.00,,---,0.00,VWS V14.01,2013-07-12 23:21:00,
2013-07-12 19:22:00,73.3,50.1,30.00,ENE,58,3.1,4.5,44,0.00,,---,0.00,VWS V14.01,2013-07-12 23:22:00,
2013-07-12 19:23:00,73.3,50.1,30.00,ENE,62,0.0,3.1,44,0.00,,---,0.00,VWS V14.01,2013-07-12 23:23:00,
2013-07-12 19:24:00,71.7,49.8,30.03,ENE,72,0.0,0.0,46,0.00,,---,0.00,VWS V14.01,2013-07-12 23:24:00,
2013-07-12 19:25:00,73.3,49.5,30.00,NE,55,5.4,5.4,43,0.00,,---,0.00,VWS V14.01,2013-07-12 23:25:00,
2013-07-12 19:26:00,73.3,49.5,30.00,East,82,4.9,6.3,43,0.00,,---,0.00,VWS V14.01,2013-07-12 23:26:00,
2013-07-12 19:27:00,73.3,49.5,30.00,ENE,65,4.0,6.9,43,0.00,,---,0.00,VWS V14.01,2013-07-12 23:27:00,
2013-07-12 19:28:00,73.3,48.8,30.00,NE,48,4.0,5.4,42,0.00,,---,0.00,VWS V14.01,2013-07-12 23:28:00,
2013-07-12 19:29:00,71.5,49.6,30.03,ENE,62,0.0,0.0,46,0.00,,---,0.00,VWS V14.01,2013-07-12 23:29:00,
2013-07-12 19:30:00,73.3,48.8,30.00,NE,51,0.0,4.0,42,0.00,,---,0.00,VWS V14.01,2013-07-12 23:30:00,
2013-07-12 19:31:00,73.3,50.7,30.00,ENE,75,4.0,4.5,45,0.00,,---,0.00,VWS V14.01,2013-07-12 23:31:00,
2013-07-12 19:32:00,73.3,49.5,30.00,NE,56,0.0,4.5,43,0.00,,---,0.00,VWS V14.01,2013-07-12 23:32:00,
2013-07-12 19:33:00,73.3,50.1,30.00,NE,38,6.9,6.9,44,0.00,,---,0.00,VWS V14.01,2013-07-12 23:33:00,
2013-07-12 19:34:00,71.3,50.0,30.03,NE,39,0.0,0.0,47,0.00,,---,0.00,VWS V14.01,2013-07-12 23:34:00,
2013-07-12 19:35:00,73.3,48.8,30.00,NE,53,6.3,6.3,42,0.00,,---,0.00,VWS V14.01,2013-07-12 23:35:00,
2013-07-12 19:36:00,73.1,48.0,30.00,ENE,67,3.6,6.3,41,0.00,,---,0.00,VWS V14.01,2013-07-12 23:36:00,
2013-07-12 19:37:00,73.1,48.7,30.00,NNE,32,4.0,6.7,42,0.00,,---,0.00,VWS V14.01,2013-07-12 23:37:00,
2013-07-12 19:38:00,73.1,48.7,30.00,NNE,32,5.4,5.8,42,0.00,,---,0.00,VWS V14.01,2013-07-12 23:38:00,
2013-07-12 19:39:00,70.9,49.7,30.03,NE,45,3.6,4.9,47,0.00,,---,0.00,VWS V14.01,2013-07-12 23:39:00,
2013-07-12 19:40:00,72.9,48.5,30.00,ENE,67,5.8,5.8,42,0.00,,---,0.00,VWS V14.01,2013-07-12 23:40:00,
2013-07-12 19:41:00,72.9,48.5,30.00,ENE,66,4.0,5.8,42,0.00,,---,0.00,VWS V14.01,2013-07-12 23:41:00,
2013-07-12 19:42:00,72.9,48.5,30.00,NE,56,4.5,4.9,42,0.00,,---,0.00,VWS V14.01,2013-07-12 23:42:00,
2013-07-12 19:43:00,72.9,48.5,30.00,NE,34,6.3,6.9,42,0.00,,---,0.00,VWS V14.01,2013-07-12 23:43:00,
2013-07-12 19:44:00,70.9,49.7,30.03,NE,40,0.0,0.0,47,0.00,,---,0.00,VWS V14.01,2013-07-12 23:44:00,
2013-07-12 19:45:00,72.9,48.5,30.00,NE,48,5.4,5.4,42,0.00,,---,0.00,VWS V14.01,2013-07-12 23:45:00,
2013-07-12 19:46:00,72.9,48.5,30.00,NNE,27,4.9,8.7,42,0.00,,---,0.00,VWS V14.01,2013-07-12 23:46:00,
2013-07-12 19:47:00,72.9,48.5,30.00,NE,44,4.0,6.7,42,0.00,,---,0.00,VWS V14.01,2013-07-12 23:47:00,
2013-07-12 19:48:00,72.9,48.5,30.00,NE,48,3.6,5.4,42,0.00,,---,0.00,VWS V14.01,2013-07-12 23:48:00,
2013-07-12 19:49:00,70.8,49.6,30.03,ENE,70,0.0,0.0,47,0.00,,---,0.00,VWS V14.01,2013-07-12 23:49:00,
2013-07-12 19:50:00,72.9,48.5,30.00,NE,54,6.7,6.9,42,0.00,,---,0.00,VWS V14.01,2013-07-12 23:50:00,
2013-07-12 19:51:00,72.9,47.9,30.00,NNE,17,4.9,7.8,41,0.00,,---,0.00,VWS V14.01,2013-07-12 23:51:00,
2013-07-12 19:52:00,72.9,47.9,30.00,NNE,31,3.6,4.9,41,0.00,,---,0.00,VWS V14.01,2013-07-12 23:52:00,
2013-07-12 19:53:00,72.9,47.9,30.00,ENE,58,5.4,5.8,41,0.00,,---,0.00,VWS V14.01,2013-07-12 23:53:00,
2013-07-12 19:54:00,70.6,49.4,30.03,ENE,71,0.0,0.0,47,0.00,,---,0.00,VWS V14.01,2013-07-12 23:54:00,
2013-07-12 19:55:00,72.7,47.7,30.00,NE,50,4.0,4.9,41,0.00,,---,0.00,VWS V14.01,2013-07-12 23:55:00,
2013-07-12 19:56:00,72.7,48.3,30.00,NE,54,3.6,4.0,42,0.00,,---,0.00,VWS V14.01,2013-07-12 23:56:00,
2013-07-12 19:57:00,72.7,47.7,30.00,ENE,66,3.1,6.7,41,0.00,,---,0.00,VWS V14.01,2013-07-12 23:57:00,
2013-07-12 19:58:00,72.6,47.5,30.00,East,87,3.6,4.5,41,0.00,,---,0.00,VWS V14.01,2013-07-12 23:58:00,
2013-07-12 19:59:00,70.4,49.2,30.03,ENE,71,0.0,0.0,47,0.00,,---,0.00,VWS V14.01,2013-07-12 23:59:00,
2013-07-12 20:00:00,72.6,48.2,30.00,ENE,62,3.6,4.9,42,0.00,,---,0.00,VWS V14.01,2013-07-13 00:00:00,
2013-07-12 20:01:00,72.6,48.2,30.00,ENE,70,4.0,4.5,42,0.00,,---,0.00,VWS V14.01,2013-07-13 00:01:00,
2013-07-12 20:02:00,72.6,48.2,30.00,NE,56,4.5,4.5,42,0.00,,---,0.00,VWS V14.01,2013-07-13 00:02:00,
2013-07-12 20:03:00,72.6,48.8,30.00,NE,53,0.0,4.5,43,0.00,,---,0.00,VWS V14.01,2013-07-13 00:03:00,
2013-07-12 20:04:00,70.0,48.9,30.03,SE,137,0.0,0.0,47,0.00,,---,0.00,VWS V14.01,2013-07-13 00:04:00,
2013-07-12 20:05:00,72.4,49.3,30.00,ENE,62,4.0,4.0,44,0.00,,---,0.00,VWS V14.01,2013-07-13 00:05:00,
2013-07-12 20:06:00,72.4,48.7,30.00,ENE,68,0.0,4.0,43,0.00,,---,0.00,VWS V14.01,2013-07-13 00:06:00,
2013-07-12 20:07:00,72.4,49.9,30.00,NE,41,4.0,4.0,45,0.00,,---,0.00,VWS V14.01,2013-07-13 00:07:00,
2013-07-12 20:08:00,72.2,48.5,30.00,NNE,33,0.0,6.3,43,0.00,,---,0.00,VWS V14.01,2013-07-13 00:08:00,
2013-07-12 20:09:00,70.0,48.9,30.03,SE,128,0.0,0.0,47,0.00,,---,0.00,VWS V14.01,2013-07-13 00:09:00,
2013-07-12 20:10:00,72.2,49.7,30.00,NE,53,0.0,3.6,45,0.00,,---,0.00,VWS V14.01,2013-07-13 00:10:00,
2013-07-12 20:11:00,72.2,49.7,30.00,NE,55,0.0,0.0,45,0.00,,---,0.00,VWS V14.01,2013-07-13 00:11:00,
2013-07-12 20:12:00,72.2,50.3,30.00,SSW,204,0.0,0.0,46,0.00,,---,0.00,VWS V14.01,2013-07-13 00:12:00,
2013-07-12 20:13:00,72.2,50.3,30.00,SE,137,0.0,0.0,46,0.00,,---,0.00,VWS V14.01,2013-07-13 00:13:00,
2013-07-12 20:14:00,72.0,50.1,30.00,East,88,0.0,0.0,46,0.00,,---,0.00,VWS V14.01,2013-07-13 00:14:00,
2013-07-12 20:15:00,69.9,48.7,30.03,ENE,71,0.0,4.5,47,0.00,,---,0.00,VWS V14.01,2013-07-13 00:15:00,
2013-07-12 20:16:00,72.0,49.5,30.00,ENE,67,0.0,0.0,45,0.00,,---,0.00,VWS V14.01,2013-07-13 00:16:00,
2013-07-12 20:17:00,72.0,49.5,30.00,ENE,62,0.0,0.0,45,0.00,,---,0.00,VWS V14.01,2013-07-13 00:17:00,
2013-07-12 20:18:00,72.0,49.5,30.00,NE,47,0.0,3.1,45,0.00,,---,0.00,VWS V14.01,2013-07-13 00:18:00,
2013-07-12 20:19:00,69.9,49.3,30.03,East,93,3.1,3.1,48,0.00,,---,0.00,VWS V14.01,2013-07-13 00:19:00,
2013-07-12 20:20:00,69.9,48.7,30.03,NE,39,4.0,5.8,47,0.00,,---,0.00,VWS V14.01,2013-07-13 00:20:00,
2013-07-12 20:21:00,71.8,49.4,30.03,ENE,75,0.0,3.6,45,0.00,,---,0.00,VWS V14.01,2013-07-13 00:21:00,
2013-07-12 20:22:00,71.8,49.4,30.03,ENE,76,0.0,0.0,45,0.00,,---,0.00,VWS V14.01,2013-07-13 00:22:00,
2013-07-12 20:23:00,71.8,50.0,30.03,ENE,76,0.0,0.0,46,0.00,,---,0.00,VWS V14.01,2013-07-13 00:23:00,
2013-07-12 20:24:00,71.7,49.8,30.03,ENE,72,0.0,0.0,46,0.00,,---,0.00,VWS V14.01,2013-07-13 00:24:00,
2013-07-12 20:25:00,69.7,49.1,30.03,NE,55,4.0,4.9,48,0.00,,---,0.00,VWS V14.01,2013-07-13 00:25:00,
2013-07-12 20:26:00,71.7,49.2,30.03,ENE,62,0.0,3.6,45,0.00,,---,0.00,VWS V14.01,2013-07-13 00:26:00,
2013-07-12 20:27:00,71.7,49.8,30.03,ENE,62,0.0,0.0,46,0.00,,---,0.00,VWS V14.01,2013-07-13 00:27:00,
2013-07-12 20:28:00,71.7,49.8,30.03,ENE,62,0.0,0.0,46,0.00,,---,0.00,VWS V14.01,2013-07-13 00:28:00,
2013-07-12 20:29:00,71.5,49.6,30.03,ENE,62,0.0,0.0,46,0.00,,---,0.00,VWS V14.01,2013-07-13 00:29:00,
2013-07-12 20:30:00,69.5,49.0,30.03,ENE,68,3.6,5.4,48,0.00,,---,0.00,VWS V14.01,2013-07-13 00:30:00,
2013-07-12 20:31:00,69.5,49.0,30.03,NNE,31,0.0,3.6,48,0.00,,---,0.00,VWS V14.01,2013-07-13 00:31:00,
2013-07-12 20:32:00,71.3,50.0,30.03,ENE,62,0.0,0.0,47,0.00,,---,0.00,VWS V14.01,2013-07-13 00:32:00,
2013-07-12 20:33:00,71.3,50.0,30.03,NE,36,0.0,0.0,47,0.00,,---,0.00,VWS V14.01,2013-07-13 00:33:00,
2013-07-12 20:34:00,71.3,50.0,30.03,NE,39,0.0,0.0,47,0.00,,---,0.00,VWS V14.01,2013-07-13 00:34:00,
2013-07-12 20:35:00,69.1,48.6,30.03,ENE,72,0.0,0.0,48,0.00,,---,0.00,VWS V14.01,2013-07-13 00:35:00,
2013-07-12 20:36:00,71.1,49.9,30.03,ENE,74,0.0,3.6,47,0.00,,---,0.00,VWS V14.01,2013-07-13 00:36:00,
2013-07-12 20:37:00,71.1,49.9,30.03,ENE,77,4.9,4.9,47,0.00,,---,0.00,VWS V14.01,2013-07-13 00:37:00,
2013-07-12 20:38:00,70.9,49.7,30.03,East,94,2.7,4.9,47,0.00,,---,0.00,VWS V14.01,2013-07-13 00:38:00,
2013-07-12 20:39:00,70.9,49.7,30.03,NE,45,3.6,4.9,47,0.00,,---,0.00,VWS V14.01,2013-07-13 00:39:00,
2013-07-12 20:40:00,69.0,49.0,30.03,NE,45,0.0,0.0,49,0.00,,---,0.00,VWS V14.01,2013-07-13 00:40:00,
2013-07-12 20:41:00,70.9,49.7,30.03,NE,49,0.0,0.0,47,0.00,,---,0.00,VWS V14.01,2013-07-13 00:41:00,
2013-07-12 20:42:00,70.9,49.7,30.03,NNE,32,0.0,4.9,47,0.00,,---,0.00,VWS V14.01,2013-07-13 00:42:00,
2013-07-12 20:43:00,70.9,49.7,30.03,NNE,33,0.0,0.0,47,0.00,,---,0.00,VWS V14.01,2013-07-13 00:43:00,
2013-07-12 20:44:00,70.9,49.7,30.03,NE,40,0.0,0.0,47,0.00,,---,0.00,VWS V14.01,2013-07-13 00:44:00,
2013-07-12 20:45:00,68.6,49.2,30.03,East,91,0.0,0.0,50,0.00,,---,0.00,VWS V14.01,2013-07-13 00:45:00,
2013-07-12 20:46:00,70.8,49.6,30.03,NE,51,0.0,0.0,47,0.00,,---,0.00,VWS V14.01,2013-07-13 00:46:00,
2013-07-12 20:47:00,70.8,49.6,30.03,NE,51,0.0,0.0,47,0.00,,---,0.00,VWS V14.01,2013-07-13 00:47:00,
2013-07-12 20:48:00,70.8,49.6,30.03,ENE,70,0.0,0.0,47,0.00,,---,0.00,VWS V14.01,2013-07-13 00:48:00,
2013-07-12 20:49:00,70.8,49.6,30.03,ENE,70,0.0,0.0,47,0.00,,---,0.00,VWS V14.01,2013-07-13 00:49:00,
2013-07-12 20:50:00,68.4,50.6,30.03,East,91,0.0,0.0,53,0.00,,---,0.00,VWS V14.01,2013-07-13 00:50:00,
2013-07-12 20:51:00,70.6,49.4,30.03,ENE,70,0.0,0.0,47,0.00,,---,0.00,VWS V14.01,2013-07-13 00:51:00,
2013-07-12 20:52:00,70.6,49.4,30.03,ENE,70,0.0,0.0,47,0.00,,---,0.00,VWS V14.01,2013-07-13 00:52:00,
2013-07-12 20:53:00,70.6,49.4,30.03,ENE,70,0.0,0.0,47,0.00,,---,0.00,VWS V14.01,2013-07-13 00:53:00,
2013-07-12 20:54:00,70.6,49.4,30.03,ENE,71,0.0,0.0,47,0.00,,---,0.00,VWS V14.01,2013-07-13 00:54:00,
2013-07-12 20:55:00,68.2,51.0,30.03,East,92,0.0,0.0,54,0.00,,---,0.00,VWS V14.01,2013-07-13 00:55:00,
2013-07-12 20:56:00,70.4,49.2,30.03,ENE,71,0.0,0.0,47,0.00,,---,0.00,VWS V14.01,2013-07-13 00:56:00,
2013-07-12 20:57:00,70.4,49.2,30.03,ENE,71,0.0,0.0,47,0.00,,---,0.00,VWS V14.01,2013-07-13 00:57:00,
2013-07-12 20:58:00,70.4,49.2,30.03,ENE,71,0.0,0.0,47,0.00,,---,0.00,VWS V14.01,2013-07-13 00:58:00,
2013-07-12 20:59:00,70.4,49.2,30.03,ENE,71,0.0,0.0,47,0.00,,---,0.00,VWS V14.01,2013-07-13 00:59:00,
2013-07-12 21:00:00,68.1,51.8,30.03,ESE,112,0.0,0.0,56,0.00,,---,0.00,VWS V14.01,2013-07-13 01:00:00,
2013-07-12 21:01:00,67.9,51.6,30.03,ESE,112,0.0,0.0,56,0.00,,---,0.00,VWS V14.01,2013-07-13 01:01:00,
2013-07-12 21:02:00,70.2,49.1,30.03,ENE,71,0.0,0.0,47,0.00,,---,0.00,VWS V14.01,2013-07-13 01:02:00,
2013-07-12 21:03:00,67.7,51.5,30.03,ESE,112,0.0,0.0,56,0.00,,---,0.00,VWS V14.01,2013-07-13 01:03:00,
2013-07-12 21:04:00,70.0,48.9,30.03,SE,137,0.0,3.1,47,0.00,,---,0.00,VWS V14.01,2013-07-13 01:04:00,
2013-07-12 21:05:00,67.7,51.9,30.03,SSE,152,0.0,0.0,57,0.00,,---,0.00,VWS V14.01,2013-07-13 01:05:00,
2013-07-12 21:06:00,67.5,52.2,30.03,SSE,151,0.0,0.0,58,0.00,,---,0.00,VWS V14.01,2013-07-13 01:06:00,
2013-07-12 21:07:00,70.0,48.9,30.03,SE,137,0.0,0.0,47,0.00,,---,0.00,VWS V14.01,2013-07-13 01:07:00,
2013-07-12 21:08:00,70.0,48.9,30.03,SE,128,0.0,0.0,47,0.00,,---,0.00,VWS V14.01,2013-07-13 01:08:00,
2013-07-12 21:09:00,70.0,48.9,30.03,SE,128,0.0,0.0,47,0.00,,---,0.00,VWS V14.01,2013-07-13 01:09:00,
2013-07-12 21:10:00,70.0,48.9,30.03,SE,128,0.0,0.0,47,0.00,,---,0.00,VWS V14.01,2013-07-13 01:10:00,
2013-07-12 21:11:00,67.3,52.5,30.03,ESE,116,0.0,0.0,59,0.00,,---,0.00,VWS V14.01,2013-07-13 01:11:00,
2013-07-12 21:12:00,70.0,49.5,30.03,SE,132,3.1,3.6,48,0.00,,---,0.00,VWS V14.01,2013-07-13 01:12:00,
2013-07-12 21:13:00,69.9,48.7,30.03,NE,47,3.6,4.0,47,0.00,,---,0.00,VWS V14.01,2013-07-13 01:13:00,
2013-07-12 21:14:00,69.9,48.7,30.03,East,97,3.1,4.5,47,0.00,,---,0.00,VWS V14.01,2013-07-13 01:14:00,
2013-07-12 21:15:00,69.9,48.7,30.03,ENE,71,0.0,4.5,47,0.00,,---,0.00,VWS V14.01,2013-07-13 01:15:00,
2013-07-12 21:16:00,67.2,52.8,30.03,SSE,150,0.0,0.0,60,0.00,,---,0.00,VWS V14.01,2013-07-13 01:16:00,
2013-07-12 21:17:00,69.9,48.7,30.03,East,81,0.0,0.0,47,0.00,,---,0.00,VWS V14.01,2013-07-13 01:17:00,
2013-07-12 21:18:00,69.9,49.3,30.03,East,98,0.0,0.0,48,0.00,,---,0.00,VWS V14.01,2013-07-13 01:18:00,
2013-07-12 21:19:00,69.9,49.3,30.03,East,93,3.1,3.1,48,0.00,,---,0.00,VWS V14.01,2013-07-13 01:19:00,
2013-07-12 21:20:00,69.9,48.7,30.03,NE,39,4.0,5.8,47,0.00,,---,0.00,VWS V14.01,2013-07-13 01:20:00,
2013-07-12 21:21:00,67.2,53.3,30.06,SSE,149,0.0,0.0,61,0.00,,---,0.00,VWS V14.01,2013-07-13 01:21:00,
2013-07-12 21:22:00,69.7,48.6,30.03,NE,56,4.0,4.0,47,0.00,,---,0.00,VWS V14.01,2013-07-13 01:22:00,
2013-07-12 21:23:00,69.7,48.6,30.03,ENE,62,0.0,4.0,47,0.00,,---,0.00,VWS V14.01,2013-07-13 01:23:00,
2013-07-12 21:24:00,69.7,49.1,30.03,NE,47,0.0,0.0,48,0.00,,---,0.00,VWS V14.01,2013-07-13 01:24:00,
2013-07-12 21:25:00,69.7,49.1,30.03,NE,55,4.0,4.9,48,0.00,,---,0.00,VWS V14.01,2013-07-13 01:25:00,
2013-07-12 21:26:00,67.0,53.1,30.06,SE,132,0.0,0.0,61,0.00,,---,0.00,VWS V14.01,2013-07-13 01:26:00,
2013-07-12 21:27:00,69.5,49.0,30.03,NE,45,4.5,4.9,48,0.00,,---,0.00,VWS V14.01,2013-07-13 01:27:00,
2013-07-12 21:28:00,69.5,49.0,30.03,North,8,0.0,4.5,48,0.00,,---,0.00,VWS V14.01,2013-07-13 01:28:00,
2013-07-12 21:29:00,69.5,49.5,30.03,ENE,68,5.4,5.8,49,0.00,,---,0.00,VWS V14.01,2013-07-13 01:29:00,
2013-07-12 21:30:00,69.5,49.0,30.03,ENE,68,3.6,5.4,48,0.00,,---,0.00,VWS V14.01,2013-07-13 01:30:00,
2013-07-12 21:31:00,67.2,53.3,30.06,ESE,110,0.0,0.0,61,0.00,,---,0.00,VWS V14.01,2013-07-13 01:31:00,
2013-07-12 21:32:00,69.3,49.4,30.03,NE,45,4.9,4.9,49,0.00,,---,0.00,VWS V14.01,2013-07-13 01:32:00,
2013-07-12 21:33:00,69.3,48.8,30.03,ENE,66,0.0,4.9,48,0.00,,---,0.00,VWS V14.01,2013-07-13 01:33:00,
2013-07-12 21:34:00,69.3,49.4,30.03,ENE,69,0.0,2.7,49,0.00,,---,0.00,VWS V14.01,2013-07-13 01:34:00,
2013-07-12 21:35:00,69.3,49.4,30.03,ENE,72,0.0,5.4,49,0.00,,---,0.00,VWS V14.01,2013-07-13 01:35:00,
2013-07-12 21:36:00,67.0,53.5,30.06,East,86,2.7,2.7,62,0.00,,---,0.00,VWS V14.01,2013-07-13 01:36:00,
2013-07-12 21:37:00,69.1,49.2,30.03,ENE,75,3.6,4.9,49,0.00,,---,0.00,VWS V14.01,2013-07-13 01:37:00,
2013-07-12 21:38:00,67.0,53.5,30.06,ESE,104,5.4,5.8,62,0.00,,---,0.00,VWS V14.01,2013-07-13 01:38:00,
2013-07-12 21:39:00,69.0,49.0,30.03,NE,45,2.7,4.5,49,0.00,,---,0.00,VWS V14.01,2013-07-13 01:39:00,
2013-07-12 21:40:00,69.0,49.0,30.03,NE,45,0.0,2.7,49,0.00,,---,0.00,VWS V14.01,2013-07-13 01:40:00,
2013-07-12 21:41:00,69.0,49.6,30.03,ENE,59,0.0,0.0,50,0.00,,---,0.00,VWS V14.01,2013-07-13 01:41:00,
2013-07-12 21:42:00,66.6,53.6,30.06,ESE,107,0.0,0.0,63,0.00,,---,0.00,VWS V14.01,2013-07-13 01:42:00,
2013-07-12 21:43:00,68.8,49.4,30.03,ENE,59,3.6,4.9,50,0.00,,---,0.00,VWS V14.01,2013-07-13 01:43:00,
2013-07-12 21:44:00,68.8,49.4,30.03,East,91,0.0,3.6,50,0.00,,---,0.00,VWS V14.01,2013-07-13 01:44:00,
2013-07-12 21:45:00,68.6,49.2,30.03,East,91,0.0,0.0,50,0.00,,---,0.00,VWS V14.01,2013-07-13 01:45:00,
2013-07-12 21:46:00,68.6,49.8,30.03,East,91,0.0,0.0,51,0.00,,---,0.00,VWS V14.01,2013-07-13 01:46:00,
2013-07-12 21:47:00,66.8,55.1,30.06,ESE,107,0.0,0.0,66,0.00,,---,0.00,VWS V14.01,2013-07-13 01:47:00,
2013-07-12 21:48:00,68.6,49.8,30.03,East,91,0.0,0.0,51,0.00,,---,0.00,VWS V14.01,2013-07-13 01:48:00,
2013-07-12 21:49:00,68.4,50.1,30.03,East,91,0.0,0.0,52,0.00,,---,0.00,VWS V14.01,2013-07-13 01:49:00,
2013-07-12 21:50:00,68.4,50.1,30.03,East,91,0.0,0.0,52,0.00,,---,0.00,VWS V14.01,2013-07-13 01:50:00,
2013-07-12 21:51:00,68.4,50.6,30.03,East,91,0.0,0.0,53,0.00,,---,0.00,VWS V14.01,2013-07-13 01:51:00,
2013-07-12 21:52:00,66.4,55.6,30.06,ESE,108,0.0,0.0,68,0.00,,---,0.00,VWS V14.01,2013-07-13 01:52:00,
2013-07-12 21:53:00,68.4,50.6,30.03,East,91,0.0,0.0,53,0.00,,---,0.00,VWS V14.01,2013-07-13 01:53:00,
2013-07-12 21:54:00,68.2,51.0,30.03,East,91,0.0,0.0,54,0.00,,---,0.00,VWS V14.01,2013-07-13 01:54:00,
2013-07-12 21:55:00,68.2,51.0,30.03,East,91,0.0,0.0,54,0.00,,---,0.00,VWS V14.01,2013-07-13 01:55:00,
2013-07-12 21:56:00,68.1,50.8,30.03,East,92,0.0,0.0,54,0.00,,---,0.00,VWS V14.01,2013-07-13 01:56:00,
2013-07-12 21:57:00,66.3,56.2,30.06,ESE,108,0.0,0.0,70,0.00,,---,0.00,VWS V14.01,2013-07-13 01:57:00,
2013-07-12 21:58:00,68.1,51.3,30.03,East,92,0.0,0.0,55,0.00,,---,0.00,VWS V14.01,2013-07-13 01:58:00,
2013-07-12 21:59:00,68.1,51.3,30.03,SE,144,0.0,0.0,55,0.00,,---,0.00,VWS V14.01,2013-07-13 01:59:00,
2013-07-12 22:00:00,68.1,51.8,30.03,ESE,112,0.0,0.0,56,0.00,,---,0.00,VWS V14.01,2013-07-13 02:00:00,
2013-07-12 22:01:00,67.9,51.6,30.03,ESE,112,0.0,0.0,56,0.00,,---,0.00,VWS V14.01,2013-07-13 02:01:00,
2013-07-12 22:02:00,67.9,51.6,30.03,ESE,112,0.0,0.0,56,0.00,,---,0.00,VWS V14.01,2013-07-13 02:02:00,
2013-07-12 22:03:00,66.1,56.4,30.06,ESE,108,0.0,0.0,71,0.00,,---,0.00,VWS V14.01,2013-07-13 02:03:00,
2013-07-12 22:04:00,67.7,51.9,30.03,ESE,111,0.0,0.0,57,0.00,,---,0.00,VWS V14.01,2013-07-13 02:04:00,
2013-07-12 22:05:00,67.7,51.9,30.03,SSE,152,0.0,0.0,57,0.00,,---,0.00,VWS V14.01,2013-07-13 02:05:00,
2013-07-12 22:06:00,67.5,52.2,30.03,SSE,151,0.0,0.0,58,0.00,,---,0.00,VWS V14.01,2013-07-13 02:06:00,
2013-07-12 22:07:00,66.1,57.2,30.06,ESE,108,0.0,0.0,73,0.00,,---,0.00,VWS V14.01,2013-07-13 02:07:00,
2013-07-12 22:08:00,65.9,57.0,30.06,ESE,108,0.0,0.0,73,0.00,,---,0.00,VWS V14.01,2013-07-13 02:08:00,
2013-07-12 22:09:00,67.3,52.1,30.03,ESE,117,0.0,0.0,58,0.00,,---,0.00,VWS V14.01,2013-07-13 02:09:00,
2013-07-12 22:10:00,67.3,52.1,30.03,ESE,117,0.0,0.0,58,0.00,,---,0.00,VWS V14.01,2013-07-13 02:10:00,
2013-07-12 22:11:00,65.9,57.4,30.06,ESE,108,0.0,0.0,74,0.00,,---,0.00,VWS V14.01,2013-07-13 02:11:00,
2013-07-12 22:12:00,67.2,52.4,30.03,ESE,116,0.0,0.0,59,0.00,,---,0.00,VWS V14.01,2013-07-13 02:12:00,
2013-07-12 22:13:00,65.7,57.2,30.06,ENE,77,0.0,0.0,74,0.00,,---,0.00,VWS V14.01,2013-07-13 02:13:00,
2013-07-12 22:14:00,67.2,52.4,30.03,SSE,148,0.0,7.8,59,0.00,,---,0.00,VWS V14.01,2013-07-13 02:14:00,
2013-07-12 22:15:00,67.2,52.8,30.03,SE,143,0.0,3.1,60,0.00,,---,0.00,VWS V14.01,2013-07-13 02:15:00,
2013-07-12 22:16:00,67.2,52.8,30.03,SSE,150,0.0,0.0,60,0.00,,---,0.00,VWS V14.01,2013-07-13 02:16:00,
2013-07-12 22:17:00,67.2,52.8,30.03,SSE,150,0.0,0.0,60,0.00,,---,0.00,VWS V14.01,2013-07-13 02:17:00,
2013-07-12 22:18:00,65.5,57.4,30.06,ENE,57,0.0,2.7,75,0.00,,---,0.00,VWS V14.01,2013-07-13 02:18:00,
2013-07-12 22:19:00,67.2,52.8,30.03,SE,134,0.0,3.1,60,0.00,,---,0.00,VWS V14.01,2013-07-13 02:19:00,
2013-07-12 22:20:00,67.2,52.8,30.06,ESE,116,0.0,0.0,60,0.00,,---,0.00,VWS V14.01,2013-07-13 02:20:00,
2013-07-12 22:21:00,67.2,53.3,30.06,ESE,116,0.0,0.0,61,0.00,,---,0.00,VWS V14.01,2013-07-13 02:21:00,
2013-07-12 22:22:00,67.0,53.1,30.06,SSE,153,3.6,3.6,61,0.00,,---,0.00,VWS V14.01,2013-07-13 02:22:00,
2013-07-12 22:23:00,65.4,57.2,30.06,ENE,59,0.0,0.0,75,0.00,,---,0.00,VWS V14.01,2013-07-13 02:23:00,
2013-07-12 22:24:00,67.0,53.1,30.06,SE,131,0.0,3.6,61,0.00,,---,0.00,VWS V14.01,2013-07-13 02:24:00,
2013-07-12 22:25:00,67.0,53.1,30.06,East,97,3.1,3.6,61,0.00,,---,0.00,VWS V14.01,2013-07-13 02:25:00,
2013-07-12 22:26:00,67.0,53.1,30.06,SE,132,0.0,4.5,61,0.00,,---,0.00,VWS V14.01,2013-07-13 02:26:00,
2013-07-12 22:27:00,67.0,53.1,30.06,SE,141,3.1,4.0,61,0.00,,---,0.00,VWS V14.01,2013-07-13 02:27:00,
2013-07-12 22:28:00,65.2,57.4,30.06,ENE,59,0.0,0.0,76,0.00,,---,0.00,VWS V14.01,2013-07-13 02:28:00,
2013-07-12 22:29:00,67.2,53.3,30.06,SE,135,3.6,3.6,61,0.00,,---,0.00,VWS V14.01,2013-07-13 02:29:00,
2013-07-12 22:30:00,67.2,53.3,30.06,ESE,107,3.1,3.6,61,0.00,,---,0.00,VWS V14.01,2013-07-13 02:30:00,
2013-07-12 22:31:00,67.0,53.1,30.06,ESE,110,0.0,3.6,61,0.00,,---,0.00,VWS V14.01,2013-07-13 02:31:00,
2013-07-12 22:32:00,67.2,53.3,30.06,ESE,110,0.0,0.0,61,0.00,,---,0.00,VWS V14.01,2013-07-13 02:32:00,
2013-07-12 22:33:00,65.2,58.2,30.06,West,278,0.0,0.0,78,0.00,,---,0.00,VWS V14.01,2013-07-13 02:33:00,
2013-07-12 22:34:00,67.2,53.3,30.06,ESE,123,0.0,3.6,61,0.00,,---,0.00,VWS V14.01,2013-07-13 02:34:00,
2013-07-12 22:35:00,67.2,53.7,30.06,ESE,112,2.7,3.6,62,0.00,,---,0.00,VWS V14.01,2013-07-13 02:35:00,
2013-07-12 22:36:00,67.0,53.5,30.06,East,85,0.0,4.5,62,0.00,,---,0.00,VWS V14.01,2013-07-13 02:36:00,
2013-07-12 22:37:00,67.0,53.5,30.06,East,86,3.1,3.1,62,0.00,,---,0.00,VWS V14.01,2013-07-13 02:37:00,
2013-07-12 22:38:00,65.2,58.2,30.06,NNE,31,0.0,0.0,78,0.00,,---,0.00,VWS V14.01,2013-07-13 02:38:00,
2013-07-12 22:39:00,66.8,53.4,30.06,ESE,104,0.0,5.4,62,0.00,,---,0.00,VWS V14.01,2013-07-13 02:39:00,
2013-07-12 22:40:00,66.8,53.8,30.06,ESE,107,0.0,0.0,63,0.00,,---,0.00,VWS V14.01,2013-07-13 02:40:00,
2013-07-12 22:41:00,66.8,53.8,30.06,ESE,107,0.0,0.0,63,0.00,,---,0.00,VWS V14.01,2013-07-13 02:41:00,
2013-07-12 22:42:00,66.6,53.7,30.06,ESE,107,0.0,0.0,63,0.00,,---,0.00,VWS V14.01,2013-07-13 02:42:00,
2013-07-12 22:43:00,65.2,58.5,30.06,NE,49,0.0,0.0,79,0.00,,---,0.00,VWS V14.01,2013-07-13 02:43:00,
2013-07-12 22:44:00,66.8,54.2,30.06,ESE,107,0.0,0.0,64,0.00,,---,0.00,VWS V14.01,2013-07-13 02:44:00,
2013-07-12 22:45:00,66.6,54.5,30.06,ESE,107,0.0,0.0,65,0.00,,---,0.00,VWS V14.01,2013-07-13 02:45:00,
2013-07-12 22:46:00,66.8,54.7,30.06,ESE,107,0.0,0.0,65,0.00,,---,0.00,VWS V14.01,2013-07-13 02:46:00,
2013-07-12 22:47:00,66.8,55.1,30.06,ESE,107,0.0,0.0,66,0.00,,---,0.00,VWS V14.01,2013-07-13 02:47:00,
2013-07-12 22:48:00,65.4,58.7,30.06,SSE,156,0.0,0.0,79,0.00,,---,0.00,VWS V14.01,2013-07-13 02:48:00,
2013-07-12 22:49:00,66.6,54.9,30.06,ESE,107,0.0,0.0,66,0.00,,---,0.00,VWS V14.01,2013-07-13 02:49:00,
2013-07-12 22:50:00,66.6,55.3,30.06,ESE,108,0.0,0.0,67,0.00,,---,0.00,VWS V14.01,2013-07-13 02:50:00,
2013-07-12 22:51:00,66.6,55.3,30.06,ESE,108,0.0,0.0,67,0.00,,---,0.00,VWS V14.01,2013-07-13 02:51:00,
2013-07-12 22:52:00,66.6,55.7,30.06,ESE,108,0.0,0.0,68,0.00,,---,0.00,VWS V14.01,2013-07-13 02:52:00,
2013-07-12 22:53:00,66.4,55.6,30.06,ESE,108,0.0,0.0,68,0.00,,---,0.00,VWS V14.01,2013-07-13 02:53:00,
2013-07-12 22:54:00,65.2,58.5,30.06,SSE,156,0.0,0.0,79,0.00,,---,0.00,VWS V14.01,2013-07-13 02:54:00,
2013-07-12 22:55:00,66.4,56.0,30.06,ESE,108,0.0,0.0,69,0.00,,---,0.00,VWS V14.01,2013-07-13 02:55:00,
2013-07-12 22:56:00,66.3,55.8,30.06,ESE,109,0.0,0.0,69,0.00,,---,0.00,VWS V14.01,2013-07-13 02:56:00,
2013-07-12 22:57:00,66.3,56.2,30.06,ESE,108,0.0,0.0,70,0.00,,---,0.00,VWS V14.01,2013-07-13 02:57:00,
2013-07-12 22:58:00,66.3,56.2,30.06,ESE,108,0.0,0.0,70,0.00,,---,0.00,VWS V14.01,2013-07-13 02:58:00,
2013-07-12 22:59:00,65.4,58.7,30.06,NW,312,0.0,5.4,79,0.00,,---,0.00,VWS V14.01,2013-07-13 02:59:00,
2013-07-12 23:00:00,66.3,56.2,30.06,ESE,108,0.0,0.0,70,0.00,,---,0.00,VWS V14.01,2013-07-13 03:00:00,
2013-07-12 23:01:00,66.1,56.4,30.06,ESE,108,0.0,0.0,71,0.00,,---,0.00,VWS V14.01,2013-07-13 03:01:00,
2013-07-12 23:02:00,66.1,56.4,30.06,ESE,108,0.0,0.0,71,0.00,,---,0.00,VWS V14.01,2013-07-13 03:02:00,
2013-07-12 23:03:00,66.1,56.4,30.06,ESE,108,0.0,0.0,71,0.00,,---,0.00,VWS V14.01,2013-07-13 03:03:00,
2013-07-12 23:04:00,65.4,58.3,30.06,ENE,57,0.0,0.0,78,0.00,,---,0.00,VWS V14.01,2013-07-13 03:04:00,
2013-07-12 23:05:00,66.1,56.8,30.06,ESE,108,0.0,0.0,72,0.00,,---,0.00,VWS V14.01,2013-07-13 03:05:00,
2013-07-12 23:06:00,66.1,56.8,30.06,ESE,108,0.0,0.0,72,0.00,,---,0.00,VWS V14.01,2013-07-13 03:06:00,
2013-07-12 23:07:00,66.1,57.2,30.06,ESE,108,0.0,0.0,73,0.00,,---,0.00,VWS V14.01,2013-07-13 03:07:00,
2013-07-12 23:08:00,65.9,57.0,30.06,ESE,108,0.0,0.0,73,0.00,,---,0.00,VWS V14.01,2013-07-13 03:08:00,
2013-07-12 23:09:00,65.4,59.0,30.09,WSW,247,0.0,3.1,80,0.00,,---,0.00,VWS V14.01,2013-07-13 03:09:00,
2013-07-12 23:10:00,65.9,57.4,30.06,ESE,108,0.0,0.0,74,0.00,,---,0.00,VWS V14.01,2013-07-13 03:10:00,
2013-07-12 23:11:00,65.9,57.4,30.06,ESE,108,0.0,0.0,74,0.00,,---,0.00,VWS V14.01,2013-07-13 03:11:00,
2013-07-12 23:12:00,65.7,57.2,30.06,ENE,77,0.0,0.0,74,0.00,,---,0.00,VWS V14.01,2013-07-13 03:12:00,
2013-07-12 23:13:00,65.7,57.2,30.06,ENE,77,0.0,0.0,74,0.00,,---,0.00,VWS V14.01,2013-07-13 03:13:00,
2013-07-12 23:14:00,65.2,58.5,30.09,WSW,247,0.0,0.0,79,0.00,,---,0.00,VWS V14.01,2013-07-13 03:14:00,
2013-07-12 23:15:00,65.7,57.6,30.06,NE,46,0.0,0.0,75,0.00,,---,0.00,VWS V14.01,2013-07-13 03:15:00,
2013-07-12 23:16:00,65.7,57.6,30.06,NE,54,0.0,0.0,75,0.00,,---,0.00,VWS V14.01,2013-07-13 03:16:00,
2013-07-12 23:17:00,65.7,57.6,30.06,NE,54,2.7,3.1,75,0.00,,---,0.00,VWS V14.01,2013-07-13 03:17:00,
2013-07-12 23:18:00,65.5,57.4,30.06,ENE,57,0.0,2.7,75,0.00,,---,0.00,VWS V14.01,2013-07-13 03:18:00,
2013-07-12 23:19:00,65.0,58.3,30.09,WSW,247,0.0,0.0,79,0.00,,---,0.00,VWS V14.01,2013-07-13 03:19:00,
2013-07-12 23:20:00,65.5,57.4,30.06,ENE,57,0.0,0.0,75,0.00,,---,0.00,VWS V14.01,2013-07-13 03:20:00,
2013-07-12 23:21:00,65.5,57.4,30.06,ENE,57,0.0,0.0,75,0.00,,---,0.00,VWS V14.01,2013-07-13 03:21:00,
2013-07-12 23:22:00,65.5,57.4,30.06,ENE,57,0.0,0.0,75,0.00,,---,0.00,VWS V14.01,2013-07-13 03:22:00,
2013-07-12 23:23:00,65.4,57.2,30.06,ENE,59,0.0,0.0,75,0.00,,---,0.00,VWS V14.01,2013-07-13 03:23:00,
2013-07-12 23:24:00,65.0,58.7,30.06,SSE,164,0.0,0.0,80,0.00,,---,0.00,VWS V14.01,2013-07-13 03:24:00,
2013-07-12 23:25:00,65.4,57.2,30.06,ENE,59,0.0,0.0,75,0.00,,---,0.00,VWS V14.01,2013-07-13 03:25:00,
2013-07-12 23:26:00,65.2,57.1,30.06,ENE,59,0.0,0.0,75,0.00,,---,0.00,VWS V14.01,2013-07-13 03:26:00,
2013-07-12 23:27:00,65.2,57.4,30.06,ENE,59,0.0,0.0,76,0.00,,---,0.00,VWS V14.01,2013-07-13 03:27:00,
2013-07-12 23:28:00,65.2,57.4,30.06,ENE,59,0.0,0.0,76,0.00,,---,0.00,VWS V14.01,2013-07-13 03:28:00,
2013-07-12 23:29:00,65.0,58.7,30.06,SSE,164,0.0,0.0,80,0.00,,---,0.00,VWS V14.01,2013-07-13 03:29:00,
2013-07-12 23:30:00,65.2,57.4,30.06,ENE,59,0.0,0.0,76,0.00,,---,0.00,VWS V14.01,2013-07-13 03:30:00,
2013-07-12 23:31:00,65.2,57.8,30.06,North,351,0.0,0.0,77,0.00,,---,0.00,VWS V14.01,2013-07-13 03:31:00,
2013-07-12 23:32:00,65.2,57.8,30.06,NW,304,0.0,0.0,77,0.00,,---,0.00,VWS V14.01,2013-07-13 03:32:00,
2013-07-12 23:33:00,65.2,58.2,30.06,WNW,287,0.0,0.0,78,0.00,,---,0.00,VWS V14.01,2013-07-13 03:33:00,
2013-07-12 23:34:00,65.2,59.2,30.06,SSE,164,0.0,0.0,81,0.00,,---,0.00,VWS V14.01,2013-07-13 03:34:00,
2013-07-12 23:35:00,65.2,58.2,30.06,West,276,0.0,0.0,78,0.00,,---,0.00,VWS V14.01,2013-07-13 03:35:00,
2013-07-12 23:36:00,65.0,58.0,30.06,West,259,0.0,0.0,78,0.00,,---,0.00,VWS V14.01,2013-07-13 03:36:00,
2013-07-12 23:37:00,65.2,58.2,30.06,NW,319,0.0,0.0,78,0.00,,---,0.00,VWS V14.01,2013-07-13 03:37:00,
2013-07-12 23:38:00,65.2,58.2,30.06,NW,319,0.0,0.0,78,0.00,,---,0.00,VWS V14.01,2013-07-13 03:38:00,
2013-07-12 23:39:00,65.2,59.2,30.09,SSE,164,0.0,0.0,81,0.00,,---,0.00,VWS V14.01,2013-07-13 03:39:00,
2013-07-12 23:40:00,65.2,58.2,30.06,ENE,58,4.5,4.9,78,0.00,,---,0.00,VWS V14.01,2013-07-13 03:40:00,
2013-07-12 23:41:00,65.2,58.2,30.06,NE,55,0.0,4.5,78,0.00,,---,0.00,VWS V14.01,2013-07-13 03:41:00,
2013-07-12 23:42:00,65.2,58.5,30.06,ENE,63,0.0,3.1,79,0.00,,---,0.00,VWS V14.01,2013-07-13 03:42:00,
2013-07-12 23:43:00,65.2,58.5,30.06,ENE,63,0.0,2.7,79,0.00,,---,0.00,VWS V14.01,2013-07-13 03:43:00,
2013-07-12 23:44:00,65.4,59.7,30.09,SSE,164,0.0,0.0,82,0.00,,---,0.00,VWS V14.01,2013-07-13 03:44:00,
2013-07-12 23:45:00,65.2,58.5,30.06,NW,323,0.0,0.0,79,0.00,,---,0.00,VWS V14.01,2013-07-13 03:45:00,
2013-07-12 23:46:00,65.4,58.7,30.06,WNW,285,0.0,0.0,79,0.00,,---,0.00,VWS V14.01,2013-07-13 03:46:00,
2013-07-12 23:47:00,65.4,58.7,30.06,WSW,239,0.0,0.0,79,0.00,,---,0.00,VWS V14.01,2013-07-13 03:47:00,
2013-07-12 23:48:00,65.4,58.7,30.06,SSE,156,0.0,0.0,79,0.00,,---,0.00,VWS V14.01,2013-07-13 03:48:00,
2013-07-12 23:49:00,65.4,59.7,30.09,SSE,164,0.0,0.0,82,0.00,,---,0.00,VWS V14.01,2013-07-13 03:49:00,
2013-07-12 23:50:00,65.4,58.7,30.06,SSE,157,0.0,0.0,79,0.00,,---,0.00,VWS V14.01,2013-07-13 03:50:00,
2013-07-12 23:51:00,65.4,58.7,30.06,SSE,156,0.0,0.0,79,0.00,,---,0.00,VWS V14.01,2013-07-13 03:51:00,
2013-07-12 23:52:00,65.4,58.7,30.06,SSE,156,0.0,0.0,79,0.00,,---,0.00,VWS V14.01,2013-07-13 03:52:00,
2013-07-12 23:53:00,65.4,58.7,30.06,SSE,156,0.0,0.0,79,0.00,,---,0.00,VWS V14.01,2013-07-13 03:53:00,
2013-07-12 23:54:00,65.4,59.7,30.09,SSE,164,0.0,0.0,82,0.00,,---,0.00,VWS V14.01,2013-07-13 03:54:00,
2013-07-12 23:55:00,65.2,58.5,30.06,SSE,156,0.0,0.0,79,0.00,,---,0.00,VWS V14.01,2013-07-13 03:55:00,
2013-07-12 23:56:00,65.2,58.5,30.06,SSE,156,0.0,0.0,79,0.00,,---,0.00,VWS V14.01,2013-07-13 03:56:00,
2013-07-12 23:57:00,65.2,58.5,30.06,NNW,346,4.0,4.5,79,0.00,,---,0.00,VWS V14.01,2013-07-13 03:57:00,
2013-07-12 23:58:00,65.2,58.5,30.06,West,281,2.7,4.0,79,0.00,,---,0.00,VWS V14.01,2013-07-13 03:58:00,
2013-07-12 23:59:00,65.4,59.7,30.09,SSE,164,0.0,0.0,82,0.00,,---,0.00,VWS V14.01,2013-07-13 03:59:00,